<?xml version="1.0" encoding="UTF-8" standalone="no" ?>
<gpx xmlns="http://www.topografix.com/GPX/1/1" xmlns:xsi="http://www.w3.org/2001/XMLSchema-instance" xsi:schemaLocation="http://www.topografix.com/GPX/1/1 http://www.topografix.com/GPX/1/1/gpx.xsd" version="1.1" creator="VisuGPX - https://www.visugpx.com">
  <metadata>
    <name>Valence</name>
    <desc><![CDATA[Valence 63K 322m 2h40.gpx]]></desc>
  </metadata>
  <trk>
    <name><![CDATA[Valence]]></name>
    <trkseg>
      <trkpt lat="45.1157" lon="4.96432">
        <ele>202.16600036621</ele>
        <time>2010-12-18T12:21:56Z</time>
      </trkpt>
      <trkpt lat="45.1157" lon="4.96432">
        <ele>202.20899963379</ele>
        <time>2010-12-18T12:21:57Z</time>
      </trkpt>
      <trkpt lat="45.11568" lon="4.96432">
        <ele>202.00799560547</ele>
        <time>2010-12-18T12:22:04Z</time>
      </trkpt>
      <trkpt lat="45.11567" lon="4.96431">
        <ele>202.13400268555</ele>
        <time>2010-12-18T12:22:07Z</time>
      </trkpt>
      <trkpt lat="45.11563" lon="4.96448">
        <ele>201.11500549316</ele>
        <time>2010-12-18T12:22:16Z</time>
      </trkpt>
      <trkpt lat="45.11572" lon="4.96455">
        <ele>201.15600585938</ele>
        <time>2010-12-18T12:22:20Z</time>
      </trkpt>
      <trkpt lat="45.11576" lon="4.96452">
        <ele>201.39900207519</ele>
        <time>2010-12-18T12:22:23Z</time>
      </trkpt>
      <trkpt lat="45.11579" lon="4.96455">
        <ele>201.45799255371</ele>
        <time>2010-12-18T12:22:27Z</time>
      </trkpt>
      <trkpt lat="45.11581" lon="4.96465">
        <ele>201.23300170898</ele>
        <time>2010-12-18T12:22:32Z</time>
      </trkpt>
      <trkpt lat="45.11581" lon="4.96493">
        <ele>200.88299560547</ele>
        <time>2010-12-18T12:22:38Z</time>
      </trkpt>
      <trkpt lat="45.11583" lon="4.9652">
        <ele>200.48899841309</ele>
        <time>2010-12-18T12:22:42Z</time>
      </trkpt>
      <trkpt lat="45.11611" lon="4.96592">
        <ele>200.27200317383</ele>
        <time>2010-12-18T12:22:51Z</time>
      </trkpt>
      <trkpt lat="45.1162" lon="4.96617">
        <ele>200.52400207519</ele>
        <time>2010-12-18T12:22:54Z</time>
      </trkpt>
      <trkpt lat="45.11636" lon="4.96657">
        <ele>200.43600463867</ele>
        <time>2010-12-18T12:22:59Z</time>
      </trkpt>
      <trkpt lat="45.11661" lon="4.9672">
        <ele>200.84100341797</ele>
        <time>2010-12-18T12:23:07Z</time>
      </trkpt>
      <trkpt lat="45.117" lon="4.9679">
        <ele>201.66299438477</ele>
        <time>2010-12-18T12:23:17Z</time>
      </trkpt>
      <trkpt lat="45.11721" lon="4.96824">
        <ele>201.94000244141</ele>
        <time>2010-12-18T12:23:22Z</time>
      </trkpt>
      <trkpt lat="45.11733" lon="4.96858">
        <ele>202.00100708008</ele>
        <time>2010-12-18T12:23:26Z</time>
      </trkpt>
      <trkpt lat="45.11752" lon="4.96884">
        <ele>201.98199462891</ele>
        <time>2010-12-18T12:23:30Z</time>
      </trkpt>
      <trkpt lat="45.11769" lon="4.96902">
        <ele>202.22099304199</ele>
        <time>2010-12-18T12:23:33Z</time>
      </trkpt>
      <trkpt lat="45.1182" lon="4.96983">
        <ele>202.83799743652</ele>
        <time>2010-12-18T12:23:43Z</time>
      </trkpt>
      <trkpt lat="45.11874" lon="4.97056">
        <ele>202.98500061035</ele>
        <time>2010-12-18T12:23:52Z</time>
      </trkpt>
      <trkpt lat="45.1188" lon="4.971">
        <ele>202.97900390625</ele>
        <time>2010-12-18T12:23:56Z</time>
      </trkpt>
      <trkpt lat="45.11874" lon="4.97149">
        <ele>201.95500183106</ele>
        <time>2010-12-18T12:24:00Z</time>
      </trkpt>
      <trkpt lat="45.11876" lon="4.97174">
        <ele>202.08799743652</ele>
        <time>2010-12-18T12:24:02Z</time>
      </trkpt>
      <trkpt lat="45.1188" lon="4.97197">
        <ele>202.07200622559</ele>
        <time>2010-12-18T12:24:04Z</time>
      </trkpt>
      <trkpt lat="45.11882" lon="4.97209">
        <ele>201.86099243164</ele>
        <time>2010-12-18T12:24:05Z</time>
      </trkpt>
      <trkpt lat="45.11895" lon="4.97283">
        <ele>201.70300292969</ele>
        <time>2010-12-18T12:24:11Z</time>
      </trkpt>
      <trkpt lat="45.11914" lon="4.97395">
        <ele>201.53100585938</ele>
        <time>2010-12-18T12:24:20Z</time>
      </trkpt>
      <trkpt lat="45.11929" lon="4.97485">
        <ele>201.82699584961</ele>
        <time>2010-12-18T12:24:28Z</time>
      </trkpt>
      <trkpt lat="45.11944" lon="4.97572">
        <ele>202.57299804688</ele>
        <time>2010-12-18T12:24:37Z</time>
      </trkpt>
      <trkpt lat="45.11945" lon="4.97581">
        <ele>202.74699401856</ele>
        <time>2010-12-18T12:24:38Z</time>
      </trkpt>
      <trkpt lat="45.11947" lon="4.97599">
        <ele>203.04400634766</ele>
        <time>2010-12-18T12:24:40Z</time>
      </trkpt>
      <trkpt lat="45.11953" lon="4.97625">
        <ele>203.32699584961</ele>
        <time>2010-12-18T12:24:43Z</time>
      </trkpt>
      <trkpt lat="45.11969" lon="4.97718">
        <ele>203.6549987793</ele>
        <time>2010-12-18T12:24:53Z</time>
      </trkpt>
      <trkpt lat="45.1198" lon="4.9778">
        <ele>203.14199829102</ele>
        <time>2010-12-18T12:25:00Z</time>
      </trkpt>
      <trkpt lat="45.11988" lon="4.9783">
        <ele>203.55900573731</ele>
        <time>2010-12-18T12:25:07Z</time>
      </trkpt>
      <trkpt lat="45.11998" lon="4.97882">
        <ele>203.7619934082</ele>
        <time>2010-12-18T12:25:14Z</time>
      </trkpt>
      <trkpt lat="45.12013" lon="4.97956">
        <ele>204.53999328613</ele>
        <time>2010-12-18T12:25:23Z</time>
      </trkpt>
      <trkpt lat="45.12041" lon="4.98056">
        <ele>205.34599304199</ele>
        <time>2010-12-18T12:25:35Z</time>
      </trkpt>
      <trkpt lat="45.12059" lon="4.98133">
        <ele>206.14199829102</ele>
        <time>2010-12-18T12:25:44Z</time>
      </trkpt>
      <trkpt lat="45.12067" lon="4.98206">
        <ele>206.66400146484</ele>
        <time>2010-12-18T12:25:52Z</time>
      </trkpt>
      <trkpt lat="45.12065" lon="4.98279">
        <ele>206.9640045166</ele>
        <time>2010-12-18T12:26:00Z</time>
      </trkpt>
      <trkpt lat="45.12053" lon="4.98357">
        <ele>207.79100036621</ele>
        <time>2010-12-18T12:26:09Z</time>
      </trkpt>
      <trkpt lat="45.12044" lon="4.98389">
        <ele>208.3809967041</ele>
        <time>2010-12-18T12:26:13Z</time>
      </trkpt>
      <trkpt lat="45.12027" lon="4.98406">
        <ele>208.79600524902</ele>
        <time>2010-12-18T12:26:17Z</time>
      </trkpt>
      <trkpt lat="45.12008" lon="4.98401">
        <ele>207.83299255371</ele>
        <time>2010-12-18T12:26:20Z</time>
      </trkpt>
      <trkpt lat="45.11995" lon="4.98396">
        <ele>207.33999633789</ele>
        <time>2010-12-18T12:26:22Z</time>
      </trkpt>
      <trkpt lat="45.11977" lon="4.98402">
        <ele>207.17700195312</ele>
        <time>2010-12-18T12:26:25Z</time>
      </trkpt>
      <trkpt lat="45.11976" lon="4.98419">
        <ele>207.25999450684</ele>
        <time>2010-12-18T12:26:27Z</time>
      </trkpt>
      <trkpt lat="45.11983" lon="4.98439">
        <ele>207.52499389648</ele>
        <time>2010-12-18T12:26:30Z</time>
      </trkpt>
      <trkpt lat="45.11997" lon="4.98445">
        <ele>207.70199584961</ele>
        <time>2010-12-18T12:26:33Z</time>
      </trkpt>
      <trkpt lat="45.12013" lon="4.98438">
        <ele>207.78799438477</ele>
        <time>2010-12-18T12:26:37Z</time>
      </trkpt>
      <trkpt lat="45.12015" lon="4.98437">
        <ele>207.6549987793</ele>
        <time>2010-12-18T12:26:38Z</time>
      </trkpt>
      <trkpt lat="45.12016" lon="4.98437">
        <ele>207.60600280762</ele>
        <time>2010-12-18T12:26:39Z</time>
      </trkpt>
      <trkpt lat="45.12016" lon="4.98436">
        <ele>207.50500488281</ele>
        <time>2010-12-18T12:26:40Z</time>
      </trkpt>
      <trkpt lat="45.12016" lon="4.98426">
        <ele>205.67100524902</ele>
        <time>2010-12-18T12:34:28Z</time>
      </trkpt>
      <trkpt lat="45.12011" lon="4.98424">
        <ele>205.37800598144</ele>
        <time>2010-12-18T12:34:32Z</time>
      </trkpt>
      <trkpt lat="45.12011" lon="4.98429">
        <ele>205.60200500488</ele>
        <time>2010-12-18T12:34:35Z</time>
      </trkpt>
      <trkpt lat="45.12011" lon="4.9843">
        <ele>205.59899902344</ele>
        <time>2010-12-18T12:34:37Z</time>
      </trkpt>
      <trkpt lat="45.12005" lon="4.98441">
        <ele>205.5890045166</ele>
        <time>2010-12-18T12:34:43Z</time>
      </trkpt>
      <trkpt lat="45.11992" lon="4.98438">
        <ele>205.64300537109</ele>
        <time>2010-12-18T12:34:46Z</time>
      </trkpt>
      <trkpt lat="45.11987" lon="4.98427">
        <ele>205.41999816894</ele>
        <time>2010-12-18T12:34:48Z</time>
      </trkpt>
      <trkpt lat="45.11985" lon="4.98397">
        <ele>204.9109954834</ele>
        <time>2010-12-18T12:34:53Z</time>
      </trkpt>
      <trkpt lat="45.11993" lon="4.98393">
        <ele>204.74099731445</ele>
        <time>2010-12-18T12:34:55Z</time>
      </trkpt>
      <trkpt lat="45.12009" lon="4.98401">
        <ele>204.97300720215</ele>
        <time>2010-12-18T12:34:59Z</time>
      </trkpt>
      <trkpt lat="45.12018" lon="4.98405">
        <ele>205.19099426269</ele>
        <time>2010-12-18T12:35:01Z</time>
      </trkpt>
      <trkpt lat="45.1203" lon="4.98418">
        <ele>206.15600585938</ele>
        <time>2010-12-18T12:35:05Z</time>
      </trkpt>
      <trkpt lat="45.12034" lon="4.98427">
        <ele>206.48699951172</ele>
        <time>2010-12-18T12:35:07Z</time>
      </trkpt>
      <trkpt lat="45.12048" lon="4.98437">
        <ele>206.49800109863</ele>
        <time>2010-12-18T12:35:11Z</time>
      </trkpt>
      <trkpt lat="45.12058" lon="4.98425">
        <ele>206.38000488281</ele>
        <time>2010-12-18T12:35:14Z</time>
      </trkpt>
      <trkpt lat="45.12059" lon="4.98401">
        <ele>206.33200073242</ele>
        <time>2010-12-18T12:35:18Z</time>
      </trkpt>
      <trkpt lat="45.12057" lon="4.98369">
        <ele>205.94900512695</ele>
        <time>2010-12-18T12:35:23Z</time>
      </trkpt>
      <trkpt lat="45.12061" lon="4.98354">
        <ele>205.75700378418</ele>
        <time>2010-12-18T12:35:25Z</time>
      </trkpt>
      <trkpt lat="45.12072" lon="4.98286">
        <ele>204.63900756836</ele>
        <time>2010-12-18T12:35:33Z</time>
      </trkpt>
      <trkpt lat="45.12076" lon="4.98221">
        <ele>204.62100219727</ele>
        <time>2010-12-18T12:35:41Z</time>
      </trkpt>
      <trkpt lat="45.12073" lon="4.98158">
        <ele>204.09199523926</ele>
        <time>2010-12-18T12:35:49Z</time>
      </trkpt>
      <trkpt lat="45.12062" lon="4.98098">
        <ele>203.38200378418</ele>
        <time>2010-12-18T12:35:57Z</time>
      </trkpt>
      <trkpt lat="45.12044" lon="4.98026">
        <ele>202.40299987793</ele>
        <time>2010-12-18T12:36:06Z</time>
      </trkpt>
      <trkpt lat="45.1203" lon="4.97974">
        <ele>201.8809967041</ele>
        <time>2010-12-18T12:36:12Z</time>
      </trkpt>
      <trkpt lat="45.12014" lon="4.97907">
        <ele>201.16200256348</ele>
        <time>2010-12-18T12:36:20Z</time>
      </trkpt>
      <trkpt lat="45.12001" lon="4.97835">
        <ele>200.58099365234</ele>
        <time>2010-12-18T12:36:28Z</time>
      </trkpt>
      <trkpt lat="45.11987" lon="4.97752">
        <ele>199.8690032959</ele>
        <time>2010-12-18T12:36:37Z</time>
      </trkpt>
      <trkpt lat="45.11975" lon="4.97682">
        <ele>199.49200439453</ele>
        <time>2010-12-18T12:36:45Z</time>
      </trkpt>
      <trkpt lat="45.11964" lon="4.97619">
        <ele>199.47200012207</ele>
        <time>2010-12-18T12:36:53Z</time>
      </trkpt>
      <trkpt lat="45.11963" lon="4.97612">
        <ele>199.35600280762</ele>
        <time>2010-12-18T12:36:54Z</time>
      </trkpt>
      <trkpt lat="45.11961" lon="4.97598">
        <ele>199.32099914551</ele>
        <time>2010-12-18T12:36:56Z</time>
      </trkpt>
      <trkpt lat="45.11955" lon="4.97568">
        <ele>199.11399841309</ele>
        <time>2010-12-18T12:37:00Z</time>
      </trkpt>
      <trkpt lat="45.11937" lon="4.97461">
        <ele>197.75199890137</ele>
        <time>2010-12-18T12:37:12Z</time>
      </trkpt>
      <trkpt lat="45.11925" lon="4.97392">
        <ele>197.13400268555</ele>
        <time>2010-12-18T12:37:20Z</time>
      </trkpt>
      <trkpt lat="45.1191" lon="4.97308">
        <ele>196.60400390625</ele>
        <time>2010-12-18T12:37:30Z</time>
      </trkpt>
      <trkpt lat="45.11894" lon="4.97212">
        <ele>196.83299255371</ele>
        <time>2010-12-18T12:37:41Z</time>
      </trkpt>
      <trkpt lat="45.11884" lon="4.97152">
        <ele>197.37600708008</ele>
        <time>2010-12-18T12:37:48Z</time>
      </trkpt>
      <trkpt lat="45.11888" lon="4.97113">
        <ele>197.80999755859</ele>
        <time>2010-12-18T12:37:53Z</time>
      </trkpt>
      <trkpt lat="45.11903" lon="4.97091">
        <ele>198.58799743652</ele>
        <time>2010-12-18T12:37:57Z</time>
      </trkpt>
      <trkpt lat="45.11908" lon="4.9707">
        <ele>199.31900024414</ele>
        <time>2010-12-18T12:38:00Z</time>
      </trkpt>
      <trkpt lat="45.11896" lon="4.97055">
        <ele>199.31700134277</ele>
        <time>2010-12-18T12:38:03Z</time>
      </trkpt>
      <trkpt lat="45.11885" lon="4.97049">
        <ele>199.41600036621</ele>
        <time>2010-12-18T12:38:05Z</time>
      </trkpt>
      <trkpt lat="45.11881" lon="4.97044">
        <ele>199.39100646973</ele>
        <time>2010-12-18T12:38:06Z</time>
      </trkpt>
      <trkpt lat="45.11872" lon="4.97033">
        <ele>199.02099609375</ele>
        <time>2010-12-18T12:38:08Z</time>
      </trkpt>
      <trkpt lat="45.11867" lon="4.97028">
        <ele>199.00100708008</ele>
        <time>2010-12-18T12:38:09Z</time>
      </trkpt>
      <trkpt lat="45.11858" lon="4.97016">
        <ele>198.92300415039</ele>
        <time>2010-12-18T12:38:11Z</time>
      </trkpt>
      <trkpt lat="45.11846" lon="4.96999">
        <ele>198.89199829102</ele>
        <time>2010-12-18T12:38:14Z</time>
      </trkpt>
      <trkpt lat="45.11838" lon="4.96989">
        <ele>198.76100158691</ele>
        <time>2010-12-18T12:38:16Z</time>
      </trkpt>
      <trkpt lat="45.11806" lon="4.96941">
        <ele>198.29299926758</ele>
        <time>2010-12-18T12:38:24Z</time>
      </trkpt>
      <trkpt lat="45.11771" lon="4.96885">
        <ele>198.25399780273</ele>
        <time>2010-12-18T12:38:33Z</time>
      </trkpt>
      <trkpt lat="45.11767" lon="4.96854">
        <ele>198.27799987793</ele>
        <time>2010-12-18T12:38:37Z</time>
      </trkpt>
      <trkpt lat="45.11757" lon="4.96826">
        <ele>198.21800231934</ele>
        <time>2010-12-18T12:38:41Z</time>
      </trkpt>
      <trkpt lat="45.11752" lon="4.96823">
        <ele>198.22599792481</ele>
        <time>2010-12-18T12:38:42Z</time>
      </trkpt>
      <trkpt lat="45.1174" lon="4.96818">
        <ele>198.03900146484</ele>
        <time>2010-12-18T12:38:44Z</time>
      </trkpt>
      <trkpt lat="45.11715" lon="4.96794">
        <ele>197.79499816894</ele>
        <time>2010-12-18T12:38:49Z</time>
      </trkpt>
      <trkpt lat="45.11684" lon="4.96745">
        <ele>197.37699890137</ele>
        <time>2010-12-18T12:38:56Z</time>
      </trkpt>
      <trkpt lat="45.11655" lon="4.96685">
        <ele>196.47900390625</ele>
        <time>2010-12-18T12:39:03Z</time>
      </trkpt>
      <trkpt lat="45.11625" lon="4.96604">
        <ele>196.05200195312</ele>
        <time>2010-12-18T12:39:12Z</time>
      </trkpt>
      <trkpt lat="45.11594" lon="4.96526">
        <ele>196.13900756836</ele>
        <time>2010-12-18T12:39:21Z</time>
      </trkpt>
      <trkpt lat="45.11563" lon="4.96462">
        <ele>196.15800476074</ele>
        <time>2010-12-18T12:39:29Z</time>
      </trkpt>
      <trkpt lat="45.11514" lon="4.96387">
        <ele>196.72900390625</ele>
        <time>2010-12-18T12:39:40Z</time>
      </trkpt>
      <trkpt lat="45.11475" lon="4.96328">
        <ele>197.43499755859</ele>
        <time>2010-12-18T12:39:49Z</time>
      </trkpt>
      <trkpt lat="45.11435" lon="4.96263">
        <ele>198.21299743652</ele>
        <time>2010-12-18T12:39:59Z</time>
      </trkpt>
      <trkpt lat="45.11411" lon="4.96215">
        <ele>198.48300170898</ele>
        <time>2010-12-18T12:40:06Z</time>
      </trkpt>
      <trkpt lat="45.11379" lon="4.9615">
        <ele>197.67900085449</ele>
        <time>2010-12-18T12:40:15Z</time>
      </trkpt>
      <trkpt lat="45.11349" lon="4.96089">
        <ele>197.27600097656</ele>
        <time>2010-12-18T12:40:23Z</time>
      </trkpt>
      <trkpt lat="45.11312" lon="4.96031">
        <ele>196.57200622559</ele>
        <time>2010-12-18T12:40:31Z</time>
      </trkpt>
      <trkpt lat="45.11272" lon="4.95961">
        <ele>195.6309967041</ele>
        <time>2010-12-18T12:40:40Z</time>
      </trkpt>
      <trkpt lat="45.11238" lon="4.95907">
        <ele>194.8390045166</ele>
        <time>2010-12-18T12:40:47Z</time>
      </trkpt>
      <trkpt lat="45.11189" lon="4.95834">
        <ele>194.19900512695</ele>
        <time>2010-12-18T12:40:57Z</time>
      </trkpt>
      <trkpt lat="45.1115" lon="4.95773">
        <ele>194.17700195312</ele>
        <time>2010-12-18T12:41:05Z</time>
      </trkpt>
      <trkpt lat="45.11128" lon="4.9573">
        <ele>194.16600036621</ele>
        <time>2010-12-18T12:41:11Z</time>
      </trkpt>
      <trkpt lat="45.11108" lon="4.95694">
        <ele>194.58999633789</ele>
        <time>2010-12-18T12:41:16Z</time>
      </trkpt>
      <trkpt lat="45.11072" lon="4.95656">
        <ele>195.26400756836</ele>
        <time>2010-12-18T12:41:23Z</time>
      </trkpt>
      <trkpt lat="45.11032" lon="4.95617">
        <ele>195.39199829102</ele>
        <time>2010-12-18T12:41:31Z</time>
      </trkpt>
      <trkpt lat="45.10999" lon="4.9557">
        <ele>194.82099914551</ele>
        <time>2010-12-18T12:41:38Z</time>
      </trkpt>
      <trkpt lat="45.10974" lon="4.95521">
        <ele>194.21800231934</ele>
        <time>2010-12-18T12:41:44Z</time>
      </trkpt>
      <trkpt lat="45.10953" lon="4.95456">
        <ele>193.07200622559</ele>
        <time>2010-12-18T12:41:51Z</time>
      </trkpt>
      <trkpt lat="45.10937" lon="4.95385">
        <ele>192.38800048828</ele>
        <time>2010-12-18T12:41:58Z</time>
      </trkpt>
      <trkpt lat="45.10916" lon="4.95317">
        <ele>192.6190032959</ele>
        <time>2010-12-18T12:42:05Z</time>
      </trkpt>
      <trkpt lat="45.10892" lon="4.95252">
        <ele>192.74200439453</ele>
        <time>2010-12-18T12:42:12Z</time>
      </trkpt>
      <trkpt lat="45.10889" lon="4.95241">
        <ele>192.89799499512</ele>
        <time>2010-12-18T12:42:13Z</time>
      </trkpt>
      <trkpt lat="45.10868" lon="4.95181">
        <ele>194.68200683594</ele>
        <time>2010-12-18T12:42:18Z</time>
      </trkpt>
      <trkpt lat="45.10862" lon="4.95156">
        <ele>195.45100402832</ele>
        <time>2010-12-18T12:42:20Z</time>
      </trkpt>
      <trkpt lat="45.10853" lon="4.95105">
        <ele>198.00100708008</ele>
        <time>2010-12-18T12:42:24Z</time>
      </trkpt>
      <trkpt lat="45.10852" lon="4.95036">
        <ele>201.66900634766</ele>
        <time>2010-12-18T12:42:30Z</time>
      </trkpt>
      <trkpt lat="45.10855" lon="4.94979">
        <ele>205.09599304199</ele>
        <time>2010-12-18T12:42:36Z</time>
      </trkpt>
      <trkpt lat="45.10856" lon="4.94972">
        <ele>205.39999389648</ele>
        <time>2010-12-18T12:42:37Z</time>
      </trkpt>
      <trkpt lat="45.10857" lon="4.94952">
        <ele>206.61999511719</ele>
        <time>2010-12-18T12:42:40Z</time>
      </trkpt>
      <trkpt lat="45.1086" lon="4.94912">
        <ele>208.34399414062</ele>
        <time>2010-12-18T12:42:46Z</time>
      </trkpt>
      <trkpt lat="45.10861" lon="4.949">
        <ele>209.24499511719</ele>
        <time>2010-12-18T12:42:48Z</time>
      </trkpt>
      <trkpt lat="45.10861" lon="4.94894">
        <ele>209.58500671387</ele>
        <time>2010-12-18T12:42:49Z</time>
      </trkpt>
      <trkpt lat="45.10865" lon="4.9486">
        <ele>211.09300231934</ele>
        <time>2010-12-18T12:42:55Z</time>
      </trkpt>
      <trkpt lat="45.10871" lon="4.94845">
        <ele>211.67799377441</ele>
        <time>2010-12-18T12:42:59Z</time>
      </trkpt>
      <trkpt lat="45.10875" lon="4.94838">
        <ele>211.86199951172</ele>
        <time>2010-12-18T12:43:02Z</time>
      </trkpt>
      <trkpt lat="45.10877" lon="4.94835">
        <ele>212.02000427246</ele>
        <time>2010-12-18T12:43:04Z</time>
      </trkpt>
      <trkpt lat="45.10878" lon="4.94835">
        <ele>212.12600708008</ele>
        <time>2010-12-18T12:43:05Z</time>
      </trkpt>
      <trkpt lat="45.1088" lon="4.94829">
        <ele>212.04299926758</ele>
        <time>2010-12-18T12:43:43Z</time>
      </trkpt>
      <trkpt lat="45.10879" lon="4.94809">
        <ele>212.46200561523</ele>
        <time>2010-12-18T12:43:49Z</time>
      </trkpt>
      <trkpt lat="45.10879" lon="4.948">
        <ele>212.41299438477</ele>
        <time>2010-12-18T12:43:51Z</time>
      </trkpt>
      <trkpt lat="45.10884" lon="4.94779">
        <ele>212.55099487305</ele>
        <time>2010-12-18T12:43:54Z</time>
      </trkpt>
      <trkpt lat="45.109" lon="4.94724">
        <ele>212.86099243164</ele>
        <time>2010-12-18T12:44:00Z</time>
      </trkpt>
      <trkpt lat="45.10923" lon="4.94639">
        <ele>212.41499328613</ele>
        <time>2010-12-18T12:44:09Z</time>
      </trkpt>
      <trkpt lat="45.10933" lon="4.94576">
        <ele>212.12600708008</ele>
        <time>2010-12-18T12:44:15Z</time>
      </trkpt>
      <trkpt lat="45.10933" lon="4.94533">
        <ele>211.85299682617</ele>
        <time>2010-12-18T12:44:19Z</time>
      </trkpt>
      <trkpt lat="45.10932" lon="4.945">
        <ele>211.66200256348</ele>
        <time>2010-12-18T12:44:22Z</time>
      </trkpt>
      <trkpt lat="45.10931" lon="4.94489">
        <ele>211.62300109863</ele>
        <time>2010-12-18T12:44:23Z</time>
      </trkpt>
      <trkpt lat="45.10926" lon="4.94401">
        <ele>211.49899291992</ele>
        <time>2010-12-18T12:44:31Z</time>
      </trkpt>
      <trkpt lat="45.10921" lon="4.94336">
        <ele>211.77699279785</ele>
        <time>2010-12-18T12:44:37Z</time>
      </trkpt>
      <trkpt lat="45.10901" lon="4.94289">
        <ele>211.60600280762</ele>
        <time>2010-12-18T12:44:42Z</time>
      </trkpt>
      <trkpt lat="45.10889" lon="4.94274">
        <ele>211.39900207519</ele>
        <time>2010-12-18T12:44:44Z</time>
      </trkpt>
      <trkpt lat="45.10824" lon="4.942">
        <ele>210.17500305176</ele>
        <time>2010-12-18T12:44:54Z</time>
      </trkpt>
      <trkpt lat="45.10775" lon="4.94141">
        <ele>210.3630065918</ele>
        <time>2010-12-18T12:45:02Z</time>
      </trkpt>
      <trkpt lat="45.10755" lon="4.9411">
        <ele>210.92199707031</ele>
        <time>2010-12-18T12:45:06Z</time>
      </trkpt>
      <trkpt lat="45.10751" lon="4.94102">
        <ele>211.00999450684</ele>
        <time>2010-12-18T12:45:07Z</time>
      </trkpt>
      <trkpt lat="45.10724" lon="4.94049">
        <ele>212.30099487305</ele>
        <time>2010-12-18T12:45:14Z</time>
      </trkpt>
      <trkpt lat="45.10708" lon="4.94">
        <ele>212.93499755859</ele>
        <time>2010-12-18T12:45:20Z</time>
      </trkpt>
      <trkpt lat="45.10704" lon="4.93984">
        <ele>213.11000061035</ele>
        <time>2010-12-18T12:45:22Z</time>
      </trkpt>
      <trkpt lat="45.10701" lon="4.93968">
        <ele>213.56700134277</ele>
        <time>2010-12-18T12:45:24Z</time>
      </trkpt>
      <trkpt lat="45.10699" lon="4.9396">
        <ele>213.61500549316</ele>
        <time>2010-12-18T12:45:25Z</time>
      </trkpt>
      <trkpt lat="45.10694" lon="4.93927">
        <ele>214.00900268555</ele>
        <time>2010-12-18T12:45:29Z</time>
      </trkpt>
      <trkpt lat="45.10691" lon="4.9391">
        <ele>214.16499328613</ele>
        <time>2010-12-18T12:45:31Z</time>
      </trkpt>
      <trkpt lat="45.10691" lon="4.93901">
        <ele>214.23699951172</ele>
        <time>2010-12-18T12:45:32Z</time>
      </trkpt>
      <trkpt lat="45.1069" lon="4.93893">
        <ele>214.22799682617</ele>
        <time>2010-12-18T12:45:33Z</time>
      </trkpt>
      <trkpt lat="45.10688" lon="4.93875">
        <ele>214.20899963379</ele>
        <time>2010-12-18T12:45:35Z</time>
      </trkpt>
      <trkpt lat="45.10683" lon="4.93832">
        <ele>213.86500549316</ele>
        <time>2010-12-18T12:45:40Z</time>
      </trkpt>
      <trkpt lat="45.10682" lon="4.93823">
        <ele>213.67399597168</ele>
        <time>2010-12-18T12:45:41Z</time>
      </trkpt>
      <trkpt lat="45.10674" lon="4.93748">
        <ele>212.55499267578</ele>
        <time>2010-12-18T12:45:49Z</time>
      </trkpt>
      <trkpt lat="45.10666" lon="4.93679">
        <ele>210.34599304199</ele>
        <time>2010-12-18T12:45:55Z</time>
      </trkpt>
      <trkpt lat="45.10654" lon="4.936">
        <ele>207.20899963379</ele>
        <time>2010-12-18T12:46:01Z</time>
      </trkpt>
      <trkpt lat="45.10634" lon="4.93497">
        <ele>201.53199768066</ele>
        <time>2010-12-18T12:46:08Z</time>
      </trkpt>
      <trkpt lat="45.10621" lon="4.93431">
        <ele>199.63200378418</ele>
        <time>2010-12-18T12:46:13Z</time>
      </trkpt>
      <trkpt lat="45.10604" lon="4.93344">
        <ele>196.66999816894</ele>
        <time>2010-12-18T12:46:20Z</time>
      </trkpt>
      <trkpt lat="45.10593" lon="4.93288">
        <ele>195.81100463867</ele>
        <time>2010-12-18T12:46:25Z</time>
      </trkpt>
      <trkpt lat="45.10584" lon="4.93245">
        <ele>194.98399353027</ele>
        <time>2010-12-18T12:46:29Z</time>
      </trkpt>
      <trkpt lat="45.10568" lon="4.93162">
        <ele>193.80200195312</ele>
        <time>2010-12-18T12:46:37Z</time>
      </trkpt>
      <trkpt lat="45.10546" lon="4.93048">
        <ele>192.71499633789</ele>
        <time>2010-12-18T12:46:49Z</time>
      </trkpt>
      <trkpt lat="45.1053" lon="4.92963">
        <ele>192.34700012207</ele>
        <time>2010-12-18T12:46:58Z</time>
      </trkpt>
      <trkpt lat="45.10511" lon="4.92867">
        <ele>191.58099365234</ele>
        <time>2010-12-18T12:47:08Z</time>
      </trkpt>
      <trkpt lat="45.10495" lon="4.92784">
        <ele>191.56399536133</ele>
        <time>2010-12-18T12:47:17Z</time>
      </trkpt>
      <trkpt lat="45.10484" lon="4.92736">
        <ele>191.73500061035</ele>
        <time>2010-12-18T12:47:23Z</time>
      </trkpt>
      <trkpt lat="45.10477" lon="4.92701">
        <ele>191.43400573731</ele>
        <time>2010-12-18T12:47:28Z</time>
      </trkpt>
      <trkpt lat="45.10469" lon="4.92654">
        <ele>191.39599609375</ele>
        <time>2010-12-18T12:47:34Z</time>
      </trkpt>
      <trkpt lat="45.10461" lon="4.92609">
        <ele>191.52200317383</ele>
        <time>2010-12-18T12:47:40Z</time>
      </trkpt>
      <trkpt lat="45.10452" lon="4.92557">
        <ele>191.0299987793</ele>
        <time>2010-12-18T12:47:46Z</time>
      </trkpt>
      <trkpt lat="45.10439" lon="4.92487">
        <ele>189.92399597168</ele>
        <time>2010-12-18T12:47:53Z</time>
      </trkpt>
      <trkpt lat="45.10422" lon="4.92388">
        <ele>188.21600341797</ele>
        <time>2010-12-18T12:48:02Z</time>
      </trkpt>
      <trkpt lat="45.10405" lon="4.92292">
        <ele>187.19099426269</ele>
        <time>2010-12-18T12:48:11Z</time>
      </trkpt>
      <trkpt lat="45.10391" lon="4.92211">
        <ele>187.16799926758</ele>
        <time>2010-12-18T12:48:19Z</time>
      </trkpt>
      <trkpt lat="45.10372" lon="4.92101">
        <ele>187.45500183106</ele>
        <time>2010-12-18T12:48:30Z</time>
      </trkpt>
      <trkpt lat="45.10357" lon="4.92018">
        <ele>188.10099792481</ele>
        <time>2010-12-18T12:48:39Z</time>
      </trkpt>
      <trkpt lat="45.10339" lon="4.91919">
        <ele>189.12399291992</ele>
        <time>2010-12-18T12:48:50Z</time>
      </trkpt>
      <trkpt lat="45.10326" lon="4.91842">
        <ele>189.68800354004</ele>
        <time>2010-12-18T12:48:59Z</time>
      </trkpt>
      <trkpt lat="45.10317" lon="4.91787">
        <ele>190.35000610352</ele>
        <time>2010-12-18T12:49:06Z</time>
      </trkpt>
      <trkpt lat="45.10302" lon="4.91762">
        <ele>191.13800048828</ele>
        <time>2010-12-18T12:49:11Z</time>
      </trkpt>
      <trkpt lat="45.10286" lon="4.9176">
        <ele>190.96800231934</ele>
        <time>2010-12-18T12:49:14Z</time>
      </trkpt>
      <trkpt lat="45.10226" lon="4.9177">
        <ele>190.76800537109</ele>
        <time>2010-12-18T12:49:24Z</time>
      </trkpt>
      <trkpt lat="45.10156" lon="4.91781">
        <ele>190.4640045166</ele>
        <time>2010-12-18T12:49:35Z</time>
      </trkpt>
      <trkpt lat="45.10083" lon="4.91792">
        <ele>190.43200683594</ele>
        <time>2010-12-18T12:49:46Z</time>
      </trkpt>
      <trkpt lat="45.10011" lon="4.91806">
        <ele>190.5890045166</ele>
        <time>2010-12-18T12:49:57Z</time>
      </trkpt>
      <trkpt lat="45.09961" lon="4.91815">
        <ele>190.95599365234</ele>
        <time>2010-12-18T12:50:05Z</time>
      </trkpt>
      <trkpt lat="45.09914" lon="4.91825">
        <ele>191.39500427246</ele>
        <time>2010-12-18T12:50:13Z</time>
      </trkpt>
      <trkpt lat="45.09846" lon="4.91838">
        <ele>191.95599365234</ele>
        <time>2010-12-18T12:50:24Z</time>
      </trkpt>
      <trkpt lat="45.09763" lon="4.91854">
        <ele>193.10000610352</ele>
        <time>2010-12-18T12:50:38Z</time>
      </trkpt>
      <trkpt lat="45.09693" lon="4.91867">
        <ele>194.5359954834</ele>
        <time>2010-12-18T12:50:50Z</time>
      </trkpt>
      <trkpt lat="45.09618" lon="4.9188">
        <ele>196.44400024414</ele>
        <time>2010-12-18T12:51:03Z</time>
      </trkpt>
      <trkpt lat="45.09543" lon="4.91892">
        <ele>198.375</ele>
        <time>2010-12-18T12:51:16Z</time>
      </trkpt>
      <trkpt lat="45.09526" lon="4.91894">
        <ele>198.84599304199</ele>
        <time>2010-12-18T12:51:19Z</time>
      </trkpt>
      <trkpt lat="45.09481" lon="4.9189">
        <ele>200.04100036621</ele>
        <time>2010-12-18T12:51:27Z</time>
      </trkpt>
      <trkpt lat="45.0946" lon="4.91883">
        <ele>200.41000366211</ele>
        <time>2010-12-18T12:51:31Z</time>
      </trkpt>
      <trkpt lat="45.09416" lon="4.91867">
        <ele>202.66000366211</ele>
        <time>2010-12-18T12:51:40Z</time>
      </trkpt>
      <trkpt lat="45.09377" lon="4.91853">
        <ele>204.79800415039</ele>
        <time>2010-12-18T12:51:49Z</time>
      </trkpt>
      <trkpt lat="45.09361" lon="4.91847">
        <ele>205.86000061035</ele>
        <time>2010-12-18T12:51:53Z</time>
      </trkpt>
      <trkpt lat="45.09352" lon="4.91844">
        <ele>206.20599365234</ele>
        <time>2010-12-18T12:51:55Z</time>
      </trkpt>
      <trkpt lat="45.09319" lon="4.91831">
        <ele>208.32499694824</ele>
        <time>2010-12-18T12:52:04Z</time>
      </trkpt>
      <trkpt lat="45.09282" lon="4.91818">
        <ele>210.35400390625</ele>
        <time>2010-12-18T12:52:14Z</time>
      </trkpt>
      <trkpt lat="45.0925" lon="4.91808">
        <ele>212.26300048828</ele>
        <time>2010-12-18T12:52:23Z</time>
      </trkpt>
      <trkpt lat="45.09222" lon="4.91807">
        <ele>214.26699829102</ele>
        <time>2010-12-18T12:52:31Z</time>
      </trkpt>
      <trkpt lat="45.09192" lon="4.91816">
        <ele>216.26300048828</ele>
        <time>2010-12-18T12:52:39Z</time>
      </trkpt>
      <trkpt lat="45.09179" lon="4.91821">
        <ele>217.23300170898</ele>
        <time>2010-12-18T12:52:43Z</time>
      </trkpt>
      <trkpt lat="45.09148" lon="4.91832">
        <ele>219.19299316406</ele>
        <time>2010-12-18T12:52:52Z</time>
      </trkpt>
      <trkpt lat="45.09119" lon="4.91843">
        <ele>221.23899841309</ele>
        <time>2010-12-18T12:53:01Z</time>
      </trkpt>
      <trkpt lat="45.09112" lon="4.91846">
        <ele>221.58599853516</ele>
        <time>2010-12-18T12:53:03Z</time>
      </trkpt>
      <trkpt lat="45.09108" lon="4.91847">
        <ele>221.79200744629</ele>
        <time>2010-12-18T12:53:04Z</time>
      </trkpt>
      <trkpt lat="45.09094" lon="4.91853">
        <ele>222.89700317383</ele>
        <time>2010-12-18T12:53:08Z</time>
      </trkpt>
      <trkpt lat="45.09055" lon="4.91867">
        <ele>225.29600524902</ele>
        <time>2010-12-18T12:53:19Z</time>
      </trkpt>
      <trkpt lat="45.09047" lon="4.91869">
        <ele>225.78100585938</ele>
        <time>2010-12-18T12:53:21Z</time>
      </trkpt>
      <trkpt lat="45.0904" lon="4.91871">
        <ele>226.19200134277</ele>
        <time>2010-12-18T12:53:23Z</time>
      </trkpt>
      <trkpt lat="45.09028" lon="4.91874">
        <ele>226.60699462891</ele>
        <time>2010-12-18T12:53:26Z</time>
      </trkpt>
      <trkpt lat="45.09024" lon="4.91875">
        <ele>226.83799743652</ele>
        <time>2010-12-18T12:53:27Z</time>
      </trkpt>
      <trkpt lat="45.09009" lon="4.91879">
        <ele>227.45599365234</ele>
        <time>2010-12-18T12:53:31Z</time>
      </trkpt>
      <trkpt lat="45.08968" lon="4.91888">
        <ele>228.92100524902</ele>
        <time>2010-12-18T12:53:41Z</time>
      </trkpt>
      <trkpt lat="45.08946" lon="4.91892">
        <ele>229.77400207519</ele>
        <time>2010-12-18T12:53:46Z</time>
      </trkpt>
      <trkpt lat="45.08902" lon="4.91902">
        <ele>231.07099914551</ele>
        <time>2010-12-18T12:53:56Z</time>
      </trkpt>
      <trkpt lat="45.08893" lon="4.91904">
        <ele>231.26699829102</ele>
        <time>2010-12-18T12:53:58Z</time>
      </trkpt>
      <trkpt lat="45.0888" lon="4.91906">
        <ele>231.75500488281</ele>
        <time>2010-12-18T12:54:01Z</time>
      </trkpt>
      <trkpt lat="45.08875" lon="4.91906">
        <ele>231.82600402832</ele>
        <time>2010-12-18T12:54:02Z</time>
      </trkpt>
      <trkpt lat="45.08827" lon="4.9191">
        <ele>233.68600463867</ele>
        <time>2010-12-18T12:54:13Z</time>
      </trkpt>
      <trkpt lat="45.08778" lon="4.91915">
        <ele>235.41299438477</ele>
        <time>2010-12-18T12:54:24Z</time>
      </trkpt>
      <trkpt lat="45.0873" lon="4.91918">
        <ele>237.05499267578</ele>
        <time>2010-12-18T12:54:35Z</time>
      </trkpt>
      <trkpt lat="45.08699" lon="4.91921">
        <ele>238.11999511719</ele>
        <time>2010-12-18T12:54:42Z</time>
      </trkpt>
      <trkpt lat="45.08647" lon="4.91924">
        <ele>240.21000671387</ele>
        <time>2010-12-18T12:54:54Z</time>
      </trkpt>
      <trkpt lat="45.08605" lon="4.91929">
        <ele>242.08200073242</ele>
        <time>2010-12-18T12:55:04Z</time>
      </trkpt>
      <trkpt lat="45.08596" lon="4.91932">
        <ele>242.49099731445</ele>
        <time>2010-12-18T12:55:06Z</time>
      </trkpt>
      <trkpt lat="45.08592" lon="4.91933">
        <ele>242.72300720215</ele>
        <time>2010-12-18T12:55:07Z</time>
      </trkpt>
      <trkpt lat="45.0855" lon="4.91949">
        <ele>244.47999572754</ele>
        <time>2010-12-18T12:55:17Z</time>
      </trkpt>
      <trkpt lat="45.08509" lon="4.91966">
        <ele>246.11000061035</ele>
        <time>2010-12-18T12:55:27Z</time>
      </trkpt>
      <trkpt lat="45.08466" lon="4.91985">
        <ele>246.52499389648</ele>
        <time>2010-12-18T12:55:37Z</time>
      </trkpt>
      <trkpt lat="45.08416" lon="4.92006">
        <ele>245.97099304199</ele>
        <time>2010-12-18T12:55:48Z</time>
      </trkpt>
      <trkpt lat="45.08407" lon="4.92009">
        <ele>245.97500610352</ele>
        <time>2010-12-18T12:55:50Z</time>
      </trkpt>
      <trkpt lat="45.08375" lon="4.92023">
        <ele>245.30200195312</ele>
        <time>2010-12-18T12:55:57Z</time>
      </trkpt>
      <trkpt lat="45.08342" lon="4.92034">
        <ele>244.77000427246</ele>
        <time>2010-12-18T12:56:04Z</time>
      </trkpt>
      <trkpt lat="45.08305" lon="4.92038">
        <ele>244.16600036621</ele>
        <time>2010-12-18T12:56:11Z</time>
      </trkpt>
      <trkpt lat="45.08274" lon="4.92036">
        <ele>245.21000671387</ele>
        <time>2010-12-18T12:56:17Z</time>
      </trkpt>
      <trkpt lat="45.08242" lon="4.92031">
        <ele>246.33999633789</ele>
        <time>2010-12-18T12:56:24Z</time>
      </trkpt>
      <trkpt lat="45.08221" lon="4.92017">
        <ele>247.43400573731</ele>
        <time>2010-12-18T12:56:29Z</time>
      </trkpt>
      <trkpt lat="45.08199" lon="4.91984">
        <ele>249.20700073242</ele>
        <time>2010-12-18T12:56:36Z</time>
      </trkpt>
      <trkpt lat="45.0818" lon="4.91937">
        <ele>250.41299438477</ele>
        <time>2010-12-18T12:56:45Z</time>
      </trkpt>
      <trkpt lat="45.08162" lon="4.9189">
        <ele>249.50199890137</ele>
        <time>2010-12-18T12:56:54Z</time>
      </trkpt>
      <trkpt lat="45.0816" lon="4.91883">
        <ele>249.50199890137</ele>
        <time>2010-12-18T12:56:55Z</time>
      </trkpt>
      <trkpt lat="45.08155" lon="4.91848">
        <ele>248.11799621582</ele>
        <time>2010-12-18T12:56:59Z</time>
      </trkpt>
      <trkpt lat="45.08163" lon="4.91784">
        <ele>245.7859954834</ele>
        <time>2010-12-18T12:57:05Z</time>
      </trkpt>
      <trkpt lat="45.08172" lon="4.91725">
        <ele>243.23699951172</ele>
        <time>2010-12-18T12:57:10Z</time>
      </trkpt>
      <trkpt lat="45.08185" lon="4.91643">
        <ele>239.92700195312</ele>
        <time>2010-12-18T12:57:16Z</time>
      </trkpt>
      <trkpt lat="45.08178" lon="4.91583">
        <ele>237.46200561523</ele>
        <time>2010-12-18T12:57:20Z</time>
      </trkpt>
      <trkpt lat="45.08157" lon="4.91543">
        <ele>234.64100646973</ele>
        <time>2010-12-18T12:57:23Z</time>
      </trkpt>
      <trkpt lat="45.08147" lon="4.91533">
        <ele>234.29800415039</ele>
        <time>2010-12-18T12:57:24Z</time>
      </trkpt>
      <trkpt lat="45.08073" lon="4.91461">
        <ele>227.91499328613</ele>
        <time>2010-12-18T12:57:31Z</time>
      </trkpt>
      <trkpt lat="45.08023" lon="4.91402">
        <ele>224.47399902344</ele>
        <time>2010-12-18T12:57:36Z</time>
      </trkpt>
      <trkpt lat="45.07957" lon="4.91318">
        <ele>220.24099731445</ele>
        <time>2010-12-18T12:57:43Z</time>
      </trkpt>
      <trkpt lat="45.07919" lon="4.91253">
        <ele>217.36799621582</ele>
        <time>2010-12-18T12:57:48Z</time>
      </trkpt>
      <trkpt lat="45.07882" lon="4.9119">
        <ele>214.61799621582</ele>
        <time>2010-12-18T12:57:53Z</time>
      </trkpt>
      <trkpt lat="45.0785" lon="4.91145">
        <ele>212.73699951172</ele>
        <time>2010-12-18T12:57:57Z</time>
      </trkpt>
      <trkpt lat="45.07805" lon="4.91102">
        <ele>211.39999389648</ele>
        <time>2010-12-18T12:58:02Z</time>
      </trkpt>
      <trkpt lat="45.07762" lon="4.91045">
        <ele>209.80799865723</ele>
        <time>2010-12-18T12:58:08Z</time>
      </trkpt>
      <trkpt lat="45.07719" lon="4.90983">
        <ele>208.20500183106</ele>
        <time>2010-12-18T12:58:15Z</time>
      </trkpt>
      <trkpt lat="45.07685" lon="4.90925">
        <ele>207.10299682617</ele>
        <time>2010-12-18T12:58:21Z</time>
      </trkpt>
      <trkpt lat="45.07666" lon="4.90872">
        <ele>206.19400024414</ele>
        <time>2010-12-18T12:58:25Z</time>
      </trkpt>
      <trkpt lat="45.07632" lon="4.90773">
        <ele>203.89599609375</ele>
        <time>2010-12-18T12:58:33Z</time>
      </trkpt>
      <trkpt lat="45.07629" lon="4.90761">
        <ele>203.54899597168</ele>
        <time>2010-12-18T12:58:34Z</time>
      </trkpt>
      <trkpt lat="45.07621" lon="4.90725">
        <ele>202.98699951172</ele>
        <time>2010-12-18T12:58:37Z</time>
      </trkpt>
      <trkpt lat="45.0762" lon="4.90712">
        <ele>202.95300292969</ele>
        <time>2010-12-18T12:58:38Z</time>
      </trkpt>
      <trkpt lat="45.07619" lon="4.907">
        <ele>202.8450012207</ele>
        <time>2010-12-18T12:58:39Z</time>
      </trkpt>
      <trkpt lat="45.07622" lon="4.90638">
        <ele>201.63200378418</ele>
        <time>2010-12-18T12:58:44Z</time>
      </trkpt>
      <trkpt lat="45.07629" lon="4.90573">
        <ele>199.29699707031</ele>
        <time>2010-12-18T12:58:49Z</time>
      </trkpt>
      <trkpt lat="45.07645" lon="4.9052">
        <ele>196.63400268555</ele>
        <time>2010-12-18T12:58:53Z</time>
      </trkpt>
      <trkpt lat="45.07669" lon="4.90469">
        <ele>193.78399658203</ele>
        <time>2010-12-18T12:58:57Z</time>
      </trkpt>
      <trkpt lat="45.07703" lon="4.90389">
        <ele>189.14799499512</ele>
        <time>2010-12-18T12:59:03Z</time>
      </trkpt>
      <trkpt lat="45.07708" lon="4.90375">
        <ele>188.94299316406</ele>
        <time>2010-12-18T12:59:04Z</time>
      </trkpt>
      <trkpt lat="45.0772" lon="4.90303">
        <ele>187.3450012207</ele>
        <time>2010-12-18T12:59:09Z</time>
      </trkpt>
      <trkpt lat="45.07724" lon="4.90218">
        <ele>185.10899353027</ele>
        <time>2010-12-18T12:59:15Z</time>
      </trkpt>
      <trkpt lat="45.07726" lon="4.90111">
        <ele>182.5119934082</ele>
        <time>2010-12-18T12:59:23Z</time>
      </trkpt>
      <trkpt lat="45.07729" lon="4.90086">
        <ele>182.06300354004</ele>
        <time>2010-12-18T12:59:25Z</time>
      </trkpt>
      <trkpt lat="45.07731" lon="4.90073">
        <ele>181.9109954834</ele>
        <time>2010-12-18T12:59:26Z</time>
      </trkpt>
      <trkpt lat="45.07753" lon="4.89983">
        <ele>179.93600463867</ele>
        <time>2010-12-18T12:59:34Z</time>
      </trkpt>
      <trkpt lat="45.0779" lon="4.89916">
        <ele>178.17599487305</ele>
        <time>2010-12-18T12:59:41Z</time>
      </trkpt>
      <trkpt lat="45.07843" lon="4.89824">
        <ele>176.23699951172</ele>
        <time>2010-12-18T12:59:51Z</time>
      </trkpt>
      <trkpt lat="45.07869" lon="4.8978">
        <ele>175.41999816894</ele>
        <time>2010-12-18T12:59:56Z</time>
      </trkpt>
      <trkpt lat="45.07883" lon="4.89736">
        <ele>174.65699768066</ele>
        <time>2010-12-18T13:00:00Z</time>
      </trkpt>
      <trkpt lat="45.07883" lon="4.89724">
        <ele>174.47900390625</ele>
        <time>2010-12-18T13:00:01Z</time>
      </trkpt>
      <trkpt lat="45.07888" lon="4.89642">
        <ele>173.63800048828</ele>
        <time>2010-12-18T13:00:08Z</time>
      </trkpt>
      <trkpt lat="45.07895" lon="4.89562">
        <ele>173.01100158691</ele>
        <time>2010-12-18T13:00:15Z</time>
      </trkpt>
      <trkpt lat="45.07892" lon="4.89463">
        <ele>173.43600463867</ele>
        <time>2010-12-18T13:00:24Z</time>
      </trkpt>
      <trkpt lat="45.07881" lon="4.89402">
        <ele>173.58999633789</ele>
        <time>2010-12-18T13:00:30Z</time>
      </trkpt>
      <trkpt lat="45.07861" lon="4.89335">
        <ele>173.86500549316</ele>
        <time>2010-12-18T13:00:37Z</time>
      </trkpt>
      <trkpt lat="45.07833" lon="4.89261">
        <ele>173.83399963379</ele>
        <time>2010-12-18T13:00:45Z</time>
      </trkpt>
      <trkpt lat="45.07801" lon="4.89179">
        <ele>172.66999816894</ele>
        <time>2010-12-18T13:00:54Z</time>
      </trkpt>
      <trkpt lat="45.07784" lon="4.8912">
        <ele>168.95599365234</ele>
        <time>2010-12-18T13:00:59Z</time>
      </trkpt>
      <trkpt lat="45.07766" lon="4.89068">
        <ele>166.10099792481</ele>
        <time>2010-12-18T13:01:03Z</time>
      </trkpt>
      <trkpt lat="45.07753" lon="4.89045">
        <ele>165.35299682617</ele>
        <time>2010-12-18T13:01:05Z</time>
      </trkpt>
      <trkpt lat="45.07717" lon="4.89001">
        <ele>164.18299865723</ele>
        <time>2010-12-18T13:01:10Z</time>
      </trkpt>
      <trkpt lat="45.0768" lon="4.88973">
        <ele>163.79600524902</ele>
        <time>2010-12-18T13:01:15Z</time>
      </trkpt>
      <trkpt lat="45.0764" lon="4.88957">
        <ele>162.64799499512</ele>
        <time>2010-12-18T13:01:20Z</time>
      </trkpt>
      <trkpt lat="45.07601" lon="4.88954">
        <ele>162.18299865723</ele>
        <time>2010-12-18T13:01:25Z</time>
      </trkpt>
      <trkpt lat="45.07573" lon="4.88958">
        <ele>161.50500488281</ele>
        <time>2010-12-18T13:01:29Z</time>
      </trkpt>
      <trkpt lat="45.07547" lon="4.8895">
        <ele>161.41799926758</ele>
        <time>2010-12-18T13:01:33Z</time>
      </trkpt>
      <trkpt lat="45.07533" lon="4.88951">
        <ele>161.33799743652</ele>
        <time>2010-12-18T13:01:35Z</time>
      </trkpt>
      <trkpt lat="45.07498" lon="4.88944">
        <ele>160.32499694824</ele>
        <time>2010-12-18T13:01:40Z</time>
      </trkpt>
      <trkpt lat="45.07457" lon="4.88923">
        <ele>159.07800292969</ele>
        <time>2010-12-18T13:01:46Z</time>
      </trkpt>
      <trkpt lat="45.07417" lon="4.88881">
        <ele>158.2140045166</ele>
        <time>2010-12-18T13:01:53Z</time>
      </trkpt>
      <trkpt lat="45.07394" lon="4.88839">
        <ele>157.71800231934</ele>
        <time>2010-12-18T13:01:58Z</time>
      </trkpt>
      <trkpt lat="45.07381" lon="4.88788">
        <ele>156.94400024414</ele>
        <time>2010-12-18T13:02:03Z</time>
      </trkpt>
      <trkpt lat="45.0737" lon="4.88692">
        <ele>155.68200683594</ele>
        <time>2010-12-18T13:02:12Z</time>
      </trkpt>
      <trkpt lat="45.0736" lon="4.88614">
        <ele>154.6130065918</ele>
        <time>2010-12-18T13:02:19Z</time>
      </trkpt>
      <trkpt lat="45.07339" lon="4.88541">
        <ele>153.47300720215</ele>
        <time>2010-12-18T13:02:26Z</time>
      </trkpt>
      <trkpt lat="45.0731" lon="4.8845">
        <ele>152.2140045166</ele>
        <time>2010-12-18T13:02:35Z</time>
      </trkpt>
      <trkpt lat="45.07288" lon="4.8838">
        <ele>151.27099609375</ele>
        <time>2010-12-18T13:02:42Z</time>
      </trkpt>
      <trkpt lat="45.07256" lon="4.88321">
        <ele>150.61700439453</ele>
        <time>2010-12-18T13:02:49Z</time>
      </trkpt>
      <trkpt lat="45.07201" lon="4.88232">
        <ele>148.48199462891</ele>
        <time>2010-12-18T13:03:00Z</time>
      </trkpt>
      <trkpt lat="45.07153" lon="4.88152">
        <ele>147.13999938965</ele>
        <time>2010-12-18T13:03:10Z</time>
      </trkpt>
      <trkpt lat="45.07117" lon="4.8809">
        <ele>146.26800537109</ele>
        <time>2010-12-18T13:03:18Z</time>
      </trkpt>
      <trkpt lat="45.07087" lon="4.88025">
        <ele>145.6609954834</ele>
        <time>2010-12-18T13:03:26Z</time>
      </trkpt>
      <trkpt lat="45.07058" lon="4.87941">
        <ele>145.90299987793</ele>
        <time>2010-12-18T13:03:36Z</time>
      </trkpt>
      <trkpt lat="45.07037" lon="4.87873">
        <ele>146.00999450684</ele>
        <time>2010-12-18T13:03:44Z</time>
      </trkpt>
      <trkpt lat="45.0702" lon="4.87812">
        <ele>145.48300170898</ele>
        <time>2010-12-18T13:03:51Z</time>
      </trkpt>
      <trkpt lat="45.06995" lon="4.87724">
        <ele>144.56100463867</ele>
        <time>2010-12-18T13:04:01Z</time>
      </trkpt>
      <trkpt lat="45.0697" lon="4.87631">
        <ele>142.84700012207</ele>
        <time>2010-12-18T13:04:11Z</time>
      </trkpt>
      <trkpt lat="45.06948" lon="4.87569">
        <ele>141.88200378418</ele>
        <time>2010-12-18T13:04:18Z</time>
      </trkpt>
      <trkpt lat="45.06917" lon="4.87514">
        <ele>140.62899780273</ele>
        <time>2010-12-18T13:04:25Z</time>
      </trkpt>
      <trkpt lat="45.06907" lon="4.87499">
        <ele>140.20300292969</ele>
        <time>2010-12-18T13:04:27Z</time>
      </trkpt>
      <trkpt lat="45.06882" lon="4.8748">
        <ele>139.47700500488</ele>
        <time>2010-12-18T13:04:31Z</time>
      </trkpt>
      <trkpt lat="45.06863" lon="4.87457">
        <ele>139.26899719238</ele>
        <time>2010-12-18T13:04:35Z</time>
      </trkpt>
      <trkpt lat="45.06855" lon="4.8742">
        <ele>139.20599365234</ele>
        <time>2010-12-18T13:04:39Z</time>
      </trkpt>
      <trkpt lat="45.06855" lon="4.874">
        <ele>138.87199401856</ele>
        <time>2010-12-18T13:04:41Z</time>
      </trkpt>
      <trkpt lat="45.06868" lon="4.87308">
        <ele>138.68899536133</ele>
        <time>2010-12-18T13:04:50Z</time>
      </trkpt>
      <trkpt lat="45.06892" lon="4.87217">
        <ele>138.37899780273</ele>
        <time>2010-12-18T13:04:59Z</time>
      </trkpt>
      <trkpt lat="45.0692" lon="4.87152">
        <ele>138.35499572754</ele>
        <time>2010-12-18T13:05:06Z</time>
      </trkpt>
      <trkpt lat="45.06963" lon="4.87076">
        <ele>138.13600158691</ele>
        <time>2010-12-18T13:05:15Z</time>
      </trkpt>
      <trkpt lat="45.06986" lon="4.87023">
        <ele>138.11999511719</ele>
        <time>2010-12-18T13:05:21Z</time>
      </trkpt>
      <trkpt lat="45.07003" lon="4.86965">
        <ele>138.07800292969</ele>
        <time>2010-12-18T13:05:27Z</time>
      </trkpt>
      <trkpt lat="45.07027" lon="4.86852">
        <ele>137.37300109863</ele>
        <time>2010-12-18T13:05:38Z</time>
      </trkpt>
      <trkpt lat="45.07033" lon="4.86785">
        <ele>136.00999450684</ele>
        <time>2010-12-18T13:05:44Z</time>
      </trkpt>
      <trkpt lat="45.07042" lon="4.86713">
        <ele>134.25999450684</ele>
        <time>2010-12-18T13:05:50Z</time>
      </trkpt>
      <trkpt lat="45.07046" lon="4.86701">
        <ele>133.9049987793</ele>
        <time>2010-12-18T13:05:51Z</time>
      </trkpt>
      <trkpt lat="45.07072" lon="4.86646">
        <ele>131.64900207519</ele>
        <time>2010-12-18T13:05:56Z</time>
      </trkpt>
      <trkpt lat="45.0709" lon="4.86612">
        <ele>130.53199768066</ele>
        <time>2010-12-18T13:05:59Z</time>
      </trkpt>
      <trkpt lat="45.071" lon="4.86558">
        <ele>128.78700256348</ele>
        <time>2010-12-18T13:06:03Z</time>
      </trkpt>
      <trkpt lat="45.07093" lon="4.86517">
        <ele>127.69799804688</ele>
        <time>2010-12-18T13:06:06Z</time>
      </trkpt>
      <trkpt lat="45.07081" lon="4.86493">
        <ele>126.74600219727</ele>
        <time>2010-12-18T13:06:08Z</time>
      </trkpt>
      <trkpt lat="45.07067" lon="4.8645">
        <ele>126.03199768066</ele>
        <time>2010-12-18T13:06:12Z</time>
      </trkpt>
      <trkpt lat="45.07067" lon="4.86407">
        <ele>126.00099945068</ele>
        <time>2010-12-18T13:06:16Z</time>
      </trkpt>
      <trkpt lat="45.07052" lon="4.86384">
        <ele>125.95099639893</ele>
        <time>2010-12-18T13:06:19Z</time>
      </trkpt>
      <trkpt lat="45.0703" lon="4.86377">
        <ele>125.65599822998</ele>
        <time>2010-12-18T13:06:22Z</time>
      </trkpt>
      <trkpt lat="45.07016" lon="4.86382">
        <ele>125.65100097656</ele>
        <time>2010-12-18T13:06:24Z</time>
      </trkpt>
      <trkpt lat="45.06983" lon="4.86395">
        <ele>125.29900360107</ele>
        <time>2010-12-18T13:06:29Z</time>
      </trkpt>
      <trkpt lat="45.06918" lon="4.86422">
        <ele>122.94699859619</ele>
        <time>2010-12-18T13:06:38Z</time>
      </trkpt>
      <trkpt lat="45.0691" lon="4.86425">
        <ele>122.70600128174</ele>
        <time>2010-12-18T13:06:39Z</time>
      </trkpt>
      <trkpt lat="45.06847" lon="4.86424">
        <ele>121.66100311279</ele>
        <time>2010-12-18T13:06:47Z</time>
      </trkpt>
      <trkpt lat="45.06779" lon="4.86424">
        <ele>120.922996521</ele>
        <time>2010-12-18T13:06:56Z</time>
      </trkpt>
      <trkpt lat="45.06756" lon="4.86428">
        <ele>120.452003479</ele>
        <time>2010-12-18T13:06:59Z</time>
      </trkpt>
      <trkpt lat="45.06721" lon="4.86449">
        <ele>119.97100067139</ele>
        <time>2010-12-18T13:07:04Z</time>
      </trkpt>
      <trkpt lat="45.06673" lon="4.86496">
        <ele>119.28600311279</ele>
        <time>2010-12-18T13:07:12Z</time>
      </trkpt>
      <trkpt lat="45.06606" lon="4.86554">
        <ele>119.05799865723</ele>
        <time>2010-12-18T13:07:23Z</time>
      </trkpt>
      <trkpt lat="45.06548" lon="4.86601">
        <ele>118.85099792481</ele>
        <time>2010-12-18T13:07:33Z</time>
      </trkpt>
      <trkpt lat="45.06517" lon="4.8663">
        <ele>118.87300109863</ele>
        <time>2010-12-18T13:07:39Z</time>
      </trkpt>
      <trkpt lat="45.06487" lon="4.86646">
        <ele>118.37699890137</ele>
        <time>2010-12-18T13:07:44Z</time>
      </trkpt>
      <trkpt lat="45.06482" lon="4.86662">
        <ele>118.26100158691</ele>
        <time>2010-12-18T13:07:46Z</time>
      </trkpt>
      <trkpt lat="45.06477" lon="4.86697">
        <ele>118.56099700928</ele>
        <time>2010-12-18T13:07:50Z</time>
      </trkpt>
      <trkpt lat="45.06474" lon="4.86705">
        <ele>118.34400177002</ele>
        <time>2010-12-18T13:07:51Z</time>
      </trkpt>
      <trkpt lat="45.06439" lon="4.86781">
        <ele>117.78700256348</ele>
        <time>2010-12-18T13:08:01Z</time>
      </trkpt>
      <trkpt lat="45.06424" lon="4.86808">
        <ele>117.59700012207</ele>
        <time>2010-12-18T13:08:05Z</time>
      </trkpt>
      <trkpt lat="45.06388" lon="4.86844">
        <ele>117.44799804688</ele>
        <time>2010-12-18T13:08:12Z</time>
      </trkpt>
      <trkpt lat="45.0634" lon="4.86867">
        <ele>116.99800109863</ele>
        <time>2010-12-18T13:08:20Z</time>
      </trkpt>
      <trkpt lat="45.06282" lon="4.86887">
        <ele>116.88300323486</ele>
        <time>2010-12-18T13:08:29Z</time>
      </trkpt>
      <trkpt lat="45.06223" lon="4.86902">
        <ele>116.2799987793</ele>
        <time>2010-12-18T13:08:38Z</time>
      </trkpt>
      <trkpt lat="45.06151" lon="4.86919">
        <ele>116.33999633789</ele>
        <time>2010-12-18T13:08:49Z</time>
      </trkpt>
      <trkpt lat="45.06109" lon="4.86924">
        <ele>116.10199737549</ele>
        <time>2010-12-18T13:08:55Z</time>
      </trkpt>
      <trkpt lat="45.06067" lon="4.8691">
        <ele>116.30200195312</ele>
        <time>2010-12-18T13:09:00Z</time>
      </trkpt>
      <trkpt lat="45.06018" lon="4.86869">
        <ele>115.72899627685</ele>
        <time>2010-12-18T13:09:07Z</time>
      </trkpt>
      <trkpt lat="45.05969" lon="4.86821">
        <ele>115.55400085449</ele>
        <time>2010-12-18T13:09:15Z</time>
      </trkpt>
      <trkpt lat="45.05925" lon="4.86779">
        <ele>116.08599853516</ele>
        <time>2010-12-18T13:09:23Z</time>
      </trkpt>
      <trkpt lat="45.05874" lon="4.86729">
        <ele>116.83200073242</ele>
        <time>2010-12-18T13:09:33Z</time>
      </trkpt>
      <trkpt lat="45.05861" lon="4.86717">
        <ele>117.47599792481</ele>
        <time>2010-12-18T13:09:36Z</time>
      </trkpt>
      <trkpt lat="45.05855" lon="4.86694">
        <ele>117.62599945068</ele>
        <time>2010-12-18T13:09:40Z</time>
      </trkpt>
      <trkpt lat="45.05866" lon="4.86677">
        <ele>117.05799865723</ele>
        <time>2010-12-18T13:09:43Z</time>
      </trkpt>
      <trkpt lat="45.05882" lon="4.86659">
        <ele>115.68599700928</ele>
        <time>2010-12-18T13:09:46Z</time>
      </trkpt>
      <trkpt lat="45.05885" lon="4.86628">
        <ele>114.55799865723</ele>
        <time>2010-12-18T13:09:49Z</time>
      </trkpt>
      <trkpt lat="45.05885" lon="4.86619">
        <ele>114.30100250244</ele>
        <time>2010-12-18T13:09:50Z</time>
      </trkpt>
      <trkpt lat="45.0587" lon="4.86582">
        <ele>114.17400360107</ele>
        <time>2010-12-18T13:09:54Z</time>
      </trkpt>
      <trkpt lat="45.05843" lon="4.86515">
        <ele>113.98999786377</ele>
        <time>2010-12-18T13:10:02Z</time>
      </trkpt>
      <trkpt lat="45.05837" lon="4.865">
        <ele>114.08999633789</ele>
        <time>2010-12-18T13:10:04Z</time>
      </trkpt>
      <trkpt lat="45.05834" lon="4.86471">
        <ele>114.38600158691</ele>
        <time>2010-12-18T13:10:08Z</time>
      </trkpt>
      <trkpt lat="45.05838" lon="4.8646">
        <ele>114.48699951172</ele>
        <time>2010-12-18T13:10:10Z</time>
      </trkpt>
      <trkpt lat="45.05858" lon="4.86414">
        <ele>114.16300201416</ele>
        <time>2010-12-18T13:10:17Z</time>
      </trkpt>
      <trkpt lat="45.05886" lon="4.8635">
        <ele>113.5179977417</ele>
        <time>2010-12-18T13:10:25Z</time>
      </trkpt>
      <trkpt lat="45.05917" lon="4.86278">
        <ele>113.10600280762</ele>
        <time>2010-12-18T13:10:34Z</time>
      </trkpt>
      <trkpt lat="45.05931" lon="4.86239">
        <ele>113.08999633789</ele>
        <time>2010-12-18T13:10:39Z</time>
      </trkpt>
      <trkpt lat="45.05953" lon="4.86186">
        <ele>113.13600158691</ele>
        <time>2010-12-18T13:10:46Z</time>
      </trkpt>
      <trkpt lat="45.0596" lon="4.86166">
        <ele>113.29599761963</ele>
        <time>2010-12-18T13:10:49Z</time>
      </trkpt>
      <trkpt lat="45.05952" lon="4.86146">
        <ele>113.16100311279</ele>
        <time>2010-12-18T13:10:53Z</time>
      </trkpt>
      <trkpt lat="45.05936" lon="4.86149">
        <ele>112.83499908447</ele>
        <time>2010-12-18T13:10:56Z</time>
      </trkpt>
      <trkpt lat="45.05892" lon="4.86166">
        <ele>112.13999938965</ele>
        <time>2010-12-18T13:11:04Z</time>
      </trkpt>
      <trkpt lat="45.05849" lon="4.86184">
        <ele>111.53700256348</ele>
        <time>2010-12-18T13:11:12Z</time>
      </trkpt>
      <trkpt lat="45.05802" lon="4.86208">
        <ele>111.62000274658</ele>
        <time>2010-12-18T13:11:21Z</time>
      </trkpt>
      <trkpt lat="45.0576" lon="4.86226">
        <ele>111.63200378418</ele>
        <time>2010-12-18T13:11:29Z</time>
      </trkpt>
      <trkpt lat="45.05708" lon="4.86244">
        <ele>111.81500244141</ele>
        <time>2010-12-18T13:11:39Z</time>
      </trkpt>
      <trkpt lat="45.05666" lon="4.86254">
        <ele>112.30599975586</ele>
        <time>2010-12-18T13:11:47Z</time>
      </trkpt>
      <trkpt lat="45.05619" lon="4.86264">
        <ele>113.05200195312</ele>
        <time>2010-12-18T13:11:56Z</time>
      </trkpt>
      <trkpt lat="45.05566" lon="4.86271">
        <ele>113.76599884033</ele>
        <time>2010-12-18T13:12:06Z</time>
      </trkpt>
      <trkpt lat="45.05515" lon="4.8627">
        <ele>114.02300262451</ele>
        <time>2010-12-18T13:12:15Z</time>
      </trkpt>
      <trkpt lat="45.05471" lon="4.86266">
        <ele>113.85500335693</ele>
        <time>2010-12-18T13:12:23Z</time>
      </trkpt>
      <trkpt lat="45.05418" lon="4.86256">
        <ele>113.4940032959</ele>
        <time>2010-12-18T13:12:32Z</time>
      </trkpt>
      <trkpt lat="45.05366" lon="4.8624">
        <ele>113.22399902344</ele>
        <time>2010-12-18T13:12:41Z</time>
      </trkpt>
      <trkpt lat="45.05328" lon="4.86226">
        <ele>113.31099700928</ele>
        <time>2010-12-18T13:12:48Z</time>
      </trkpt>
      <trkpt lat="45.05278" lon="4.86203">
        <ele>113.16300201416</ele>
        <time>2010-12-18T13:12:57Z</time>
      </trkpt>
      <trkpt lat="45.05229" lon="4.86175">
        <ele>113.16400146484</ele>
        <time>2010-12-18T13:13:06Z</time>
      </trkpt>
      <trkpt lat="45.05181" lon="4.86143">
        <ele>113.36399841309</ele>
        <time>2010-12-18T13:13:15Z</time>
      </trkpt>
      <trkpt lat="45.05136" lon="4.86112">
        <ele>113.52700042725</ele>
        <time>2010-12-18T13:13:24Z</time>
      </trkpt>
      <trkpt lat="45.051" lon="4.8609">
        <ele>113.52400207519</ele>
        <time>2010-12-18T13:13:31Z</time>
      </trkpt>
      <trkpt lat="45.0506" lon="4.86061">
        <ele>113.47799682617</ele>
        <time>2010-12-18T13:13:39Z</time>
      </trkpt>
      <trkpt lat="45.05008" lon="4.86024">
        <ele>113.66999816894</ele>
        <time>2010-12-18T13:13:49Z</time>
      </trkpt>
      <trkpt lat="45.04956" lon="4.85983">
        <ele>112.98999786377</ele>
        <time>2010-12-18T13:13:59Z</time>
      </trkpt>
      <trkpt lat="45.04916" lon="4.85949">
        <ele>112.67500305176</ele>
        <time>2010-12-18T13:14:07Z</time>
      </trkpt>
      <trkpt lat="45.04872" lon="4.85911">
        <ele>112.6429977417</ele>
        <time>2010-12-18T13:14:16Z</time>
      </trkpt>
      <trkpt lat="45.04819" lon="4.85865">
        <ele>112.28700256348</ele>
        <time>2010-12-18T13:14:27Z</time>
      </trkpt>
      <trkpt lat="45.04778" lon="4.85828">
        <ele>112.18299865723</ele>
        <time>2010-12-18T13:14:36Z</time>
      </trkpt>
      <trkpt lat="45.0473" lon="4.85782">
        <ele>111.99500274658</ele>
        <time>2010-12-18T13:14:46Z</time>
      </trkpt>
      <trkpt lat="45.04691" lon="4.85742">
        <ele>112.29900360107</ele>
        <time>2010-12-18T13:14:55Z</time>
      </trkpt>
      <trkpt lat="45.04658" lon="4.85706">
        <ele>112.21900177002</ele>
        <time>2010-12-18T13:15:03Z</time>
      </trkpt>
      <trkpt lat="45.04621" lon="4.85661">
        <ele>112.23000335693</ele>
        <time>2010-12-18T13:15:12Z</time>
      </trkpt>
      <trkpt lat="45.04585" lon="4.85616">
        <ele>112.15699768066</ele>
        <time>2010-12-18T13:15:20Z</time>
      </trkpt>
      <trkpt lat="45.04556" lon="4.85578">
        <ele>112.13200378418</ele>
        <time>2010-12-18T13:15:27Z</time>
      </trkpt>
      <trkpt lat="45.04524" lon="4.85536">
        <ele>112.68499755859</ele>
        <time>2010-12-18T13:15:35Z</time>
      </trkpt>
      <trkpt lat="45.04492" lon="4.85492">
        <ele>113.047996521</ele>
        <time>2010-12-18T13:15:43Z</time>
      </trkpt>
      <trkpt lat="45.04458" lon="4.85437">
        <ele>113.13999938965</ele>
        <time>2010-12-18T13:15:52Z</time>
      </trkpt>
      <trkpt lat="45.04425" lon="4.85378">
        <ele>112.89499664307</ele>
        <time>2010-12-18T13:16:01Z</time>
      </trkpt>
      <trkpt lat="45.04397" lon="4.85332">
        <ele>112.65000152588</ele>
        <time>2010-12-18T13:16:08Z</time>
      </trkpt>
      <trkpt lat="45.04372" lon="4.85292">
        <ele>112.25099945068</ele>
        <time>2010-12-18T13:16:14Z</time>
      </trkpt>
      <trkpt lat="45.0434" lon="4.85239">
        <ele>112.64800262451</ele>
        <time>2010-12-18T13:16:22Z</time>
      </trkpt>
      <trkpt lat="45.04322" lon="4.85196">
        <ele>113.26899719238</ele>
        <time>2010-12-18T13:16:28Z</time>
      </trkpt>
      <trkpt lat="45.04313" lon="4.85148">
        <ele>113.37200164795</ele>
        <time>2010-12-18T13:16:34Z</time>
      </trkpt>
      <trkpt lat="45.043" lon="4.85099">
        <ele>113.25099945068</ele>
        <time>2010-12-18T13:16:40Z</time>
      </trkpt>
      <trkpt lat="45.04277" lon="4.85056">
        <ele>113.40299987793</ele>
        <time>2010-12-18T13:16:46Z</time>
      </trkpt>
      <trkpt lat="45.04244" lon="4.85002">
        <ele>113.4940032959</ele>
        <time>2010-12-18T13:16:54Z</time>
      </trkpt>
      <trkpt lat="45.04203" lon="4.84941">
        <ele>113.48500061035</ele>
        <time>2010-12-18T13:17:03Z</time>
      </trkpt>
      <trkpt lat="45.04175" lon="4.84917">
        <ele>113.3450012207</ele>
        <time>2010-12-18T13:17:08Z</time>
      </trkpt>
      <trkpt lat="45.04135" lon="4.84903">
        <ele>112.70500183106</ele>
        <time>2010-12-18T13:17:14Z</time>
      </trkpt>
      <trkpt lat="45.04129" lon="4.84901">
        <ele>112.38999938965</ele>
        <time>2010-12-18T13:17:15Z</time>
      </trkpt>
      <trkpt lat="45.04104" lon="4.84881">
        <ele>111.78700256348</ele>
        <time>2010-12-18T13:17:19Z</time>
      </trkpt>
      <trkpt lat="45.04071" lon="4.84832">
        <ele>111.30799865723</ele>
        <time>2010-12-18T13:17:26Z</time>
      </trkpt>
      <trkpt lat="45.04031" lon="4.84779">
        <ele>110.58200073242</ele>
        <time>2010-12-18T13:17:34Z</time>
      </trkpt>
      <trkpt lat="45.03992" lon="4.84738">
        <ele>110.59600067139</ele>
        <time>2010-12-18T13:17:41Z</time>
      </trkpt>
      <trkpt lat="45.03946" lon="4.84694">
        <ele>110.00299835205</ele>
        <time>2010-12-18T13:17:49Z</time>
      </trkpt>
      <trkpt lat="45.039" lon="4.84653">
        <ele>109.75499725342</ele>
        <time>2010-12-18T13:17:57Z</time>
      </trkpt>
      <trkpt lat="45.03861" lon="4.84619">
        <ele>110.02899932861</ele>
        <time>2010-12-18T13:18:04Z</time>
      </trkpt>
      <trkpt lat="45.0381" lon="4.84573">
        <ele>109.8929977417</ele>
        <time>2010-12-18T13:18:13Z</time>
      </trkpt>
      <trkpt lat="45.0376" lon="4.84529">
        <ele>109.66400146484</ele>
        <time>2010-12-18T13:18:22Z</time>
      </trkpt>
      <trkpt lat="45.03718" lon="4.84492">
        <ele>109.73400115967</ele>
        <time>2010-12-18T13:18:30Z</time>
      </trkpt>
      <trkpt lat="45.03672" lon="4.84455">
        <ele>109.92900085449</ele>
        <time>2010-12-18T13:18:39Z</time>
      </trkpt>
      <trkpt lat="45.03623" lon="4.84418">
        <ele>110.01399993897</ele>
        <time>2010-12-18T13:18:48Z</time>
      </trkpt>
      <trkpt lat="45.03558" lon="4.84374">
        <ele>110.34999847412</ele>
        <time>2010-12-18T13:19:00Z</time>
      </trkpt>
      <trkpt lat="45.03514" lon="4.84348">
        <ele>110.35299682617</ele>
        <time>2010-12-18T13:19:08Z</time>
      </trkpt>
      <trkpt lat="45.0346" lon="4.84321">
        <ele>109.87999725342</ele>
        <time>2010-12-18T13:19:17Z</time>
      </trkpt>
      <trkpt lat="45.03399" lon="4.84297">
        <ele>109.71499633789</ele>
        <time>2010-12-18T13:19:27Z</time>
      </trkpt>
      <trkpt lat="45.03351" lon="4.84281">
        <ele>109.89099884033</ele>
        <time>2010-12-18T13:19:35Z</time>
      </trkpt>
      <trkpt lat="45.03294" lon="4.84265">
        <ele>109.28900146484</ele>
        <time>2010-12-18T13:19:44Z</time>
      </trkpt>
      <trkpt lat="45.03228" lon="4.84253">
        <ele>109.20099639893</ele>
        <time>2010-12-18T13:19:54Z</time>
      </trkpt>
      <trkpt lat="45.03169" lon="4.84249">
        <ele>108.58999633789</ele>
        <time>2010-12-18T13:20:03Z</time>
      </trkpt>
      <trkpt lat="45.03114" lon="4.8425">
        <ele>109.27100372315</ele>
        <time>2010-12-18T13:20:12Z</time>
      </trkpt>
      <trkpt lat="45.03052" lon="4.84254">
        <ele>109.61599731445</ele>
        <time>2010-12-18T13:20:22Z</time>
      </trkpt>
      <trkpt lat="45.02991" lon="4.84263">
        <ele>109.30000305176</ele>
        <time>2010-12-18T13:20:32Z</time>
      </trkpt>
      <trkpt lat="45.02953" lon="4.84271">
        <ele>109.41400146484</ele>
        <time>2010-12-18T13:20:39Z</time>
      </trkpt>
      <trkpt lat="45.02905" lon="4.84284">
        <ele>109.65299987793</ele>
        <time>2010-12-18T13:20:48Z</time>
      </trkpt>
      <trkpt lat="45.02862" lon="4.84298">
        <ele>109.84200286865</ele>
        <time>2010-12-18T13:20:56Z</time>
      </trkpt>
      <trkpt lat="45.02804" lon="4.84321">
        <ele>109.57299804688</ele>
        <time>2010-12-18T13:21:06Z</time>
      </trkpt>
      <trkpt lat="45.02753" lon="4.84347">
        <ele>109.60500335693</ele>
        <time>2010-12-18T13:21:15Z</time>
      </trkpt>
      <trkpt lat="45.02703" lon="4.84375">
        <ele>109.58000183106</ele>
        <time>2010-12-18T13:21:24Z</time>
      </trkpt>
      <trkpt lat="45.02665" lon="4.844">
        <ele>109.54100036621</ele>
        <time>2010-12-18T13:21:31Z</time>
      </trkpt>
      <trkpt lat="45.02617" lon="4.84434">
        <ele>109.72399902344</ele>
        <time>2010-12-18T13:21:40Z</time>
      </trkpt>
      <trkpt lat="45.02571" lon="4.84472">
        <ele>109.99199676514</ele>
        <time>2010-12-18T13:21:49Z</time>
      </trkpt>
      <trkpt lat="45.02519" lon="4.84519">
        <ele>109.65000152588</ele>
        <time>2010-12-18T13:21:59Z</time>
      </trkpt>
      <trkpt lat="45.02478" lon="4.8456">
        <ele>109.16899871826</ele>
        <time>2010-12-18T13:22:07Z</time>
      </trkpt>
      <trkpt lat="45.02438" lon="4.84601">
        <ele>108.97599792481</ele>
        <time>2010-12-18T13:22:15Z</time>
      </trkpt>
      <trkpt lat="45.02388" lon="4.84652">
        <ele>108.79000091553</ele>
        <time>2010-12-18T13:22:25Z</time>
      </trkpt>
      <trkpt lat="45.02349" lon="4.84691">
        <ele>109.29699707031</ele>
        <time>2010-12-18T13:22:33Z</time>
      </trkpt>
      <trkpt lat="45.02295" lon="4.84745">
        <ele>109.50700378418</ele>
        <time>2010-12-18T13:22:44Z</time>
      </trkpt>
      <trkpt lat="45.02247" lon="4.84795">
        <ele>109.59200286865</ele>
        <time>2010-12-18T13:22:54Z</time>
      </trkpt>
      <trkpt lat="45.02199" lon="4.84843">
        <ele>109.72499847412</ele>
        <time>2010-12-18T13:23:04Z</time>
      </trkpt>
      <trkpt lat="45.02154" lon="4.8489">
        <ele>109.50499725342</ele>
        <time>2010-12-18T13:23:13Z</time>
      </trkpt>
      <trkpt lat="45.02113" lon="4.84935">
        <ele>109.62999725342</ele>
        <time>2010-12-18T13:23:22Z</time>
      </trkpt>
      <trkpt lat="45.02089" lon="4.84968">
        <ele>109.96499633789</ele>
        <time>2010-12-18T13:23:29Z</time>
      </trkpt>
      <trkpt lat="45.02069" lon="4.85008">
        <ele>110.61699676514</ele>
        <time>2010-12-18T13:23:36Z</time>
      </trkpt>
      <trkpt lat="45.02061" lon="4.85029">
        <ele>111.90599822998</ele>
        <time>2010-12-18T13:23:40Z</time>
      </trkpt>
      <trkpt lat="45.02045" lon="4.8505">
        <ele>112.65299987793</ele>
        <time>2010-12-18T13:23:45Z</time>
      </trkpt>
      <trkpt lat="45.02027" lon="4.85056">
        <ele>113.13400268555</ele>
        <time>2010-12-18T13:23:49Z</time>
      </trkpt>
      <trkpt lat="45.01985" lon="4.85059">
        <ele>114.2080001831</ele>
        <time>2010-12-18T13:23:57Z</time>
      </trkpt>
      <trkpt lat="45.01956" lon="4.85078">
        <ele>114.79900360107</ele>
        <time>2010-12-18T13:24:03Z</time>
      </trkpt>
      <trkpt lat="45.01918" lon="4.85116">
        <ele>114.85900115967</ele>
        <time>2010-12-18T13:24:11Z</time>
      </trkpt>
      <trkpt lat="45.01886" lon="4.85148">
        <ele>114.76999664307</ele>
        <time>2010-12-18T13:24:18Z</time>
      </trkpt>
      <trkpt lat="45.01855" lon="4.85179">
        <ele>114.62799835205</ele>
        <time>2010-12-18T13:24:25Z</time>
      </trkpt>
      <trkpt lat="45.01842" lon="4.85192">
        <ele>114.50800323486</ele>
        <time>2010-12-18T13:24:28Z</time>
      </trkpt>
      <trkpt lat="45.01797" lon="4.85237">
        <ele>114.54100036621</ele>
        <time>2010-12-18T13:24:38Z</time>
      </trkpt>
      <trkpt lat="45.0176" lon="4.85274">
        <ele>114.25700378418</ele>
        <time>2010-12-18T13:24:46Z</time>
      </trkpt>
      <trkpt lat="45.01716" lon="4.85319">
        <ele>114.22899627685</ele>
        <time>2010-12-18T13:24:55Z</time>
      </trkpt>
      <trkpt lat="45.01679" lon="4.85356">
        <ele>114.92700195312</ele>
        <time>2010-12-18T13:25:03Z</time>
      </trkpt>
      <trkpt lat="45.01646" lon="4.8539">
        <ele>116.0299987793</ele>
        <time>2010-12-18T13:25:11Z</time>
      </trkpt>
      <trkpt lat="45.01608" lon="4.85434">
        <ele>117.54699707031</ele>
        <time>2010-12-18T13:25:21Z</time>
      </trkpt>
      <trkpt lat="45.01581" lon="4.85474">
        <ele>118.77100372315</ele>
        <time>2010-12-18T13:25:29Z</time>
      </trkpt>
      <trkpt lat="45.01551" lon="4.85519">
        <ele>119.93499755859</ele>
        <time>2010-12-18T13:25:38Z</time>
      </trkpt>
      <trkpt lat="45.01537" lon="4.85534">
        <ele>120.36699676514</ele>
        <time>2010-12-18T13:25:43Z</time>
      </trkpt>
      <trkpt lat="45.01533" lon="4.85535">
        <ele>120.37699890137</ele>
        <time>2010-12-18T13:25:44Z</time>
      </trkpt>
      <trkpt lat="45.01518" lon="4.85527">
        <ele>120.40899658203</ele>
        <time>2010-12-18T13:25:48Z</time>
      </trkpt>
      <trkpt lat="45.0151" lon="4.8551">
        <ele>120.26300048828</ele>
        <time>2010-12-18T13:25:51Z</time>
      </trkpt>
      <trkpt lat="45.01491" lon="4.85461">
        <ele>120.88800048828</ele>
        <time>2010-12-18T13:26:00Z</time>
      </trkpt>
      <trkpt lat="45.01474" lon="4.85417">
        <ele>121.6309967041</ele>
        <time>2010-12-18T13:26:09Z</time>
      </trkpt>
      <trkpt lat="45.01461" lon="4.85382">
        <ele>122.25399780273</ele>
        <time>2010-12-18T13:26:15Z</time>
      </trkpt>
      <trkpt lat="45.0144" lon="4.85327">
        <ele>122.20400238037</ele>
        <time>2010-12-18T13:26:23Z</time>
      </trkpt>
      <trkpt lat="45.01415" lon="4.85261">
        <ele>121.17099761963</ele>
        <time>2010-12-18T13:26:32Z</time>
      </trkpt>
      <trkpt lat="45.01399" lon="4.8522">
        <ele>119.73500061035</ele>
        <time>2010-12-18T13:26:37Z</time>
      </trkpt>
      <trkpt lat="45.01373" lon="4.85152">
        <ele>116.75399780273</ele>
        <time>2010-12-18T13:26:44Z</time>
      </trkpt>
      <trkpt lat="45.01347" lon="4.85083">
        <ele>114.45899963379</ele>
        <time>2010-12-18T13:26:50Z</time>
      </trkpt>
      <trkpt lat="45.01331" lon="4.85026">
        <ele>113.75499725342</ele>
        <time>2010-12-18T13:26:55Z</time>
      </trkpt>
      <trkpt lat="45.01315" lon="4.84966">
        <ele>113.8330001831</ele>
        <time>2010-12-18T13:27:01Z</time>
      </trkpt>
      <trkpt lat="45.01308" lon="4.84932">
        <ele>113.37200164795</ele>
        <time>2010-12-18T13:27:05Z</time>
      </trkpt>
      <trkpt lat="45.01307" lon="4.84917">
        <ele>113.46800231934</ele>
        <time>2010-12-18T13:27:07Z</time>
      </trkpt>
      <trkpt lat="45.01295" lon="4.84899">
        <ele>113.26899719238</ele>
        <time>2010-12-18T13:27:11Z</time>
      </trkpt>
      <trkpt lat="45.01287" lon="4.84905">
        <ele>113.36699676514</ele>
        <time>2010-12-18T13:27:13Z</time>
      </trkpt>
      <trkpt lat="45.0128" lon="4.84915">
        <ele>113.09400177002</ele>
        <time>2010-12-18T13:27:15Z</time>
      </trkpt>
      <trkpt lat="45.01259" lon="4.84929">
        <ele>113.40399932861</ele>
        <time>2010-12-18T13:27:20Z</time>
      </trkpt>
      <trkpt lat="45.01221" lon="4.84953">
        <ele>113.14099884033</ele>
        <time>2010-12-18T13:27:27Z</time>
      </trkpt>
      <trkpt lat="45.01196" lon="4.84967">
        <ele>113.31700134277</ele>
        <time>2010-12-18T13:27:31Z</time>
      </trkpt>
      <trkpt lat="45.01166" lon="4.84979">
        <ele>112.85099792481</ele>
        <time>2010-12-18T13:27:36Z</time>
      </trkpt>
      <trkpt lat="45.01136" lon="4.84993">
        <ele>112.83000183106</ele>
        <time>2010-12-18T13:27:41Z</time>
      </trkpt>
      <trkpt lat="45.01109" lon="4.85024">
        <ele>112.93599700928</ele>
        <time>2010-12-18T13:27:46Z</time>
      </trkpt>
      <trkpt lat="45.0108" lon="4.85076">
        <ele>113.05999755859</ele>
        <time>2010-12-18T13:27:52Z</time>
      </trkpt>
      <trkpt lat="45.01061" lon="4.85117">
        <ele>113.08999633789</ele>
        <time>2010-12-18T13:27:57Z</time>
      </trkpt>
      <trkpt lat="45.01042" lon="4.85176">
        <ele>112.97100067139</ele>
        <time>2010-12-18T13:28:04Z</time>
      </trkpt>
      <trkpt lat="45.01022" lon="4.85244">
        <ele>113.12999725342</ele>
        <time>2010-12-18T13:28:12Z</time>
      </trkpt>
      <trkpt lat="45.01002" lon="4.85302">
        <ele>112.8929977417</ele>
        <time>2010-12-18T13:28:19Z</time>
      </trkpt>
      <trkpt lat="45.00989" lon="4.85332">
        <ele>112.61399841309</ele>
        <time>2010-12-18T13:28:23Z</time>
      </trkpt>
      <trkpt lat="45.00964" lon="4.85354">
        <ele>112.82599639893</ele>
        <time>2010-12-18T13:28:28Z</time>
      </trkpt>
      <trkpt lat="45.00948" lon="4.85366">
        <ele>112.82499694824</ele>
        <time>2010-12-18T13:28:31Z</time>
      </trkpt>
      <trkpt lat="45.00917" lon="4.85392">
        <ele>113.58000183106</ele>
        <time>2010-12-18T13:28:37Z</time>
      </trkpt>
      <trkpt lat="45.00874" lon="4.85417">
        <ele>113.65699768066</ele>
        <time>2010-12-18T13:28:44Z</time>
      </trkpt>
      <trkpt lat="45.0082" lon="4.85449">
        <ele>113.44699859619</ele>
        <time>2010-12-18T13:28:53Z</time>
      </trkpt>
      <trkpt lat="45.0076" lon="4.85483">
        <ele>113.46099853516</ele>
        <time>2010-12-18T13:29:03Z</time>
      </trkpt>
      <trkpt lat="45.00711" lon="4.85511">
        <ele>113.2620010376</ele>
        <time>2010-12-18T13:29:11Z</time>
      </trkpt>
      <trkpt lat="45.00682" lon="4.8553">
        <ele>112.9940032959</ele>
        <time>2010-12-18T13:29:16Z</time>
      </trkpt>
      <trkpt lat="45.00657" lon="4.8554">
        <ele>112.86499786377</ele>
        <time>2010-12-18T13:29:20Z</time>
      </trkpt>
      <trkpt lat="45.00639" lon="4.85554">
        <ele>113.09200286865</ele>
        <time>2010-12-18T13:29:23Z</time>
      </trkpt>
      <trkpt lat="45.00595" lon="4.85576">
        <ele>113.01899719238</ele>
        <time>2010-12-18T13:29:30Z</time>
      </trkpt>
      <trkpt lat="45.00546" lon="4.85605">
        <ele>113.33200073242</ele>
        <time>2010-12-18T13:29:38Z</time>
      </trkpt>
      <trkpt lat="45.00499" lon="4.85633">
        <ele>113.89099884033</ele>
        <time>2010-12-18T13:29:46Z</time>
      </trkpt>
      <trkpt lat="45.00457" lon="4.85658">
        <ele>114.15100097656</ele>
        <time>2010-12-18T13:29:53Z</time>
      </trkpt>
      <trkpt lat="45.00415" lon="4.85683">
        <ele>114.05500030518</ele>
        <time>2010-12-18T13:30:00Z</time>
      </trkpt>
      <trkpt lat="45.00367" lon="4.85713">
        <ele>114.13400268555</ele>
        <time>2010-12-18T13:30:08Z</time>
      </trkpt>
      <trkpt lat="45.00331" lon="4.85734">
        <ele>114.38300323486</ele>
        <time>2010-12-18T13:30:14Z</time>
      </trkpt>
      <trkpt lat="45.00279" lon="4.85765">
        <ele>114.95500183106</ele>
        <time>2010-12-18T13:30:23Z</time>
      </trkpt>
      <trkpt lat="45.00226" lon="4.85794">
        <ele>115.72399902344</ele>
        <time>2010-12-18T13:30:32Z</time>
      </trkpt>
      <trkpt lat="45.00169" lon="4.85826">
        <ele>115.91200256348</ele>
        <time>2010-12-18T13:30:42Z</time>
      </trkpt>
      <trkpt lat="45.00119" lon="4.85854">
        <ele>115.15799713135</ele>
        <time>2010-12-18T13:30:50Z</time>
      </trkpt>
      <trkpt lat="45.00074" lon="4.85878">
        <ele>113.62799835205</ele>
        <time>2010-12-18T13:30:57Z</time>
      </trkpt>
      <trkpt lat="45.00027" lon="4.85906">
        <ele>111.82499694824</ele>
        <time>2010-12-18T13:31:04Z</time>
      </trkpt>
      <trkpt lat="45.00002" lon="4.85922">
        <ele>111.25</ele>
        <time>2010-12-18T13:31:08Z</time>
      </trkpt>
      <trkpt lat="44.99952" lon="4.85953">
        <ele>110.9700012207</ele>
        <time>2010-12-18T13:31:16Z</time>
      </trkpt>
      <trkpt lat="44.999" lon="4.85982">
        <ele>110.72899627685</ele>
        <time>2010-12-18T13:31:24Z</time>
      </trkpt>
      <trkpt lat="44.99832" lon="4.8602">
        <ele>109.66799926758</ele>
        <time>2010-12-18T13:31:34Z</time>
      </trkpt>
      <trkpt lat="44.99752" lon="4.86064">
        <ele>108.7559967041</ele>
        <time>2010-12-18T13:31:46Z</time>
      </trkpt>
      <trkpt lat="44.99697" lon="4.86094">
        <ele>108.33699798584</ele>
        <time>2010-12-18T13:31:54Z</time>
      </trkpt>
      <trkpt lat="44.99643" lon="4.86124">
        <ele>108.41999816894</ele>
        <time>2010-12-18T13:32:02Z</time>
      </trkpt>
      <trkpt lat="44.99583" lon="4.86158">
        <ele>108.27600097656</ele>
        <time>2010-12-18T13:32:11Z</time>
      </trkpt>
      <trkpt lat="44.99519" lon="4.86193">
        <ele>108.20500183106</ele>
        <time>2010-12-18T13:32:21Z</time>
      </trkpt>
      <trkpt lat="44.99468" lon="4.86221">
        <ele>108.43099975586</ele>
        <time>2010-12-18T13:32:29Z</time>
      </trkpt>
      <trkpt lat="44.99412" lon="4.86252">
        <ele>108.44799804688</ele>
        <time>2010-12-18T13:32:38Z</time>
      </trkpt>
      <trkpt lat="44.99357" lon="4.86282">
        <ele>107.99099731445</ele>
        <time>2010-12-18T13:32:47Z</time>
      </trkpt>
      <trkpt lat="44.99302" lon="4.86313">
        <ele>108.12699890137</ele>
        <time>2010-12-18T13:32:56Z</time>
      </trkpt>
      <trkpt lat="44.99241" lon="4.86348">
        <ele>107.99299621582</ele>
        <time>2010-12-18T13:33:06Z</time>
      </trkpt>
      <trkpt lat="44.99185" lon="4.86378">
        <ele>108.44499969482</ele>
        <time>2010-12-18T13:33:15Z</time>
      </trkpt>
      <trkpt lat="44.99134" lon="4.86397">
        <ele>108.327003479</ele>
        <time>2010-12-18T13:33:23Z</time>
      </trkpt>
      <trkpt lat="44.99094" lon="4.86398">
        <ele>108.31500244141</ele>
        <time>2010-12-18T13:33:29Z</time>
      </trkpt>
      <trkpt lat="44.99059" lon="4.86386">
        <ele>108.30500030518</ele>
        <time>2010-12-18T13:33:34Z</time>
      </trkpt>
      <trkpt lat="44.99008" lon="4.86358">
        <ele>108.45400238037</ele>
        <time>2010-12-18T13:33:42Z</time>
      </trkpt>
      <trkpt lat="44.98952" lon="4.86327">
        <ele>108.53099822998</ele>
        <time>2010-12-18T13:33:51Z</time>
      </trkpt>
      <trkpt lat="44.98891" lon="4.86292">
        <ele>108.56199645996</ele>
        <time>2010-12-18T13:34:01Z</time>
      </trkpt>
      <trkpt lat="44.98848" lon="4.86254">
        <ele>108.29399871826</ele>
        <time>2010-12-18T13:34:09Z</time>
      </trkpt>
      <trkpt lat="44.98816" lon="4.8621">
        <ele>108.37100219727</ele>
        <time>2010-12-18T13:34:16Z</time>
      </trkpt>
      <trkpt lat="44.98775" lon="4.86138">
        <ele>108.27700042725</ele>
        <time>2010-12-18T13:34:26Z</time>
      </trkpt>
      <trkpt lat="44.98738" lon="4.86071">
        <ele>108.11199951172</ele>
        <time>2010-12-18T13:34:35Z</time>
      </trkpt>
      <trkpt lat="44.98705" lon="4.8601">
        <ele>108.14600372315</ele>
        <time>2010-12-18T13:34:43Z</time>
      </trkpt>
      <trkpt lat="44.98661" lon="4.85932">
        <ele>108.1309967041</ele>
        <time>2010-12-18T13:34:53Z</time>
      </trkpt>
      <trkpt lat="44.98623" lon="4.85863">
        <ele>108.08699798584</ele>
        <time>2010-12-18T13:35:02Z</time>
      </trkpt>
      <trkpt lat="44.98585" lon="4.85796">
        <ele>108.26699829102</ele>
        <time>2010-12-18T13:35:11Z</time>
      </trkpt>
      <trkpt lat="44.98551" lon="4.85738">
        <ele>108.62599945068</ele>
        <time>2010-12-18T13:35:19Z</time>
      </trkpt>
      <trkpt lat="44.98537" lon="4.85723">
        <ele>108.97599792481</ele>
        <time>2010-12-18T13:35:22Z</time>
      </trkpt>
      <trkpt lat="44.98503" lon="4.85704">
        <ele>111.06500244141</ele>
        <time>2010-12-18T13:35:29Z</time>
      </trkpt>
      <trkpt lat="44.98498" lon="4.85703">
        <ele>111.45899963379</ele>
        <time>2010-12-18T13:35:30Z</time>
      </trkpt>
      <trkpt lat="44.98471" lon="4.85705">
        <ele>113.04499816894</ele>
        <time>2010-12-18T13:35:35Z</time>
      </trkpt>
      <trkpt lat="44.98455" lon="4.85709">
        <ele>114.23000335693</ele>
        <time>2010-12-18T13:35:38Z</time>
      </trkpt>
      <trkpt lat="44.9843" lon="4.85715">
        <ele>116.03900146484</ele>
        <time>2010-12-18T13:35:43Z</time>
      </trkpt>
      <trkpt lat="44.9842" lon="4.85718">
        <ele>116.41799926758</ele>
        <time>2010-12-18T13:35:45Z</time>
      </trkpt>
      <trkpt lat="44.98387" lon="4.85727">
        <ele>117.13200378418</ele>
        <time>2010-12-18T13:35:51Z</time>
      </trkpt>
      <trkpt lat="44.98363" lon="4.85733">
        <ele>117.43599700928</ele>
        <time>2010-12-18T13:35:55Z</time>
      </trkpt>
      <trkpt lat="44.98337" lon="4.85739">
        <ele>117.20099639893</ele>
        <time>2010-12-18T13:36:00Z</time>
      </trkpt>
      <trkpt lat="44.9831" lon="4.85727">
        <ele>116.53399658203</ele>
        <time>2010-12-18T13:36:05Z</time>
      </trkpt>
      <trkpt lat="44.98305" lon="4.85721">
        <ele>116.14099884033</ele>
        <time>2010-12-18T13:36:06Z</time>
      </trkpt>
      <trkpt lat="44.98283" lon="4.85693">
        <ele>114.57800292969</ele>
        <time>2010-12-18T13:36:10Z</time>
      </trkpt>
      <trkpt lat="44.98258" lon="4.85673">
        <ele>113.09999847412</ele>
        <time>2010-12-18T13:36:14Z</time>
      </trkpt>
      <trkpt lat="44.98219" lon="4.85657">
        <ele>113.82599639893</ele>
        <time>2010-12-18T13:36:21Z</time>
      </trkpt>
      <trkpt lat="44.98177" lon="4.85641">
        <ele>113.43299865723</ele>
        <time>2010-12-18T13:36:28Z</time>
      </trkpt>
      <trkpt lat="44.98116" lon="4.85624">
        <ele>113.56700134277</ele>
        <time>2010-12-18T13:36:37Z</time>
      </trkpt>
      <trkpt lat="44.98045" lon="4.8561">
        <ele>113.58200073242</ele>
        <time>2010-12-18T13:36:47Z</time>
      </trkpt>
      <trkpt lat="44.97991" lon="4.85604">
        <ele>113.70300292969</ele>
        <time>2010-12-18T13:36:55Z</time>
      </trkpt>
      <trkpt lat="44.97927" lon="4.85601">
        <ele>113.77200317383</ele>
        <time>2010-12-18T13:37:05Z</time>
      </trkpt>
      <trkpt lat="44.97871" lon="4.85602">
        <ele>113.65200042725</ele>
        <time>2010-12-18T13:37:14Z</time>
      </trkpt>
      <trkpt lat="44.978" lon="4.85609">
        <ele>113.63800048828</ele>
        <time>2010-12-18T13:37:25Z</time>
      </trkpt>
      <trkpt lat="44.97743" lon="4.85619">
        <ele>113.6370010376</ele>
        <time>2010-12-18T13:37:34Z</time>
      </trkpt>
      <trkpt lat="44.97675" lon="4.85636">
        <ele>113.55300140381</ele>
        <time>2010-12-18T13:37:45Z</time>
      </trkpt>
      <trkpt lat="44.97619" lon="4.85656">
        <ele>113.27300262451</ele>
        <time>2010-12-18T13:37:54Z</time>
      </trkpt>
      <trkpt lat="44.97558" lon="4.85682">
        <ele>113.36000061035</ele>
        <time>2010-12-18T13:38:04Z</time>
      </trkpt>
      <trkpt lat="44.97498" lon="4.85712">
        <ele>113.21199798584</ele>
        <time>2010-12-18T13:38:14Z</time>
      </trkpt>
      <trkpt lat="44.97439" lon="4.85746">
        <ele>113.18599700928</ele>
        <time>2010-12-18T13:38:24Z</time>
      </trkpt>
      <trkpt lat="44.97382" lon="4.85781">
        <ele>113.32800292969</ele>
        <time>2010-12-18T13:38:34Z</time>
      </trkpt>
      <trkpt lat="44.97308" lon="4.85828">
        <ele>113</ele>
        <time>2010-12-18T13:38:47Z</time>
      </trkpt>
      <trkpt lat="44.97263" lon="4.85855">
        <ele>113.19999694824</ele>
        <time>2010-12-18T13:38:55Z</time>
      </trkpt>
      <trkpt lat="44.97209" lon="4.85889">
        <ele>112.58699798584</ele>
        <time>2010-12-18T13:39:04Z</time>
      </trkpt>
      <trkpt lat="44.97154" lon="4.85923">
        <ele>112.69100189209</ele>
        <time>2010-12-18T13:39:13Z</time>
      </trkpt>
      <trkpt lat="44.97095" lon="4.8596">
        <ele>112.66799926758</ele>
        <time>2010-12-18T13:39:23Z</time>
      </trkpt>
      <trkpt lat="44.97049" lon="4.85989">
        <ele>112.75299835205</ele>
        <time>2010-12-18T13:39:31Z</time>
      </trkpt>
      <trkpt lat="44.97004" lon="4.86017">
        <ele>112.8330001831</ele>
        <time>2010-12-18T13:39:39Z</time>
      </trkpt>
      <trkpt lat="44.96966" lon="4.86041">
        <ele>112.67099761963</ele>
        <time>2010-12-18T13:39:46Z</time>
      </trkpt>
      <trkpt lat="44.96915" lon="4.86073">
        <ele>112.5179977417</ele>
        <time>2010-12-18T13:39:55Z</time>
      </trkpt>
      <trkpt lat="44.96851" lon="4.86112">
        <ele>112.65899658203</ele>
        <time>2010-12-18T13:40:06Z</time>
      </trkpt>
      <trkpt lat="44.96788" lon="4.86153">
        <ele>112.6370010376</ele>
        <time>2010-12-18T13:40:17Z</time>
      </trkpt>
      <trkpt lat="44.96732" lon="4.86191">
        <ele>112.55100250244</ele>
        <time>2010-12-18T13:40:26Z</time>
      </trkpt>
      <trkpt lat="44.96674" lon="4.86239">
        <ele>112.89099884033</ele>
        <time>2010-12-18T13:40:36Z</time>
      </trkpt>
      <trkpt lat="44.96622" lon="4.86286">
        <ele>112.69300079346</ele>
        <time>2010-12-18T13:40:45Z</time>
      </trkpt>
      <trkpt lat="44.96573" lon="4.86337">
        <ele>112.63800048828</ele>
        <time>2010-12-18T13:40:54Z</time>
      </trkpt>
      <trkpt lat="44.96523" lon="4.86397">
        <ele>112.66799926758</ele>
        <time>2010-12-18T13:41:04Z</time>
      </trkpt>
      <trkpt lat="44.96476" lon="4.86461">
        <ele>112.81400299072</ele>
        <time>2010-12-18T13:41:14Z</time>
      </trkpt>
      <trkpt lat="44.96439" lon="4.86514">
        <ele>112.49700164795</ele>
        <time>2010-12-18T13:41:22Z</time>
      </trkpt>
      <trkpt lat="44.96399" lon="4.86573">
        <ele>112.66799926758</ele>
        <time>2010-12-18T13:41:31Z</time>
      </trkpt>
      <trkpt lat="44.96355" lon="4.86638">
        <ele>112.27100372315</ele>
        <time>2010-12-18T13:41:41Z</time>
      </trkpt>
      <trkpt lat="44.96292" lon="4.8673">
        <ele>112.23000335693</ele>
        <time>2010-12-18T13:41:55Z</time>
      </trkpt>
      <trkpt lat="44.96248" lon="4.86795">
        <ele>112.32900238037</ele>
        <time>2010-12-18T13:42:05Z</time>
      </trkpt>
      <trkpt lat="44.96207" lon="4.86856">
        <ele>112.68900299072</ele>
        <time>2010-12-18T13:42:14Z</time>
      </trkpt>
      <trkpt lat="44.96161" lon="4.86925">
        <ele>112.81500244141</ele>
        <time>2010-12-18T13:42:25Z</time>
      </trkpt>
      <trkpt lat="44.96144" lon="4.8695">
        <ele>112.67099761963</ele>
        <time>2010-12-18T13:42:29Z</time>
      </trkpt>
      <trkpt lat="44.96122" lon="4.86965">
        <ele>112.57800292969</ele>
        <time>2010-12-18T13:42:33Z</time>
      </trkpt>
      <trkpt lat="44.96087" lon="4.86979">
        <ele>112.77700042725</ele>
        <time>2010-12-18T13:42:39Z</time>
      </trkpt>
      <trkpt lat="44.96067" lon="4.86997">
        <ele>112.73699951172</ele>
        <time>2010-12-18T13:42:43Z</time>
      </trkpt>
      <trkpt lat="44.9603" lon="4.87053">
        <ele>110.97200012207</ele>
        <time>2010-12-18T13:42:51Z</time>
      </trkpt>
      <trkpt lat="44.9602" lon="4.87068">
        <ele>110.6429977417</ele>
        <time>2010-12-18T13:42:53Z</time>
      </trkpt>
      <trkpt lat="44.96009" lon="4.87101">
        <ele>110.05799865723</ele>
        <time>2010-12-18T13:42:57Z</time>
      </trkpt>
      <trkpt lat="44.96016" lon="4.87126">
        <ele>109.78099822998</ele>
        <time>2010-12-18T13:43:00Z</time>
      </trkpt>
      <trkpt lat="44.96021" lon="4.87133">
        <ele>109.59600067139</ele>
        <time>2010-12-18T13:43:01Z</time>
      </trkpt>
      <trkpt lat="44.96067" lon="4.87195">
        <ele>109.41600036621</ele>
        <time>2010-12-18T13:43:10Z</time>
      </trkpt>
      <trkpt lat="44.96119" lon="4.87266">
        <ele>109.40100097656</ele>
        <time>2010-12-18T13:43:20Z</time>
      </trkpt>
      <trkpt lat="44.96172" lon="4.87337">
        <ele>109.21499633789</ele>
        <time>2010-12-18T13:43:30Z</time>
      </trkpt>
      <trkpt lat="44.96223" lon="4.87404">
        <ele>109.75900268555</ele>
        <time>2010-12-18T13:43:40Z</time>
      </trkpt>
      <trkpt lat="44.96252" lon="4.87443">
        <ele>110.63899993897</ele>
        <time>2010-12-18T13:43:46Z</time>
      </trkpt>
      <trkpt lat="44.9626" lon="4.87478">
        <ele>110.34100341797</ele>
        <time>2010-12-18T13:43:50Z</time>
      </trkpt>
      <trkpt lat="44.96259" lon="4.87488">
        <ele>110.19499969482</ele>
        <time>2010-12-18T13:43:51Z</time>
      </trkpt>
      <trkpt lat="44.9624" lon="4.87591">
        <ele>110.86799621582</ele>
        <time>2010-12-18T13:44:02Z</time>
      </trkpt>
      <trkpt lat="44.96238" lon="4.876">
        <ele>110.94699859619</ele>
        <time>2010-12-18T13:44:03Z</time>
      </trkpt>
      <trkpt lat="44.96218" lon="4.87638">
        <ele>111.25</ele>
        <time>2010-12-18T13:44:08Z</time>
      </trkpt>
      <trkpt lat="44.96148" lon="4.87707">
        <ele>111.67800140381</ele>
        <time>2010-12-18T13:44:20Z</time>
      </trkpt>
      <trkpt lat="44.9609" lon="4.87765">
        <ele>111.37699890137</ele>
        <time>2010-12-18T13:44:30Z</time>
      </trkpt>
      <trkpt lat="44.96084" lon="4.8777">
        <ele>111.31400299072</ele>
        <time>2010-12-18T13:44:31Z</time>
      </trkpt>
      <trkpt lat="44.96055" lon="4.87783">
        <ele>111.90299987793</ele>
        <time>2010-12-18T13:44:36Z</time>
      </trkpt>
      <trkpt lat="44.96029" lon="4.87803">
        <ele>111.89499664307</ele>
        <time>2010-12-18T13:44:42Z</time>
      </trkpt>
      <trkpt lat="44.96015" lon="4.87807">
        <ele>111.98899841309</ele>
        <time>2010-12-18T13:44:46Z</time>
      </trkpt>
      <trkpt lat="44.96008" lon="4.87805">
        <ele>111.74099731445</ele>
        <time>2010-12-18T13:44:49Z</time>
      </trkpt>
      <trkpt lat="44.95992" lon="4.87818">
        <ele>111.73899841309</ele>
        <time>2010-12-18T13:44:53Z</time>
      </trkpt>
      <trkpt lat="44.9599" lon="4.87843">
        <ele>112.10299682617</ele>
        <time>2010-12-18T13:44:56Z</time>
      </trkpt>
      <trkpt lat="44.96001" lon="4.87861">
        <ele>111.35099792481</ele>
        <time>2010-12-18T13:44:59Z</time>
      </trkpt>
      <trkpt lat="44.96019" lon="4.87885">
        <ele>111.12000274658</ele>
        <time>2010-12-18T13:45:03Z</time>
      </trkpt>
      <trkpt lat="44.96021" lon="4.87904">
        <ele>110.8929977417</ele>
        <time>2010-12-18T13:45:05Z</time>
      </trkpt>
      <trkpt lat="44.96017" lon="4.87988">
        <ele>110.92500305176</ele>
        <time>2010-12-18T13:45:14Z</time>
      </trkpt>
      <trkpt lat="44.96019" lon="4.88043">
        <ele>110.74500274658</ele>
        <time>2010-12-18T13:45:20Z</time>
      </trkpt>
      <trkpt lat="44.96025" lon="4.88093">
        <ele>110.43699645996</ele>
        <time>2010-12-18T13:45:26Z</time>
      </trkpt>
      <trkpt lat="44.96033" lon="4.88173">
        <ele>110.57399749756</ele>
        <time>2010-12-18T13:45:35Z</time>
      </trkpt>
      <trkpt lat="44.96041" lon="4.8824">
        <ele>109.78099822998</ele>
        <time>2010-12-18T13:45:43Z</time>
      </trkpt>
      <trkpt lat="44.96044" lon="4.88271">
        <ele>109.62400054932</ele>
        <time>2010-12-18T13:45:47Z</time>
      </trkpt>
      <trkpt lat="44.9604" lon="4.88288">
        <ele>109.15100097656</ele>
        <time>2010-12-18T13:45:50Z</time>
      </trkpt>
      <trkpt lat="44.96038" lon="4.88293">
        <ele>109.11699676514</ele>
        <time>2010-12-18T13:45:51Z</time>
      </trkpt>
      <trkpt lat="44.96035" lon="4.88327">
        <ele>108.95500183106</ele>
        <time>2010-12-18T13:45:56Z</time>
      </trkpt>
      <trkpt lat="44.96043" lon="4.8834">
        <ele>108.90000152588</ele>
        <time>2010-12-18T13:45:58Z</time>
      </trkpt>
      <trkpt lat="44.96052" lon="4.88352">
        <ele>109.31500244141</ele>
        <time>2010-12-18T13:46:00Z</time>
      </trkpt>
      <trkpt lat="44.9606" lon="4.88385">
        <ele>109.21199798584</ele>
        <time>2010-12-18T13:46:04Z</time>
      </trkpt>
      <trkpt lat="44.96052" lon="4.8846">
        <ele>109.15100097656</ele>
        <time>2010-12-18T13:46:12Z</time>
      </trkpt>
      <trkpt lat="44.96042" lon="4.88531">
        <ele>108.66799926758</ele>
        <time>2010-12-18T13:46:19Z</time>
      </trkpt>
      <trkpt lat="44.96032" lon="4.8861">
        <ele>108.6549987793</ele>
        <time>2010-12-18T13:46:27Z</time>
      </trkpt>
      <trkpt lat="44.96024" lon="4.88646">
        <ele>108.202003479</ele>
        <time>2010-12-18T13:46:32Z</time>
      </trkpt>
      <trkpt lat="44.96021" lon="4.88688">
        <ele>107.65799713135</ele>
        <time>2010-12-18T13:46:36Z</time>
      </trkpt>
      <trkpt lat="44.96016" lon="4.88717">
        <ele>107.57499694824</ele>
        <time>2010-12-18T13:46:39Z</time>
      </trkpt>
      <trkpt lat="44.96006" lon="4.8875">
        <ele>107.89499664307</ele>
        <time>2010-12-18T13:46:43Z</time>
      </trkpt>
      <trkpt lat="44.95985" lon="4.88794">
        <ele>110.625</ele>
        <time>2010-12-18T13:46:50Z</time>
      </trkpt>
      <trkpt lat="44.95972" lon="4.88826">
        <ele>112.0950012207</ele>
        <time>2010-12-18T13:46:57Z</time>
      </trkpt>
      <trkpt lat="44.95966" lon="4.88841">
        <ele>112.25499725342</ele>
        <time>2010-12-18T13:47:02Z</time>
      </trkpt>
      <trkpt lat="44.95956" lon="4.88851">
        <ele>112.48899841309</ele>
        <time>2010-12-18T13:47:06Z</time>
      </trkpt>
      <trkpt lat="44.9595" lon="4.88857">
        <ele>112.29299926758</ele>
        <time>2010-12-18T13:47:08Z</time>
      </trkpt>
      <trkpt lat="44.95943" lon="4.88887">
        <ele>111.952003479</ele>
        <time>2010-12-18T13:47:13Z</time>
      </trkpt>
      <trkpt lat="44.95952" lon="4.88913">
        <ele>112.15299987793</ele>
        <time>2010-12-18T13:47:17Z</time>
      </trkpt>
      <trkpt lat="44.95956" lon="4.88918">
        <ele>112.15699768066</ele>
        <time>2010-12-18T13:47:18Z</time>
      </trkpt>
      <trkpt lat="44.9597" lon="4.8894">
        <ele>112.61799621582</ele>
        <time>2010-12-18T13:47:22Z</time>
      </trkpt>
      <trkpt lat="44.95972" lon="4.88968">
        <ele>112.98899841309</ele>
        <time>2010-12-18T13:47:26Z</time>
      </trkpt>
      <trkpt lat="44.95974" lon="4.89009">
        <ele>113.48000335693</ele>
        <time>2010-12-18T13:47:31Z</time>
      </trkpt>
      <trkpt lat="44.95981" lon="4.8902">
        <ele>113.77799987793</ele>
        <time>2010-12-18T13:47:33Z</time>
      </trkpt>
      <trkpt lat="44.96014" lon="4.89043">
        <ele>114.2320022583</ele>
        <time>2010-12-18T13:47:40Z</time>
      </trkpt>
      <trkpt lat="44.96024" lon="4.8905">
        <ele>114.54499816894</ele>
        <time>2010-12-18T13:47:42Z</time>
      </trkpt>
      <trkpt lat="44.96039" lon="4.89072">
        <ele>115.6070022583</ele>
        <time>2010-12-18T13:47:46Z</time>
      </trkpt>
      <trkpt lat="44.9604" lon="4.8908">
        <ele>115.88500213623</ele>
        <time>2010-12-18T13:47:47Z</time>
      </trkpt>
      <trkpt lat="44.96049" lon="4.89129">
        <ele>117.54599761963</ele>
        <time>2010-12-18T13:47:54Z</time>
      </trkpt>
      <trkpt lat="44.96056" lon="4.89165">
        <ele>119.36699676514</ele>
        <time>2010-12-18T13:48:00Z</time>
      </trkpt>
      <trkpt lat="44.96068" lon="4.89197">
        <ele>121.03500366211</ele>
        <time>2010-12-18T13:48:07Z</time>
      </trkpt>
      <trkpt lat="44.96086" lon="4.89226">
        <ele>122.35299682617</ele>
        <time>2010-12-18T13:48:14Z</time>
      </trkpt>
      <trkpt lat="44.96108" lon="4.8926">
        <ele>123.56999969482</ele>
        <time>2010-12-18T13:48:21Z</time>
      </trkpt>
      <trkpt lat="44.96128" lon="4.8929">
        <ele>125.10199737549</ele>
        <time>2010-12-18T13:48:27Z</time>
      </trkpt>
      <trkpt lat="44.96151" lon="4.89331">
        <ele>126.30200195312</ele>
        <time>2010-12-18T13:48:35Z</time>
      </trkpt>
      <trkpt lat="44.96183" lon="4.89388">
        <ele>127.13800048828</ele>
        <time>2010-12-18T13:48:45Z</time>
      </trkpt>
      <trkpt lat="44.96213" lon="4.8944">
        <ele>127.41300201416</ele>
        <time>2010-12-18T13:48:54Z</time>
      </trkpt>
      <trkpt lat="44.9622" lon="4.89451">
        <ele>127.67400360107</ele>
        <time>2010-12-18T13:48:56Z</time>
      </trkpt>
      <trkpt lat="44.96235" lon="4.8949">
        <ele>128.34300231934</ele>
        <time>2010-12-18T13:49:02Z</time>
      </trkpt>
      <trkpt lat="44.96238" lon="4.89504">
        <ele>129.02099609375</ele>
        <time>2010-12-18T13:49:04Z</time>
      </trkpt>
      <trkpt lat="44.96252" lon="4.89575">
        <ele>131.82099914551</ele>
        <time>2010-12-18T13:49:14Z</time>
      </trkpt>
      <trkpt lat="44.96265" lon="4.89638">
        <ele>134.4109954834</ele>
        <time>2010-12-18T13:49:23Z</time>
      </trkpt>
      <trkpt lat="44.96271" lon="4.8969">
        <ele>136.14700317383</ele>
        <time>2010-12-18T13:49:30Z</time>
      </trkpt>
      <trkpt lat="44.96266" lon="4.89743">
        <ele>135.39799499512</ele>
        <time>2010-12-18T13:49:37Z</time>
      </trkpt>
      <trkpt lat="44.96253" lon="4.89787">
        <ele>136.125</ele>
        <time>2010-12-18T13:49:43Z</time>
      </trkpt>
      <trkpt lat="44.96235" lon="4.89814">
        <ele>136.94000244141</ele>
        <time>2010-12-18T13:49:48Z</time>
      </trkpt>
      <trkpt lat="44.96217" lon="4.89827">
        <ele>138.06900024414</ele>
        <time>2010-12-18T13:49:52Z</time>
      </trkpt>
      <trkpt lat="44.96202" lon="4.89853">
        <ele>139.99299621582</ele>
        <time>2010-12-18T13:49:57Z</time>
      </trkpt>
      <trkpt lat="44.96191" lon="4.89893">
        <ele>140.68800354004</ele>
        <time>2010-12-18T13:50:03Z</time>
      </trkpt>
      <trkpt lat="44.96182" lon="4.89958">
        <ele>141.39300537109</ele>
        <time>2010-12-18T13:50:12Z</time>
      </trkpt>
      <trkpt lat="44.96172" lon="4.90004">
        <ele>142.57099914551</ele>
        <time>2010-12-18T13:50:19Z</time>
      </trkpt>
      <trkpt lat="44.96151" lon="4.90049">
        <ele>144.86999511719</ele>
        <time>2010-12-18T13:50:27Z</time>
      </trkpt>
      <trkpt lat="44.96143" lon="4.90075">
        <ele>145.55999755859</ele>
        <time>2010-12-18T13:50:31Z</time>
      </trkpt>
      <trkpt lat="44.96138" lon="4.9011">
        <ele>145.79400634766</ele>
        <time>2010-12-18T13:50:36Z</time>
      </trkpt>
      <trkpt lat="44.96135" lon="4.90127">
        <ele>145.87399291992</ele>
        <time>2010-12-18T13:50:39Z</time>
      </trkpt>
      <trkpt lat="44.96135" lon="4.90158">
        <ele>145.71800231934</ele>
        <time>2010-12-18T13:50:44Z</time>
      </trkpt>
      <trkpt lat="44.96146" lon="4.90168">
        <ele>145.42700195312</ele>
        <time>2010-12-18T13:50:47Z</time>
      </trkpt>
      <trkpt lat="44.9616" lon="4.90161">
        <ele>145.24499511719</ele>
        <time>2010-12-18T13:50:50Z</time>
      </trkpt>
      <trkpt lat="44.96163" lon="4.90139">
        <ele>145.00799560547</ele>
        <time>2010-12-18T13:50:53Z</time>
      </trkpt>
      <trkpt lat="44.96153" lon="4.90124">
        <ele>145.09399414062</ele>
        <time>2010-12-18T13:50:56Z</time>
      </trkpt>
      <trkpt lat="44.96139" lon="4.90125">
        <ele>145.24000549316</ele>
        <time>2010-12-18T13:50:59Z</time>
      </trkpt>
      <trkpt lat="44.96132" lon="4.90143">
        <ele>145.63400268555</ele>
        <time>2010-12-18T13:51:02Z</time>
      </trkpt>
      <trkpt lat="44.96138" lon="4.90162">
        <ele>145.53700256348</ele>
        <time>2010-12-18T13:51:05Z</time>
      </trkpt>
      <trkpt lat="44.96154" lon="4.90166">
        <ele>145.19400024414</ele>
        <time>2010-12-18T13:51:08Z</time>
      </trkpt>
      <trkpt lat="44.96159" lon="4.90163">
        <ele>145.1369934082</ele>
        <time>2010-12-18T13:51:09Z</time>
      </trkpt>
      <trkpt lat="44.96189" lon="4.90154">
        <ele>144.8809967041</ele>
        <time>2010-12-18T13:51:14Z</time>
      </trkpt>
      <trkpt lat="44.96238" lon="4.90156">
        <ele>145.14799499512</ele>
        <time>2010-12-18T13:51:22Z</time>
      </trkpt>
      <trkpt lat="44.96279" lon="4.90146">
        <ele>146.0119934082</ele>
        <time>2010-12-18T13:51:29Z</time>
      </trkpt>
      <trkpt lat="44.96319" lon="4.90131">
        <ele>145.89100646973</ele>
        <time>2010-12-18T13:51:36Z</time>
      </trkpt>
      <trkpt lat="44.96341" lon="4.9012">
        <ele>146.01100158691</ele>
        <time>2010-12-18T13:51:40Z</time>
      </trkpt>
      <trkpt lat="44.96376" lon="4.9008">
        <ele>145.7380065918</ele>
        <time>2010-12-18T13:51:47Z</time>
      </trkpt>
      <trkpt lat="44.96387" lon="4.90069">
        <ele>145.42999267578</ele>
        <time>2010-12-18T13:51:49Z</time>
      </trkpt>
      <trkpt lat="44.9642" lon="4.90056">
        <ele>145.35000610352</ele>
        <time>2010-12-18T13:51:54Z</time>
      </trkpt>
      <trkpt lat="44.96427" lon="4.90057">
        <ele>145.28100585938</ele>
        <time>2010-12-18T13:51:55Z</time>
      </trkpt>
      <trkpt lat="44.96481" lon="4.90065">
        <ele>145.14100646973</ele>
        <time>2010-12-18T13:52:03Z</time>
      </trkpt>
      <trkpt lat="44.96527" lon="4.90073">
        <ele>145.36000061035</ele>
        <time>2010-12-18T13:52:10Z</time>
      </trkpt>
      <trkpt lat="44.96555" lon="4.90094">
        <ele>145.72999572754</ele>
        <time>2010-12-18T13:52:15Z</time>
      </trkpt>
      <trkpt lat="44.9656" lon="4.901">
        <ele>145.82099914551</ele>
        <time>2010-12-18T13:52:16Z</time>
      </trkpt>
      <trkpt lat="44.96602" lon="4.9017">
        <ele>146.80200195312</ele>
        <time>2010-12-18T13:52:26Z</time>
      </trkpt>
      <trkpt lat="44.96629" lon="4.90198">
        <ele>146.58099365234</ele>
        <time>2010-12-18T13:52:31Z</time>
      </trkpt>
      <trkpt lat="44.96663" lon="4.90229">
        <ele>146.81900024414</ele>
        <time>2010-12-18T13:52:37Z</time>
      </trkpt>
      <trkpt lat="44.96701" lon="4.90251">
        <ele>147.33999633789</ele>
        <time>2010-12-18T13:52:43Z</time>
      </trkpt>
      <trkpt lat="44.96742" lon="4.9028">
        <ele>147.09300231934</ele>
        <time>2010-12-18T13:52:50Z</time>
      </trkpt>
      <trkpt lat="44.96786" lon="4.9031">
        <ele>147.10000610352</ele>
        <time>2010-12-18T13:52:57Z</time>
      </trkpt>
      <trkpt lat="44.96828" lon="4.9035">
        <ele>147.40299987793</ele>
        <time>2010-12-18T13:53:04Z</time>
      </trkpt>
      <trkpt lat="44.96872" lon="4.9038">
        <ele>147.49099731445</ele>
        <time>2010-12-18T13:53:11Z</time>
      </trkpt>
      <trkpt lat="44.96933" lon="4.90414">
        <ele>148.14799499512</ele>
        <time>2010-12-18T13:53:21Z</time>
      </trkpt>
      <trkpt lat="44.9699" lon="4.90446">
        <ele>147.97700500488</ele>
        <time>2010-12-18T13:53:30Z</time>
      </trkpt>
      <trkpt lat="44.97036" lon="4.9048">
        <ele>147.65800476074</ele>
        <time>2010-12-18T13:53:37Z</time>
      </trkpt>
      <trkpt lat="44.97076" lon="4.9052">
        <ele>147.57600402832</ele>
        <time>2010-12-18T13:53:44Z</time>
      </trkpt>
      <trkpt lat="44.97123" lon="4.90557">
        <ele>147.58000183106</ele>
        <time>2010-12-18T13:53:52Z</time>
      </trkpt>
      <trkpt lat="44.97179" lon="4.90583">
        <ele>146.84100341797</ele>
        <time>2010-12-18T13:54:00Z</time>
      </trkpt>
      <trkpt lat="44.97195" lon="4.90585">
        <ele>146.56700134277</ele>
        <time>2010-12-18T13:54:02Z</time>
      </trkpt>
      <trkpt lat="44.97226" lon="4.9058">
        <ele>146.27699279785</ele>
        <time>2010-12-18T13:54:06Z</time>
      </trkpt>
      <trkpt lat="44.97294" lon="4.90556">
        <ele>145.44099426269</ele>
        <time>2010-12-18T13:54:15Z</time>
      </trkpt>
      <trkpt lat="44.97334" lon="4.90556">
        <ele>145.00900268555</ele>
        <time>2010-12-18T13:54:20Z</time>
      </trkpt>
      <trkpt lat="44.97386" lon="4.90561">
        <ele>144.03799438477</ele>
        <time>2010-12-18T13:54:27Z</time>
      </trkpt>
      <trkpt lat="44.97392" lon="4.90561">
        <ele>143.92399597168</ele>
        <time>2010-12-18T13:54:28Z</time>
      </trkpt>
      <trkpt lat="44.97404" lon="4.90562">
        <ele>143.92599487305</ele>
        <time>2010-12-18T13:54:30Z</time>
      </trkpt>
      <trkpt lat="44.9743" lon="4.90574">
        <ele>142.87699890137</ele>
        <time>2010-12-18T13:54:36Z</time>
      </trkpt>
      <trkpt lat="44.9744" lon="4.9058">
        <ele>142.11099243164</ele>
        <time>2010-12-18T13:54:38Z</time>
      </trkpt>
      <trkpt lat="44.97455" lon="4.90589">
        <ele>141.53999328613</ele>
        <time>2010-12-18T13:54:41Z</time>
      </trkpt>
      <trkpt lat="44.97496" lon="4.90605">
        <ele>139.97200012207</ele>
        <time>2010-12-18T13:54:48Z</time>
      </trkpt>
      <trkpt lat="44.97532" lon="4.90617">
        <ele>138.66999816894</ele>
        <time>2010-12-18T13:54:54Z</time>
      </trkpt>
      <trkpt lat="44.97586" lon="4.90636">
        <ele>136.95700073242</ele>
        <time>2010-12-18T13:55:02Z</time>
      </trkpt>
      <trkpt lat="44.9763" lon="4.9065">
        <ele>136.95899963379</ele>
        <time>2010-12-18T13:55:09Z</time>
      </trkpt>
      <trkpt lat="44.97688" lon="4.90659">
        <ele>136.75799560547</ele>
        <time>2010-12-18T13:55:18Z</time>
      </trkpt>
      <trkpt lat="44.97738" lon="4.90662">
        <ele>136.83299255371</ele>
        <time>2010-12-18T13:55:26Z</time>
      </trkpt>
      <trkpt lat="44.97775" lon="4.9067">
        <ele>137.5950012207</ele>
        <time>2010-12-18T13:55:32Z</time>
      </trkpt>
      <trkpt lat="44.97793" lon="4.90674">
        <ele>137.83299255371</ele>
        <time>2010-12-18T13:55:35Z</time>
      </trkpt>
      <trkpt lat="44.97817" lon="4.90666">
        <ele>138.07099914551</ele>
        <time>2010-12-18T13:55:39Z</time>
      </trkpt>
      <trkpt lat="44.97826" lon="4.90654">
        <ele>138.41999816894</ele>
        <time>2010-12-18T13:55:41Z</time>
      </trkpt>
      <trkpt lat="44.97839" lon="4.90625">
        <ele>139.33000183106</ele>
        <time>2010-12-18T13:55:45Z</time>
      </trkpt>
      <trkpt lat="44.97864" lon="4.90568">
        <ele>140.69599914551</ele>
        <time>2010-12-18T13:55:53Z</time>
      </trkpt>
      <trkpt lat="44.97876" lon="4.9054">
        <ele>141.08599853516</ele>
        <time>2010-12-18T13:55:57Z</time>
      </trkpt>
      <trkpt lat="44.97882" lon="4.90527">
        <ele>141.28399658203</ele>
        <time>2010-12-18T13:55:59Z</time>
      </trkpt>
      <trkpt lat="44.97897" lon="4.90518">
        <ele>141.80900573731</ele>
        <time>2010-12-18T13:56:03Z</time>
      </trkpt>
      <trkpt lat="44.97897" lon="4.90527">
        <ele>142.65800476074</ele>
        <time>2010-12-18T13:56:05Z</time>
      </trkpt>
      <trkpt lat="44.97884" lon="4.90558">
        <ele>144.21000671387</ele>
        <time>2010-12-18T13:56:12Z</time>
      </trkpt>
      <trkpt lat="44.97873" lon="4.90587">
        <ele>145.75300598144</ele>
        <time>2010-12-18T13:56:18Z</time>
      </trkpt>
      <trkpt lat="44.97873" lon="4.90593">
        <ele>145.79800415039</ele>
        <time>2010-12-18T13:56:19Z</time>
      </trkpt>
      <trkpt lat="44.97876" lon="4.90623">
        <ele>146.95300292969</ele>
        <time>2010-12-18T13:56:24Z</time>
      </trkpt>
      <trkpt lat="44.9789" lon="4.90636">
        <ele>147.97900390625</ele>
        <time>2010-12-18T13:56:28Z</time>
      </trkpt>
      <trkpt lat="44.97906" lon="4.90629">
        <ele>149.28399658203</ele>
        <time>2010-12-18T13:56:32Z</time>
      </trkpt>
      <trkpt lat="44.97912" lon="4.90614">
        <ele>149.99299621582</ele>
        <time>2010-12-18T13:56:35Z</time>
      </trkpt>
      <trkpt lat="44.97926" lon="4.90583">
        <ele>151.42799377441</ele>
        <time>2010-12-18T13:56:41Z</time>
      </trkpt>
      <trkpt lat="44.97939" lon="4.90583">
        <ele>152.49899291992</ele>
        <time>2010-12-18T13:56:44Z</time>
      </trkpt>
      <trkpt lat="44.97948" lon="4.90593">
        <ele>153.79100036621</ele>
        <time>2010-12-18T13:56:47Z</time>
      </trkpt>
      <trkpt lat="44.97957" lon="4.90614">
        <ele>154.89900207519</ele>
        <time>2010-12-18T13:56:51Z</time>
      </trkpt>
      <trkpt lat="44.97974" lon="4.90632">
        <ele>156.22799682617</ele>
        <time>2010-12-18T13:56:56Z</time>
      </trkpt>
      <trkpt lat="44.97978" lon="4.90634">
        <ele>156.40400695801</ele>
        <time>2010-12-18T13:56:57Z</time>
      </trkpt>
      <trkpt lat="44.98" lon="4.90637">
        <ele>157.68200683594</ele>
        <time>2010-12-18T13:57:02Z</time>
      </trkpt>
      <trkpt lat="44.98017" lon="4.90647">
        <ele>158.53999328613</ele>
        <time>2010-12-18T13:57:06Z</time>
      </trkpt>
      <trkpt lat="44.98032" lon="4.90666">
        <ele>158.80099487305</ele>
        <time>2010-12-18T13:57:09Z</time>
      </trkpt>
      <trkpt lat="44.98063" lon="4.9069">
        <ele>158.87399291992</ele>
        <time>2010-12-18T13:57:14Z</time>
      </trkpt>
      <trkpt lat="44.98069" lon="4.90695">
        <ele>158.93600463867</ele>
        <time>2010-12-18T13:57:15Z</time>
      </trkpt>
      <trkpt lat="44.98093" lon="4.90709">
        <ele>160.07600402832</ele>
        <time>2010-12-18T13:57:19Z</time>
      </trkpt>
      <trkpt lat="44.98109" lon="4.90734">
        <ele>160.64900207519</ele>
        <time>2010-12-18T13:57:23Z</time>
      </trkpt>
      <trkpt lat="44.98111" lon="4.90741">
        <ele>160.61700439453</ele>
        <time>2010-12-18T13:57:24Z</time>
      </trkpt>
      <trkpt lat="44.98114" lon="4.90757">
        <ele>159.90699768066</ele>
        <time>2010-12-18T13:57:27Z</time>
      </trkpt>
      <trkpt lat="44.98115" lon="4.90754">
        <ele>159.58399963379</ele>
        <time>2010-12-18T13:57:31Z</time>
      </trkpt>
      <trkpt lat="44.9811" lon="4.90738">
        <ele>160.06100463867</ele>
        <time>2010-12-18T13:57:35Z</time>
      </trkpt>
      <trkpt lat="44.98092" lon="4.90706">
        <ele>160.72200012207</ele>
        <time>2010-12-18T13:57:41Z</time>
      </trkpt>
      <trkpt lat="44.98087" lon="4.90703">
        <ele>160.57200622559</ele>
        <time>2010-12-18T13:57:42Z</time>
      </trkpt>
      <trkpt lat="44.98051" lon="4.90679">
        <ele>159.28500366211</ele>
        <time>2010-12-18T13:57:48Z</time>
      </trkpt>
      <trkpt lat="44.98025" lon="4.9066">
        <ele>158.88299560547</ele>
        <time>2010-12-18T13:57:53Z</time>
      </trkpt>
      <trkpt lat="44.98016" lon="4.90638">
        <ele>158.58799743652</ele>
        <time>2010-12-18T13:57:57Z</time>
      </trkpt>
      <trkpt lat="44.98027" lon="4.90631">
        <ele>158.68499755859</ele>
        <time>2010-12-18T13:58:00Z</time>
      </trkpt>
      <trkpt lat="44.98037" lon="4.90633">
        <ele>159.08500671387</ele>
        <time>2010-12-18T13:58:02Z</time>
      </trkpt>
      <trkpt lat="44.98058" lon="4.90642">
        <ele>160.13400268555</ele>
        <time>2010-12-18T13:58:06Z</time>
      </trkpt>
      <trkpt lat="44.98074" lon="4.90654">
        <ele>160.84899902344</ele>
        <time>2010-12-18T13:58:09Z</time>
      </trkpt>
      <trkpt lat="44.98108" lon="4.90696">
        <ele>163.86999511719</ele>
        <time>2010-12-18T13:58:17Z</time>
      </trkpt>
      <trkpt lat="44.98124" lon="4.90719">
        <ele>165.9640045166</ele>
        <time>2010-12-18T13:58:22Z</time>
      </trkpt>
      <trkpt lat="44.98146" lon="4.90745">
        <ele>168.28199768066</ele>
        <time>2010-12-18T13:58:29Z</time>
      </trkpt>
      <trkpt lat="44.98178" lon="4.90769">
        <ele>171.08500671387</ele>
        <time>2010-12-18T13:58:38Z</time>
      </trkpt>
      <trkpt lat="44.98202" lon="4.90784">
        <ele>172.90299987793</ele>
        <time>2010-12-18T13:58:45Z</time>
      </trkpt>
      <trkpt lat="44.98227" lon="4.90799">
        <ele>175.04899597168</ele>
        <time>2010-12-18T13:58:52Z</time>
      </trkpt>
      <trkpt lat="44.98251" lon="4.90812">
        <ele>176.26300048828</ele>
        <time>2010-12-18T13:58:59Z</time>
      </trkpt>
      <trkpt lat="44.98266" lon="4.90817">
        <ele>176.94700622559</ele>
        <time>2010-12-18T13:59:05Z</time>
      </trkpt>
      <trkpt lat="44.98276" lon="4.90819">
        <ele>177.30099487305</ele>
        <time>2010-12-18T13:59:11Z</time>
      </trkpt>
      <trkpt lat="44.98284" lon="4.90821">
        <ele>177.69700622559</ele>
        <time>2010-12-18T13:59:17Z</time>
      </trkpt>
      <trkpt lat="44.98292" lon="4.90825">
        <ele>178.12699890137</ele>
        <time>2010-12-18T13:59:23Z</time>
      </trkpt>
      <trkpt lat="44.98296" lon="4.90824">
        <ele>178.17300415039</ele>
        <time>2010-12-18T13:59:27Z</time>
      </trkpt>
      <trkpt lat="44.98291" lon="4.90822">
        <ele>178.21299743652</ele>
        <time>2010-12-18T13:59:31Z</time>
      </trkpt>
      <trkpt lat="44.98278" lon="4.90819">
        <ele>177.61700439453</ele>
        <time>2010-12-18T13:59:37Z</time>
      </trkpt>
      <trkpt lat="44.98274" lon="4.90817">
        <ele>177.32699584961</ele>
        <time>2010-12-18T13:59:40Z</time>
      </trkpt>
      <trkpt lat="44.98274" lon="4.90819">
        <ele>177.04299926758</ele>
        <time>2010-12-18T13:59:45Z</time>
      </trkpt>
      <trkpt lat="44.98274" lon="4.9082">
        <ele>177.12800598144</ele>
        <time>2010-12-18T13:59:47Z</time>
      </trkpt>
      <trkpt lat="44.98278" lon="4.9082">
        <ele>176</ele>
        <time>2010-12-18T14:08:18Z</time>
      </trkpt>
      <trkpt lat="44.98278" lon="4.9082">
        <ele>175.98399353027</ele>
        <time>2010-12-18T14:08:19Z</time>
      </trkpt>
      <trkpt lat="44.98278" lon="4.9082">
        <ele>175.97799682617</ele>
        <time>2010-12-18T14:08:20Z</time>
      </trkpt>
      <trkpt lat="44.98294" lon="4.90824">
        <ele>176.76300048828</ele>
        <time>2010-12-18T14:08:30Z</time>
      </trkpt>
      <trkpt lat="44.98312" lon="4.9083">
        <ele>177.36999511719</ele>
        <time>2010-12-18T14:08:36Z</time>
      </trkpt>
      <trkpt lat="44.98331" lon="4.90839">
        <ele>177.81700134277</ele>
        <time>2010-12-18T14:08:42Z</time>
      </trkpt>
      <trkpt lat="44.98362" lon="4.90853">
        <ele>178.47099304199</ele>
        <time>2010-12-18T14:08:49Z</time>
      </trkpt>
      <trkpt lat="44.98371" lon="4.90858">
        <ele>178.60800170898</ele>
        <time>2010-12-18T14:08:51Z</time>
      </trkpt>
      <trkpt lat="44.984" lon="4.90871">
        <ele>178.74600219727</ele>
        <time>2010-12-18T14:08:58Z</time>
      </trkpt>
      <trkpt lat="44.98441" lon="4.90892">
        <ele>179.11700439453</ele>
        <time>2010-12-18T14:09:07Z</time>
      </trkpt>
      <trkpt lat="44.98488" lon="4.90926">
        <ele>180.04800415039</ele>
        <time>2010-12-18T14:09:18Z</time>
      </trkpt>
      <trkpt lat="44.98501" lon="4.90938">
        <ele>180.14300537109</ele>
        <time>2010-12-18T14:09:21Z</time>
      </trkpt>
      <trkpt lat="44.98532" lon="4.90972">
        <ele>179.82400512695</ele>
        <time>2010-12-18T14:09:29Z</time>
      </trkpt>
      <trkpt lat="44.98546" lon="4.9099">
        <ele>179.47999572754</ele>
        <time>2010-12-18T14:09:33Z</time>
      </trkpt>
      <trkpt lat="44.98554" lon="4.91">
        <ele>179.43099975586</ele>
        <time>2010-12-18T14:09:35Z</time>
      </trkpt>
      <trkpt lat="44.98558" lon="4.91004">
        <ele>179.30599975586</ele>
        <time>2010-12-18T14:09:36Z</time>
      </trkpt>
      <trkpt lat="44.98589" lon="4.9104">
        <ele>179.15699768066</ele>
        <time>2010-12-18T14:09:43Z</time>
      </trkpt>
      <trkpt lat="44.98616" lon="4.91097">
        <ele>178.81300354004</ele>
        <time>2010-12-18T14:09:51Z</time>
      </trkpt>
      <trkpt lat="44.98641" lon="4.91149">
        <ele>179.00300598144</ele>
        <time>2010-12-18T14:09:58Z</time>
      </trkpt>
      <trkpt lat="44.98657" lon="4.91211">
        <ele>179.56500244141</ele>
        <time>2010-12-18T14:10:06Z</time>
      </trkpt>
      <trkpt lat="44.98675" lon="4.91276">
        <ele>179.23500061035</ele>
        <time>2010-12-18T14:10:14Z</time>
      </trkpt>
      <trkpt lat="44.987" lon="4.91347">
        <ele>179.0059967041</ele>
        <time>2010-12-18T14:10:23Z</time>
      </trkpt>
      <trkpt lat="44.98722" lon="4.91392">
        <ele>180.37199401856</ele>
        <time>2010-12-18T14:10:30Z</time>
      </trkpt>
      <trkpt lat="44.98741" lon="4.91432">
        <ele>180.84800720215</ele>
        <time>2010-12-18T14:10:36Z</time>
      </trkpt>
      <trkpt lat="44.98765" lon="4.91496">
        <ele>181.80900573731</ele>
        <time>2010-12-18T14:10:45Z</time>
      </trkpt>
      <trkpt lat="44.98784" lon="4.91554">
        <ele>182.11000061035</ele>
        <time>2010-12-18T14:10:53Z</time>
      </trkpt>
      <trkpt lat="44.9879" lon="4.91577">
        <ele>181.6609954834</ele>
        <time>2010-12-18T14:10:56Z</time>
      </trkpt>
      <trkpt lat="44.98794" lon="4.91592">
        <ele>181.66900634766</ele>
        <time>2010-12-18T14:10:58Z</time>
      </trkpt>
      <trkpt lat="44.98798" lon="4.91608">
        <ele>181.4940032959</ele>
        <time>2010-12-18T14:11:00Z</time>
      </trkpt>
      <trkpt lat="44.98799" lon="4.91616">
        <ele>181.53399658203</ele>
        <time>2010-12-18T14:11:01Z</time>
      </trkpt>
      <trkpt lat="44.98806" lon="4.91656">
        <ele>181.80599975586</ele>
        <time>2010-12-18T14:11:06Z</time>
      </trkpt>
      <trkpt lat="44.9882" lon="4.9169">
        <ele>182.11599731445</ele>
        <time>2010-12-18T14:11:11Z</time>
      </trkpt>
      <trkpt lat="44.98829" lon="4.917">
        <ele>182.21699523926</ele>
        <time>2010-12-18T14:11:13Z</time>
      </trkpt>
      <trkpt lat="44.98882" lon="4.91753">
        <ele>182.85400390625</ele>
        <time>2010-12-18T14:11:24Z</time>
      </trkpt>
      <trkpt lat="44.98913" lon="4.91794">
        <ele>183.38900756836</ele>
        <time>2010-12-18T14:11:31Z</time>
      </trkpt>
      <trkpt lat="44.98952" lon="4.91856">
        <ele>183.66999816894</ele>
        <time>2010-12-18T14:11:41Z</time>
      </trkpt>
      <trkpt lat="44.98964" lon="4.91874">
        <ele>184.04699707031</ele>
        <time>2010-12-18T14:11:44Z</time>
      </trkpt>
      <trkpt lat="44.99006" lon="4.91921">
        <ele>183.36799621582</ele>
        <time>2010-12-18T14:11:53Z</time>
      </trkpt>
      <trkpt lat="44.99037" lon="4.91948">
        <ele>183.36999511719</ele>
        <time>2010-12-18T14:11:59Z</time>
      </trkpt>
      <trkpt lat="44.99083" lon="4.91986">
        <ele>183.60000610352</ele>
        <time>2010-12-18T14:12:08Z</time>
      </trkpt>
      <trkpt lat="44.99122" lon="4.92013">
        <ele>183.07099914551</ele>
        <time>2010-12-18T14:12:16Z</time>
      </trkpt>
      <trkpt lat="44.99131" lon="4.92019">
        <ele>183.13600158691</ele>
        <time>2010-12-18T14:12:18Z</time>
      </trkpt>
      <trkpt lat="44.99137" lon="4.92028">
        <ele>183.21000671387</ele>
        <time>2010-12-18T14:12:20Z</time>
      </trkpt>
      <trkpt lat="44.99138" lon="4.92034">
        <ele>183.16299438477</ele>
        <time>2010-12-18T14:12:21Z</time>
      </trkpt>
      <trkpt lat="44.99137" lon="4.9204">
        <ele>183.00500488281</ele>
        <time>2010-12-18T14:12:22Z</time>
      </trkpt>
      <trkpt lat="44.99121" lon="4.92093">
        <ele>182.90400695801</ele>
        <time>2010-12-18T14:12:30Z</time>
      </trkpt>
      <trkpt lat="44.99107" lon="4.92136">
        <ele>183.29400634766</ele>
        <time>2010-12-18T14:12:36Z</time>
      </trkpt>
      <trkpt lat="44.99087" lon="4.92204">
        <ele>183.49000549316</ele>
        <time>2010-12-18T14:12:45Z</time>
      </trkpt>
      <trkpt lat="44.99073" lon="4.9225">
        <ele>183.45399475098</ele>
        <time>2010-12-18T14:12:51Z</time>
      </trkpt>
      <trkpt lat="44.99056" lon="4.92305">
        <ele>184.29699707031</ele>
        <time>2010-12-18T14:12:58Z</time>
      </trkpt>
      <trkpt lat="44.99035" lon="4.92367">
        <ele>184.97700500488</ele>
        <time>2010-12-18T14:13:06Z</time>
      </trkpt>
      <trkpt lat="44.99012" lon="4.92437">
        <ele>183.70899963379</ele>
        <time>2010-12-18T14:13:15Z</time>
      </trkpt>
      <trkpt lat="44.98999" lon="4.92478">
        <ele>183.69299316406</ele>
        <time>2010-12-18T14:13:20Z</time>
      </trkpt>
      <trkpt lat="44.99" lon="4.92514">
        <ele>183.48199462891</ele>
        <time>2010-12-18T14:13:24Z</time>
      </trkpt>
      <trkpt lat="44.99015" lon="4.9253">
        <ele>183.99699401856</ele>
        <time>2010-12-18T14:13:27Z</time>
      </trkpt>
      <trkpt lat="44.99022" lon="4.92532">
        <ele>183.99000549316</ele>
        <time>2010-12-18T14:13:28Z</time>
      </trkpt>
      <trkpt lat="44.99047" lon="4.92543">
        <ele>183.95100402832</ele>
        <time>2010-12-18T14:13:32Z</time>
      </trkpt>
      <trkpt lat="44.99053" lon="4.92546">
        <ele>183.97999572754</ele>
        <time>2010-12-18T14:13:33Z</time>
      </trkpt>
      <trkpt lat="44.99067" lon="4.92565">
        <ele>184.04899597168</ele>
        <time>2010-12-18T14:13:36Z</time>
      </trkpt>
      <trkpt lat="44.99062" lon="4.92592">
        <ele>184.19099426269</ele>
        <time>2010-12-18T14:13:39Z</time>
      </trkpt>
      <trkpt lat="44.99039" lon="4.92665">
        <ele>184.10699462891</ele>
        <time>2010-12-18T14:13:48Z</time>
      </trkpt>
      <trkpt lat="44.99034" lon="4.92681">
        <ele>183.96899414062</ele>
        <time>2010-12-18T14:13:50Z</time>
      </trkpt>
      <trkpt lat="44.99027" lon="4.92703">
        <ele>183.94000244141</ele>
        <time>2010-12-18T14:13:53Z</time>
      </trkpt>
      <trkpt lat="44.99025" lon="4.9271">
        <ele>183.91700744629</ele>
        <time>2010-12-18T14:13:54Z</time>
      </trkpt>
      <trkpt lat="44.9902" lon="4.92725">
        <ele>183.99699401856</ele>
        <time>2010-12-18T14:13:56Z</time>
      </trkpt>
      <trkpt lat="44.99004" lon="4.92775">
        <ele>183.85499572754</ele>
        <time>2010-12-18T14:14:03Z</time>
      </trkpt>
      <trkpt lat="44.98989" lon="4.92827">
        <ele>184.31900024414</ele>
        <time>2010-12-18T14:14:10Z</time>
      </trkpt>
      <trkpt lat="44.98972" lon="4.92879">
        <ele>183.98500061035</ele>
        <time>2010-12-18T14:14:17Z</time>
      </trkpt>
      <trkpt lat="44.98951" lon="4.92944">
        <ele>183.75</ele>
        <time>2010-12-18T14:14:26Z</time>
      </trkpt>
      <trkpt lat="44.98935" lon="4.92997">
        <ele>183.69099426269</ele>
        <time>2010-12-18T14:14:33Z</time>
      </trkpt>
      <trkpt lat="44.98915" lon="4.93058">
        <ele>183.56799316406</ele>
        <time>2010-12-18T14:14:41Z</time>
      </trkpt>
      <trkpt lat="44.989" lon="4.93103">
        <ele>183.90899658203</ele>
        <time>2010-12-18T14:14:47Z</time>
      </trkpt>
      <trkpt lat="44.98885" lon="4.93155">
        <ele>183.94000244141</ele>
        <time>2010-12-18T14:14:54Z</time>
      </trkpt>
      <trkpt lat="44.98875" lon="4.93188">
        <ele>184.21699523926</ele>
        <time>2010-12-18T14:14:59Z</time>
      </trkpt>
      <trkpt lat="44.98868" lon="4.93213">
        <ele>184.03799438477</ele>
        <time>2010-12-18T14:15:04Z</time>
      </trkpt>
      <trkpt lat="44.98867" lon="4.93219">
        <ele>183.85099792481</ele>
        <time>2010-12-18T14:15:08Z</time>
      </trkpt>
      <trkpt lat="44.98873" lon="4.93226">
        <ele>183.91600036621</ele>
        <time>2010-12-18T14:15:12Z</time>
      </trkpt>
      <trkpt lat="44.98891" lon="4.93228">
        <ele>183.95599365234</ele>
        <time>2010-12-18T14:15:17Z</time>
      </trkpt>
      <trkpt lat="44.98919" lon="4.93229">
        <ele>183.82299804688</ele>
        <time>2010-12-18T14:15:23Z</time>
      </trkpt>
      <trkpt lat="44.9893" lon="4.9323">
        <ele>183.84800720215</ele>
        <time>2010-12-18T14:15:25Z</time>
      </trkpt>
      <trkpt lat="44.98945" lon="4.93244">
        <ele>184.20899963379</ele>
        <time>2010-12-18T14:15:29Z</time>
      </trkpt>
      <trkpt lat="44.98949" lon="4.93265">
        <ele>184.08299255371</ele>
        <time>2010-12-18T14:15:32Z</time>
      </trkpt>
      <trkpt lat="44.98956" lon="4.93328">
        <ele>184.03799438477</ele>
        <time>2010-12-18T14:15:40Z</time>
      </trkpt>
      <trkpt lat="44.98962" lon="4.93397">
        <ele>184.9700012207</ele>
        <time>2010-12-18T14:15:48Z</time>
      </trkpt>
      <trkpt lat="44.98969" lon="4.93476">
        <ele>185.36199951172</ele>
        <time>2010-12-18T14:15:57Z</time>
      </trkpt>
      <trkpt lat="44.98977" lon="4.93564">
        <ele>185.45799255371</ele>
        <time>2010-12-18T14:16:07Z</time>
      </trkpt>
      <trkpt lat="44.98982" lon="4.93615">
        <ele>185.06100463867</ele>
        <time>2010-12-18T14:16:13Z</time>
      </trkpt>
      <trkpt lat="44.98991" lon="4.93694">
        <ele>185.57499694824</ele>
        <time>2010-12-18T14:16:22Z</time>
      </trkpt>
      <trkpt lat="44.98998" lon="4.93787">
        <ele>184.65100097656</ele>
        <time>2010-12-18T14:16:32Z</time>
      </trkpt>
      <trkpt lat="44.98998" lon="4.93855">
        <ele>185.80499267578</ele>
        <time>2010-12-18T14:16:39Z</time>
      </trkpt>
      <trkpt lat="44.98998" lon="4.93873">
        <ele>185.92999267578</ele>
        <time>2010-12-18T14:16:41Z</time>
      </trkpt>
      <trkpt lat="44.98998" lon="4.93907">
        <ele>185.32899475098</ele>
        <time>2010-12-18T14:16:45Z</time>
      </trkpt>
      <trkpt lat="44.98999" lon="4.93982">
        <ele>185.60000610352</ele>
        <time>2010-12-18T14:16:54Z</time>
      </trkpt>
      <trkpt lat="44.98999" lon="4.94036">
        <ele>185.87399291992</ele>
        <time>2010-12-18T14:17:01Z</time>
      </trkpt>
      <trkpt lat="44.98999" lon="4.9405">
        <ele>185.79299926758</ele>
        <time>2010-12-18T14:17:03Z</time>
      </trkpt>
      <trkpt lat="44.99012" lon="4.94069">
        <ele>185.45199584961</ele>
        <time>2010-12-18T14:17:07Z</time>
      </trkpt>
      <trkpt lat="44.99018" lon="4.9407">
        <ele>185.36099243164</ele>
        <time>2010-12-18T14:17:08Z</time>
      </trkpt>
      <trkpt lat="44.99062" lon="4.94075">
        <ele>185.48300170898</ele>
        <time>2010-12-18T14:17:17Z</time>
      </trkpt>
      <trkpt lat="44.99095" lon="4.94079">
        <ele>185.80000305176</ele>
        <time>2010-12-18T14:17:25Z</time>
      </trkpt>
      <trkpt lat="44.99126" lon="4.94083">
        <ele>186.0359954834</ele>
        <time>2010-12-18T14:17:32Z</time>
      </trkpt>
      <trkpt lat="44.99149" lon="4.94087">
        <ele>186.15899658203</ele>
        <time>2010-12-18T14:17:38Z</time>
      </trkpt>
      <trkpt lat="44.99178" lon="4.94091">
        <ele>186.34700012207</ele>
        <time>2010-12-18T14:17:47Z</time>
      </trkpt>
      <trkpt lat="44.99192" lon="4.94094">
        <ele>186.1609954834</ele>
        <time>2010-12-18T14:17:53Z</time>
      </trkpt>
      <trkpt lat="44.99211" lon="4.94098">
        <ele>186.35299682617</ele>
        <time>2010-12-18T14:18:00Z</time>
      </trkpt>
      <trkpt lat="44.99231" lon="4.94101">
        <ele>186.30599975586</ele>
        <time>2010-12-18T14:18:06Z</time>
      </trkpt>
      <trkpt lat="44.99257" lon="4.94106">
        <ele>186.36099243164</ele>
        <time>2010-12-18T14:18:14Z</time>
      </trkpt>
      <trkpt lat="44.99277" lon="4.94111">
        <ele>186.48500061035</ele>
        <time>2010-12-18T14:18:22Z</time>
      </trkpt>
      <trkpt lat="44.9928" lon="4.94112">
        <ele>186.61599731445</ele>
        <time>2010-12-18T14:18:23Z</time>
      </trkpt>
      <trkpt lat="44.99289" lon="4.94102">
        <ele>186.65699768066</ele>
        <time>2010-12-18T14:18:27Z</time>
      </trkpt>
      <trkpt lat="44.99298" lon="4.94087">
        <ele>186.87899780273</ele>
        <time>2010-12-18T14:18:30Z</time>
      </trkpt>
      <trkpt lat="44.99304" lon="4.94077">
        <ele>186.93800354004</ele>
        <time>2010-12-18T14:18:32Z</time>
      </trkpt>
      <trkpt lat="44.99308" lon="4.94071">
        <ele>186.9109954834</ele>
        <time>2010-12-18T14:18:33Z</time>
      </trkpt>
      <trkpt lat="44.99329" lon="4.94036">
        <ele>186.74899291992</ele>
        <time>2010-12-18T14:18:39Z</time>
      </trkpt>
      <trkpt lat="44.9934" lon="4.9402">
        <ele>186.67300415039</ele>
        <time>2010-12-18T14:18:42Z</time>
      </trkpt>
      <trkpt lat="44.99353" lon="4.94018">
        <ele>186.79100036621</ele>
        <time>2010-12-18T14:18:46Z</time>
      </trkpt>
      <trkpt lat="44.99355" lon="4.94023">
        <ele>186.94200134277</ele>
        <time>2010-12-18T14:18:47Z</time>
      </trkpt>
      <trkpt lat="44.99377" lon="4.94065">
        <ele>187.11099243164</ele>
        <time>2010-12-18T14:18:55Z</time>
      </trkpt>
      <trkpt lat="44.99408" lon="4.94119">
        <ele>187.5059967041</ele>
        <time>2010-12-18T14:19:05Z</time>
      </trkpt>
      <trkpt lat="44.99433" lon="4.94165">
        <ele>188.03700256348</ele>
        <time>2010-12-18T14:19:13Z</time>
      </trkpt>
      <trkpt lat="44.99435" lon="4.94171">
        <ele>187.97500610352</ele>
        <time>2010-12-18T14:19:14Z</time>
      </trkpt>
      <trkpt lat="44.99452" lon="4.94197">
        <ele>186.90600585938</ele>
        <time>2010-12-18T14:19:19Z</time>
      </trkpt>
      <trkpt lat="44.99457" lon="4.94198">
        <ele>186.76499938965</ele>
        <time>2010-12-18T14:19:20Z</time>
      </trkpt>
      <trkpt lat="44.99495" lon="4.94196">
        <ele>186.52400207519</ele>
        <time>2010-12-18T14:19:27Z</time>
      </trkpt>
      <trkpt lat="44.99525" lon="4.94194">
        <ele>186.45399475098</ele>
        <time>2010-12-18T14:19:32Z</time>
      </trkpt>
      <trkpt lat="44.99576" lon="4.94185">
        <ele>187.38400268555</ele>
        <time>2010-12-18T14:19:41Z</time>
      </trkpt>
      <trkpt lat="44.99628" lon="4.94173">
        <ele>189.39799499512</ele>
        <time>2010-12-18T14:19:51Z</time>
      </trkpt>
      <trkpt lat="44.99638" lon="4.94172">
        <ele>189.86500549316</ele>
        <time>2010-12-18T14:19:53Z</time>
      </trkpt>
      <trkpt lat="44.99677" lon="4.94162">
        <ele>191.80400085449</ele>
        <time>2010-12-18T14:20:01Z</time>
      </trkpt>
      <trkpt lat="44.99719" lon="4.94159">
        <ele>194.9640045166</ele>
        <time>2010-12-18T14:20:09Z</time>
      </trkpt>
      <trkpt lat="44.99724" lon="4.94159">
        <ele>195.25799560547</ele>
        <time>2010-12-18T14:20:10Z</time>
      </trkpt>
      <trkpt lat="44.99744" lon="4.94168">
        <ele>197.06599426269</ele>
        <time>2010-12-18T14:20:14Z</time>
      </trkpt>
      <trkpt lat="44.99754" lon="4.94173">
        <ele>197.8450012207</ele>
        <time>2010-12-18T14:20:16Z</time>
      </trkpt>
      <trkpt lat="44.9978" lon="4.94186">
        <ele>199.20599365234</ele>
        <time>2010-12-18T14:20:22Z</time>
      </trkpt>
      <trkpt lat="44.99809" lon="4.94202">
        <ele>198.3869934082</ele>
        <time>2010-12-18T14:20:28Z</time>
      </trkpt>
      <trkpt lat="44.99826" lon="4.9421">
        <ele>197.93299865723</ele>
        <time>2010-12-18T14:20:31Z</time>
      </trkpt>
      <trkpt lat="44.99876" lon="4.94235">
        <ele>195.9940032959</ele>
        <time>2010-12-18T14:20:39Z</time>
      </trkpt>
      <trkpt lat="44.99918" lon="4.94255">
        <ele>195.82600402832</ele>
        <time>2010-12-18T14:20:46Z</time>
      </trkpt>
      <trkpt lat="44.99967" lon="4.94274">
        <ele>196.46600341797</ele>
        <time>2010-12-18T14:20:55Z</time>
      </trkpt>
      <trkpt lat="45.00008" lon="4.94291">
        <ele>197.94599914551</ele>
        <time>2010-12-18T14:21:03Z</time>
      </trkpt>
      <trkpt lat="45.00037" lon="4.94303">
        <ele>199.79299926758</ele>
        <time>2010-12-18T14:21:09Z</time>
      </trkpt>
      <trkpt lat="45.00041" lon="4.94303">
        <ele>200.12699890137</ele>
        <time>2010-12-18T14:21:10Z</time>
      </trkpt>
      <trkpt lat="45.00055" lon="4.94294">
        <ele>201.31100463867</ele>
        <time>2010-12-18T14:21:14Z</time>
      </trkpt>
      <trkpt lat="45.00079" lon="4.94268">
        <ele>203.10699462891</ele>
        <time>2010-12-18T14:21:21Z</time>
      </trkpt>
      <trkpt lat="45.00088" lon="4.94256">
        <ele>203.69599914551</ele>
        <time>2010-12-18T14:21:24Z</time>
      </trkpt>
      <trkpt lat="45.00093" lon="4.9424">
        <ele>204.41400146484</ele>
        <time>2010-12-18T14:21:27Z</time>
      </trkpt>
      <trkpt lat="45.00098" lon="4.94193">
        <ele>205.67199707031</ele>
        <time>2010-12-18T14:21:35Z</time>
      </trkpt>
      <trkpt lat="45.00099" lon="4.94187">
        <ele>205.86500549316</ele>
        <time>2010-12-18T14:21:36Z</time>
      </trkpt>
      <trkpt lat="45.00106" lon="4.94151">
        <ele>207.25300598144</ele>
        <time>2010-12-18T14:21:43Z</time>
      </trkpt>
      <trkpt lat="45.00118" lon="4.94148">
        <ele>208.83399963379</ele>
        <time>2010-12-18T14:21:47Z</time>
      </trkpt>
      <trkpt lat="45.00121" lon="4.94151">
        <ele>209.19500732422</ele>
        <time>2010-12-18T14:21:48Z</time>
      </trkpt>
      <trkpt lat="45.00127" lon="4.94156">
        <ele>210.4940032959</ele>
        <time>2010-12-18T14:21:50Z</time>
      </trkpt>
      <trkpt lat="45.00132" lon="4.9416">
        <ele>211.66400146484</ele>
        <time>2010-12-18T14:21:52Z</time>
      </trkpt>
      <trkpt lat="45.00138" lon="4.94165">
        <ele>212.62899780273</ele>
        <time>2010-12-18T14:21:54Z</time>
      </trkpt>
      <trkpt lat="45.00142" lon="4.94168">
        <ele>213.38299560547</ele>
        <time>2010-12-18T14:21:55Z</time>
      </trkpt>
      <trkpt lat="45.00145" lon="4.94172">
        <ele>214.13299560547</ele>
        <time>2010-12-18T14:21:56Z</time>
      </trkpt>
      <trkpt lat="45.00153" lon="4.94186">
        <ele>216.08099365234</ele>
        <time>2010-12-18T14:21:59Z</time>
      </trkpt>
      <trkpt lat="45.0016" lon="4.94201">
        <ele>217.62100219727</ele>
        <time>2010-12-18T14:22:02Z</time>
      </trkpt>
      <trkpt lat="45.00167" lon="4.94208">
        <ele>218.77400207519</ele>
        <time>2010-12-18T14:22:04Z</time>
      </trkpt>
      <trkpt lat="45.0017" lon="4.9421">
        <ele>219.11099243164</ele>
        <time>2010-12-18T14:22:05Z</time>
      </trkpt>
      <trkpt lat="45.00183" lon="4.94218">
        <ele>219.50399780273</ele>
        <time>2010-12-18T14:22:09Z</time>
      </trkpt>
      <trkpt lat="45.00186" lon="4.9422">
        <ele>219.47799682617</ele>
        <time>2010-12-18T14:22:10Z</time>
      </trkpt>
      <trkpt lat="45.00209" lon="4.94233">
        <ele>217.61799621582</ele>
        <time>2010-12-18T14:22:15Z</time>
      </trkpt>
      <trkpt lat="45.00235" lon="4.94244">
        <ele>214.18600463867</ele>
        <time>2010-12-18T14:22:18Z</time>
      </trkpt>
      <trkpt lat="45.0028" lon="4.94266">
        <ele>207.51400756836</ele>
        <time>2010-12-18T14:22:22Z</time>
      </trkpt>
      <trkpt lat="45.00318" lon="4.94286">
        <ele>203.76800537109</ele>
        <time>2010-12-18T14:22:25Z</time>
      </trkpt>
      <trkpt lat="45.00351" lon="4.94302">
        <ele>200.45100402832</ele>
        <time>2010-12-18T14:22:28Z</time>
      </trkpt>
      <trkpt lat="45.00357" lon="4.94305">
        <ele>199.65699768066</ele>
        <time>2010-12-18T14:22:29Z</time>
      </trkpt>
      <trkpt lat="45.00372" lon="4.943">
        <ele>198.57499694824</ele>
        <time>2010-12-18T14:22:33Z</time>
      </trkpt>
      <trkpt lat="45.00374" lon="4.94297">
        <ele>198.58399963379</ele>
        <time>2010-12-18T14:22:34Z</time>
      </trkpt>
      <trkpt lat="45.00387" lon="4.94276">
        <ele>198.28399658203</ele>
        <time>2010-12-18T14:22:40Z</time>
      </trkpt>
      <trkpt lat="45.00395" lon="4.94283">
        <ele>198.16799926758</ele>
        <time>2010-12-18T14:22:44Z</time>
      </trkpt>
      <trkpt lat="45.00396" lon="4.9432">
        <ele>197.72799682617</ele>
        <time>2010-12-18T14:22:52Z</time>
      </trkpt>
      <trkpt lat="45.00397" lon="4.94351">
        <ele>197.63900756836</ele>
        <time>2010-12-18T14:22:58Z</time>
      </trkpt>
      <trkpt lat="45.00399" lon="4.94371">
        <ele>197.65699768066</ele>
        <time>2010-12-18T14:23:02Z</time>
      </trkpt>
      <trkpt lat="45.00402" lon="4.94393">
        <ele>197.57499694824</ele>
        <time>2010-12-18T14:23:06Z</time>
      </trkpt>
      <trkpt lat="45.00409" lon="4.9444">
        <ele>197.47500610352</ele>
        <time>2010-12-18T14:23:13Z</time>
      </trkpt>
      <trkpt lat="45.00412" lon="4.94469">
        <ele>197.21000671387</ele>
        <time>2010-12-18T14:23:17Z</time>
      </trkpt>
      <trkpt lat="45.0041" lon="4.94529">
        <ele>197.16799926758</ele>
        <time>2010-12-18T14:23:25Z</time>
      </trkpt>
      <trkpt lat="45.0041" lon="4.94569">
        <ele>197.17399597168</ele>
        <time>2010-12-18T14:23:30Z</time>
      </trkpt>
      <trkpt lat="45.0041" lon="4.94577">
        <ele>197.19099426269</ele>
        <time>2010-12-18T14:23:31Z</time>
      </trkpt>
      <trkpt lat="45.00411" lon="4.94633">
        <ele>197.29899597168</ele>
        <time>2010-12-18T14:23:38Z</time>
      </trkpt>
      <trkpt lat="45.00419" lon="4.94689">
        <ele>197.58399963379</ele>
        <time>2010-12-18T14:23:45Z</time>
      </trkpt>
      <trkpt lat="45.00431" lon="4.94731">
        <ele>197.33000183106</ele>
        <time>2010-12-18T14:23:51Z</time>
      </trkpt>
      <trkpt lat="45.00449" lon="4.94779">
        <ele>198.9109954834</ele>
        <time>2010-12-18T14:23:58Z</time>
      </trkpt>
      <trkpt lat="45.00469" lon="4.94827">
        <ele>201.28100585938</ele>
        <time>2010-12-18T14:24:05Z</time>
      </trkpt>
      <trkpt lat="45.00473" lon="4.94846">
        <ele>202.25100708008</ele>
        <time>2010-12-18T14:24:08Z</time>
      </trkpt>
      <trkpt lat="45.00475" lon="4.94857">
        <ele>203.18299865723</ele>
        <time>2010-12-18T14:24:10Z</time>
      </trkpt>
      <trkpt lat="45.00476" lon="4.94863">
        <ele>203.5950012207</ele>
        <time>2010-12-18T14:24:11Z</time>
      </trkpt>
      <trkpt lat="45.00476" lon="4.94868">
        <ele>203.95700073242</ele>
        <time>2010-12-18T14:24:12Z</time>
      </trkpt>
      <trkpt lat="45.00479" lon="4.94912">
        <ele>204.68699645996</ele>
        <time>2010-12-18T14:24:20Z</time>
      </trkpt>
      <trkpt lat="45.00479" lon="4.94935">
        <ele>204.43600463867</ele>
        <time>2010-12-18T14:24:24Z</time>
      </trkpt>
      <trkpt lat="45.0048" lon="4.94965">
        <ele>204.70899963379</ele>
        <time>2010-12-18T14:24:29Z</time>
      </trkpt>
      <trkpt lat="45.00491" lon="4.95017">
        <ele>204.98500061035</ele>
        <time>2010-12-18T14:24:37Z</time>
      </trkpt>
      <trkpt lat="45.00507" lon="4.95069">
        <ele>205.92799377441</ele>
        <time>2010-12-18T14:24:45Z</time>
      </trkpt>
      <trkpt lat="45.00528" lon="4.95127">
        <ele>207.2380065918</ele>
        <time>2010-12-18T14:24:54Z</time>
      </trkpt>
      <trkpt lat="45.00542" lon="4.95167">
        <ele>209.52900695801</ele>
        <time>2010-12-18T14:25:01Z</time>
      </trkpt>
      <trkpt lat="45.00546" lon="4.95179">
        <ele>210.30099487305</ele>
        <time>2010-12-18T14:25:03Z</time>
      </trkpt>
      <trkpt lat="45.0056" lon="4.95212">
        <ele>211.22999572754</ele>
        <time>2010-12-18T14:25:09Z</time>
      </trkpt>
      <trkpt lat="45.00577" lon="4.95251">
        <ele>211.45399475098</ele>
        <time>2010-12-18T14:25:16Z</time>
      </trkpt>
      <trkpt lat="45.00579" lon="4.95256">
        <ele>211.59800720215</ele>
        <time>2010-12-18T14:25:17Z</time>
      </trkpt>
      <trkpt lat="45.00586" lon="4.95266">
        <ele>211.72900390625</ele>
        <time>2010-12-18T14:25:19Z</time>
      </trkpt>
      <trkpt lat="45.0061" lon="4.95286">
        <ele>212.41000366211</ele>
        <time>2010-12-18T14:25:25Z</time>
      </trkpt>
      <trkpt lat="45.00641" lon="4.95303">
        <ele>214.73500061035</ele>
        <time>2010-12-18T14:25:33Z</time>
      </trkpt>
      <trkpt lat="45.00671" lon="4.95318">
        <ele>215.87399291992</ele>
        <time>2010-12-18T14:25:41Z</time>
      </trkpt>
      <trkpt lat="45.00695" lon="4.95331">
        <ele>216.23100280762</ele>
        <time>2010-12-18T14:25:48Z</time>
      </trkpt>
      <trkpt lat="45.00711" lon="4.95334">
        <ele>215.33799743652</ele>
        <time>2010-12-18T14:25:52Z</time>
      </trkpt>
      <trkpt lat="45.00727" lon="4.95335">
        <ele>214.13299560547</ele>
        <time>2010-12-18T14:25:55Z</time>
      </trkpt>
      <trkpt lat="45.00748" lon="4.95331">
        <ele>213.32000732422</ele>
        <time>2010-12-18T14:25:58Z</time>
      </trkpt>
      <trkpt lat="45.00774" lon="4.95338">
        <ele>212.84199523926</ele>
        <time>2010-12-18T14:26:02Z</time>
      </trkpt>
      <trkpt lat="45.00785" lon="4.95345">
        <ele>213.16499328613</ele>
        <time>2010-12-18T14:26:04Z</time>
      </trkpt>
      <trkpt lat="45.00795" lon="4.9535">
        <ele>213.43699645996</ele>
        <time>2010-12-18T14:26:06Z</time>
      </trkpt>
      <trkpt lat="45.00817" lon="4.95344">
        <ele>213.66700744629</ele>
        <time>2010-12-18T14:26:11Z</time>
      </trkpt>
      <trkpt lat="45.00836" lon="4.95326">
        <ele>213.60000610352</ele>
        <time>2010-12-18T14:26:15Z</time>
      </trkpt>
      <trkpt lat="45.00867" lon="4.95312">
        <ele>213.44700622559</ele>
        <time>2010-12-18T14:26:21Z</time>
      </trkpt>
      <trkpt lat="45.00903" lon="4.95308">
        <ele>213.02499389648</ele>
        <time>2010-12-18T14:26:28Z</time>
      </trkpt>
      <trkpt lat="45.0094" lon="4.95299">
        <ele>212.60299682617</ele>
        <time>2010-12-18T14:26:35Z</time>
      </trkpt>
      <trkpt lat="45.0096" lon="4.95287">
        <ele>212.14599609375</ele>
        <time>2010-12-18T14:26:39Z</time>
      </trkpt>
      <trkpt lat="45.00975" lon="4.95263">
        <ele>211.01100158691</ele>
        <time>2010-12-18T14:26:43Z</time>
      </trkpt>
      <trkpt lat="45.00976" lon="4.95256">
        <ele>210.89300537109</ele>
        <time>2010-12-18T14:26:44Z</time>
      </trkpt>
      <trkpt lat="45.00976" lon="4.95242">
        <ele>210.10000610352</ele>
        <time>2010-12-18T14:26:46Z</time>
      </trkpt>
      <trkpt lat="45.00989" lon="4.95222">
        <ele>208.34100341797</ele>
        <time>2010-12-18T14:26:49Z</time>
      </trkpt>
      <trkpt lat="45.00997" lon="4.95219">
        <ele>207.46499633789</ele>
        <time>2010-12-18T14:26:50Z</time>
      </trkpt>
      <trkpt lat="45.01046" lon="4.95206">
        <ele>203.4109954834</ele>
        <time>2010-12-18T14:26:55Z</time>
      </trkpt>
      <trkpt lat="45.0108" lon="4.95177">
        <ele>198.82600402832</ele>
        <time>2010-12-18T14:26:59Z</time>
      </trkpt>
      <trkpt lat="45.01086" lon="4.95168">
        <ele>197.59700012207</ele>
        <time>2010-12-18T14:27:00Z</time>
      </trkpt>
      <trkpt lat="45.0111" lon="4.95114">
        <ele>193.38600158691</ele>
        <time>2010-12-18T14:27:05Z</time>
      </trkpt>
      <trkpt lat="45.0112" lon="4.95087">
        <ele>191.22599792481</ele>
        <time>2010-12-18T14:27:08Z</time>
      </trkpt>
      <trkpt lat="45.0113" lon="4.95073">
        <ele>189.85200500488</ele>
        <time>2010-12-18T14:27:11Z</time>
      </trkpt>
      <trkpt lat="45.01136" lon="4.95068">
        <ele>189.34599304199</ele>
        <time>2010-12-18T14:27:13Z</time>
      </trkpt>
      <trkpt lat="45.0114" lon="4.95068">
        <ele>188.70399475098</ele>
        <time>2010-12-18T14:27:17Z</time>
      </trkpt>
      <trkpt lat="45.01142" lon="4.95073">
        <ele>188.61999511719</ele>
        <time>2010-12-18T14:28:17Z</time>
      </trkpt>
      <trkpt lat="45.01144" lon="4.95073">
        <ele>188.67399597168</ele>
        <time>2010-12-18T14:28:18Z</time>
      </trkpt>
      <trkpt lat="45.01148" lon="4.95075">
        <ele>188.56399536133</ele>
        <time>2010-12-18T14:28:20Z</time>
      </trkpt>
      <trkpt lat="45.01166" lon="4.95064">
        <ele>187.85000610352</ele>
        <time>2010-12-18T14:28:26Z</time>
      </trkpt>
      <trkpt lat="45.01195" lon="4.95046">
        <ele>186.95300292969</ele>
        <time>2010-12-18T14:28:33Z</time>
      </trkpt>
      <trkpt lat="45.01229" lon="4.95029">
        <ele>185.62300109863</ele>
        <time>2010-12-18T14:28:39Z</time>
      </trkpt>
      <trkpt lat="45.01272" lon="4.95008">
        <ele>183.30099487305</ele>
        <time>2010-12-18T14:28:45Z</time>
      </trkpt>
      <trkpt lat="45.01316" lon="4.94986">
        <ele>180.95799255371</ele>
        <time>2010-12-18T14:28:50Z</time>
      </trkpt>
      <trkpt lat="45.01336" lon="4.94979">
        <ele>179.82699584961</ele>
        <time>2010-12-18T14:28:52Z</time>
      </trkpt>
      <trkpt lat="45.01366" lon="4.94962">
        <ele>178.1609954834</ele>
        <time>2010-12-18T14:28:55Z</time>
      </trkpt>
      <trkpt lat="45.01384" lon="4.94946">
        <ele>176.89399719238</ele>
        <time>2010-12-18T14:28:57Z</time>
      </trkpt>
      <trkpt lat="45.01421" lon="4.9489">
        <ele>173.88600158691</ele>
        <time>2010-12-18T14:29:02Z</time>
      </trkpt>
      <trkpt lat="45.01452" lon="4.9479">
        <ele>170.07699584961</ele>
        <time>2010-12-18T14:29:09Z</time>
      </trkpt>
      <trkpt lat="45.01484" lon="4.94696">
        <ele>166.47500610352</ele>
        <time>2010-12-18T14:29:16Z</time>
      </trkpt>
      <trkpt lat="45.01507" lon="4.94615">
        <ele>162.71699523926</ele>
        <time>2010-12-18T14:29:22Z</time>
      </trkpt>
      <trkpt lat="45.01511" lon="4.94601">
        <ele>162.54699707031</ele>
        <time>2010-12-18T14:29:23Z</time>
      </trkpt>
      <trkpt lat="45.01528" lon="4.94546">
        <ele>160.19900512695</ele>
        <time>2010-12-18T14:29:27Z</time>
      </trkpt>
      <trkpt lat="45.01546" lon="4.9449">
        <ele>157.88000488281</ele>
        <time>2010-12-18T14:29:31Z</time>
      </trkpt>
      <trkpt lat="45.01559" lon="4.94447">
        <ele>155.62100219727</ele>
        <time>2010-12-18T14:29:34Z</time>
      </trkpt>
      <trkpt lat="45.01567" lon="4.9442">
        <ele>154.10899353027</ele>
        <time>2010-12-18T14:29:36Z</time>
      </trkpt>
      <trkpt lat="45.01569" lon="4.94388">
        <ele>152.27200317383</ele>
        <time>2010-12-18T14:29:39Z</time>
      </trkpt>
      <trkpt lat="45.01561" lon="4.94366">
        <ele>151.13800048828</ele>
        <time>2010-12-18T14:29:41Z</time>
      </trkpt>
      <trkpt lat="45.01556" lon="4.94342">
        <ele>150.00199890137</ele>
        <time>2010-12-18T14:29:43Z</time>
      </trkpt>
      <trkpt lat="45.01553" lon="4.94329">
        <ele>149.16600036621</ele>
        <time>2010-12-18T14:29:44Z</time>
      </trkpt>
      <trkpt lat="45.01538" lon="4.94274">
        <ele>146.13000488281</ele>
        <time>2010-12-18T14:29:48Z</time>
      </trkpt>
      <trkpt lat="45.01521" lon="4.94215">
        <ele>143.12600708008</ele>
        <time>2010-12-18T14:29:52Z</time>
      </trkpt>
      <trkpt lat="45.01499" lon="4.94157">
        <ele>140.41000366211</ele>
        <time>2010-12-18T14:29:56Z</time>
      </trkpt>
      <trkpt lat="45.01469" lon="4.94105">
        <ele>138.11399841309</ele>
        <time>2010-12-18T14:30:00Z</time>
      </trkpt>
      <trkpt lat="45.01426" lon="4.94038">
        <ele>133.51699829102</ele>
        <time>2010-12-18T14:30:05Z</time>
      </trkpt>
      <trkpt lat="45.01405" lon="4.93974">
        <ele>129.22599792481</ele>
        <time>2010-12-18T14:30:09Z</time>
      </trkpt>
      <trkpt lat="45.01406" lon="4.93922">
        <ele>127.56500244141</ele>
        <time>2010-12-18T14:30:12Z</time>
      </trkpt>
      <trkpt lat="45.01421" lon="4.93878">
        <ele>126.44100189209</ele>
        <time>2010-12-18T14:30:15Z</time>
      </trkpt>
      <trkpt lat="45.01449" lon="4.93829">
        <ele>125.13899993897</ele>
        <time>2010-12-18T14:30:19Z</time>
      </trkpt>
      <trkpt lat="45.01458" lon="4.93802">
        <ele>124.34999847412</ele>
        <time>2010-12-18T14:30:21Z</time>
      </trkpt>
      <trkpt lat="45.01468" lon="4.93762">
        <ele>123.43000030518</ele>
        <time>2010-12-18T14:30:24Z</time>
      </trkpt>
      <trkpt lat="45.01481" lon="4.93738">
        <ele>122.83899688721</ele>
        <time>2010-12-18T14:30:27Z</time>
      </trkpt>
      <trkpt lat="45.01488" lon="4.93725">
        <ele>122.85399627685</ele>
        <time>2010-12-18T14:30:29Z</time>
      </trkpt>
      <trkpt lat="45.01482" lon="4.93708">
        <ele>122.87400054932</ele>
        <time>2010-12-18T14:30:32Z</time>
      </trkpt>
      <trkpt lat="45.01475" lon="4.93714">
        <ele>122.88800048828</ele>
        <time>2010-12-18T14:30:34Z</time>
      </trkpt>
      <trkpt lat="45.01476" lon="4.93733">
        <ele>122.88400268555</ele>
        <time>2010-12-18T14:30:37Z</time>
      </trkpt>
      <trkpt lat="45.01487" lon="4.93744">
        <ele>122.76100158691</ele>
        <time>2010-12-18T14:30:40Z</time>
      </trkpt>
      <trkpt lat="45.01495" lon="4.93767">
        <ele>122.49299621582</ele>
        <time>2010-12-18T14:30:44Z</time>
      </trkpt>
      <trkpt lat="45.01498" lon="4.93787">
        <ele>122.24700164795</ele>
        <time>2010-12-18T14:30:47Z</time>
      </trkpt>
      <trkpt lat="45.01506" lon="4.93828">
        <ele>121.85099792481</ele>
        <time>2010-12-18T14:30:53Z</time>
      </trkpt>
      <trkpt lat="45.01521" lon="4.93866">
        <ele>121.94599914551</ele>
        <time>2010-12-18T14:31:00Z</time>
      </trkpt>
      <trkpt lat="45.01527" lon="4.93884">
        <ele>121.93499755859</ele>
        <time>2010-12-18T14:31:03Z</time>
      </trkpt>
      <trkpt lat="45.01537" lon="4.93916">
        <ele>122.62200164795</ele>
        <time>2010-12-18T14:31:09Z</time>
      </trkpt>
      <trkpt lat="45.01545" lon="4.93933">
        <ele>123.18399810791</ele>
        <time>2010-12-18T14:31:14Z</time>
      </trkpt>
      <trkpt lat="45.01545" lon="4.93936">
        <ele>123.34700012207</ele>
        <time>2010-12-18T14:31:15Z</time>
      </trkpt>
      <trkpt lat="45.01556" lon="4.93942">
        <ele>123.30000305176</ele>
        <time>2010-12-18T14:31:21Z</time>
      </trkpt>
      <trkpt lat="45.01565" lon="4.93936">
        <ele>122.5299987793</ele>
        <time>2010-12-18T14:31:24Z</time>
      </trkpt>
      <trkpt lat="45.0159" lon="4.93912">
        <ele>121.02500152588</ele>
        <time>2010-12-18T14:31:31Z</time>
      </trkpt>
      <trkpt lat="45.01599" lon="4.93905">
        <ele>120.57499694824</ele>
        <time>2010-12-18T14:31:33Z</time>
      </trkpt>
      <trkpt lat="45.01641" lon="4.9387">
        <ele>119.28099822998</ele>
        <time>2010-12-18T14:31:42Z</time>
      </trkpt>
      <trkpt lat="45.01664" lon="4.93849">
        <ele>119.28299713135</ele>
        <time>2010-12-18T14:31:47Z</time>
      </trkpt>
      <trkpt lat="45.017" lon="4.93817">
        <ele>119.73999786377</ele>
        <time>2010-12-18T14:31:55Z</time>
      </trkpt>
      <trkpt lat="45.01744" lon="4.93777">
        <ele>119.7440032959</ele>
        <time>2010-12-18T14:32:04Z</time>
      </trkpt>
      <trkpt lat="45.01788" lon="4.93739">
        <ele>119.44799804688</ele>
        <time>2010-12-18T14:32:12Z</time>
      </trkpt>
      <trkpt lat="45.01822" lon="4.93709">
        <ele>120.36199951172</ele>
        <time>2010-12-18T14:32:19Z</time>
      </trkpt>
      <trkpt lat="45.01859" lon="4.93675">
        <ele>122.06900024414</ele>
        <time>2010-12-18T14:32:28Z</time>
      </trkpt>
      <trkpt lat="45.01896" lon="4.93641">
        <ele>122.15899658203</ele>
        <time>2010-12-18T14:32:36Z</time>
      </trkpt>
      <trkpt lat="45.01929" lon="4.93613">
        <ele>121.67700195312</ele>
        <time>2010-12-18T14:32:42Z</time>
      </trkpt>
      <trkpt lat="45.0197" lon="4.93578">
        <ele>122.69499969482</ele>
        <time>2010-12-18T14:32:50Z</time>
      </trkpt>
      <trkpt lat="45.02004" lon="4.93546">
        <ele>124.40299987793</ele>
        <time>2010-12-18T14:32:58Z</time>
      </trkpt>
      <trkpt lat="45.02056" lon="4.93501">
        <ele>125.53199768066</ele>
        <time>2010-12-18T14:33:10Z</time>
      </trkpt>
      <trkpt lat="45.02089" lon="4.93471">
        <ele>126.20899963379</ele>
        <time>2010-12-18T14:33:17Z</time>
      </trkpt>
      <trkpt lat="45.02107" lon="4.93455">
        <ele>126.50800323486</ele>
        <time>2010-12-18T14:33:21Z</time>
      </trkpt>
      <trkpt lat="45.02139" lon="4.93428">
        <ele>127.01100158691</ele>
        <time>2010-12-18T14:33:28Z</time>
      </trkpt>
      <trkpt lat="45.02182" lon="4.9339">
        <ele>126.83699798584</ele>
        <time>2010-12-18T14:33:37Z</time>
      </trkpt>
      <trkpt lat="45.02227" lon="4.93365">
        <ele>126.67700195312</ele>
        <time>2010-12-18T14:33:45Z</time>
      </trkpt>
      <trkpt lat="45.02271" lon="4.93358">
        <ele>126.65100097656</ele>
        <time>2010-12-18T14:33:52Z</time>
      </trkpt>
      <trkpt lat="45.02321" lon="4.93362">
        <ele>126.53600311279</ele>
        <time>2010-12-18T14:34:00Z</time>
      </trkpt>
      <trkpt lat="45.02395" lon="4.93369">
        <ele>126.55500030518</ele>
        <time>2010-12-18T14:34:11Z</time>
      </trkpt>
      <trkpt lat="45.02468" lon="4.93374">
        <ele>126.58799743652</ele>
        <time>2010-12-18T14:34:22Z</time>
      </trkpt>
      <trkpt lat="45.02519" lon="4.93372">
        <ele>126.55599975586</ele>
        <time>2010-12-18T14:34:30Z</time>
      </trkpt>
      <trkpt lat="45.02565" lon="4.93357">
        <ele>126.50299835205</ele>
        <time>2010-12-18T14:34:37Z</time>
      </trkpt>
      <trkpt lat="45.02623" lon="4.93326">
        <ele>126.29900360107</ele>
        <time>2010-12-18T14:34:46Z</time>
      </trkpt>
      <trkpt lat="45.02681" lon="4.9329">
        <ele>126.09400177002</ele>
        <time>2010-12-18T14:34:55Z</time>
      </trkpt>
      <trkpt lat="45.02736" lon="4.93251">
        <ele>126.55200195312</ele>
        <time>2010-12-18T14:35:04Z</time>
      </trkpt>
      <trkpt lat="45.02784" lon="4.93219">
        <ele>127.24600219727</ele>
        <time>2010-12-18T14:35:12Z</time>
      </trkpt>
      <trkpt lat="45.02843" lon="4.93178">
        <ele>128.18099975586</ele>
        <time>2010-12-18T14:35:22Z</time>
      </trkpt>
      <trkpt lat="45.02897" lon="4.93142">
        <ele>128.80999755859</ele>
        <time>2010-12-18T14:35:31Z</time>
      </trkpt>
      <trkpt lat="45.02947" lon="4.93117">
        <ele>128.93499755859</ele>
        <time>2010-12-18T14:35:39Z</time>
      </trkpt>
      <trkpt lat="45.02987" lon="4.93102">
        <ele>129.32899475098</ele>
        <time>2010-12-18T14:35:45Z</time>
      </trkpt>
      <trkpt lat="45.03035" lon="4.93089">
        <ele>129.49299621582</ele>
        <time>2010-12-18T14:35:52Z</time>
      </trkpt>
      <trkpt lat="45.03089" lon="4.93083">
        <ele>129.61799621582</ele>
        <time>2010-12-18T14:36:00Z</time>
      </trkpt>
      <trkpt lat="45.03142" lon="4.93082">
        <ele>130.0950012207</ele>
        <time>2010-12-18T14:36:08Z</time>
      </trkpt>
      <trkpt lat="45.03183" lon="4.93085">
        <ele>130.20399475098</ele>
        <time>2010-12-18T14:36:15Z</time>
      </trkpt>
      <trkpt lat="45.03217" lon="4.93098">
        <ele>130.36000061035</ele>
        <time>2010-12-18T14:36:21Z</time>
      </trkpt>
      <trkpt lat="45.03271" lon="4.93135">
        <ele>130.71699523926</ele>
        <time>2010-12-18T14:36:30Z</time>
      </trkpt>
      <trkpt lat="45.03311" lon="4.93163">
        <ele>130.71699523926</ele>
        <time>2010-12-18T14:36:37Z</time>
      </trkpt>
      <trkpt lat="45.0335" lon="4.93199">
        <ele>130.67900085449</ele>
        <time>2010-12-18T14:36:44Z</time>
      </trkpt>
      <trkpt lat="45.03391" lon="4.93247">
        <ele>130.61399841309</ele>
        <time>2010-12-18T14:36:52Z</time>
      </trkpt>
      <trkpt lat="45.03442" lon="4.93314">
        <ele>131.03799438477</ele>
        <time>2010-12-18T14:37:02Z</time>
      </trkpt>
      <trkpt lat="45.03486" lon="4.93374">
        <ele>131.08299255371</ele>
        <time>2010-12-18T14:37:11Z</time>
      </trkpt>
      <trkpt lat="45.0352" lon="4.93418">
        <ele>131.54800415039</ele>
        <time>2010-12-18T14:37:18Z</time>
      </trkpt>
      <trkpt lat="45.03575" lon="4.93482">
        <ele>132.19700622559</ele>
        <time>2010-12-18T14:37:29Z</time>
      </trkpt>
      <trkpt lat="45.03585" lon="4.93493">
        <ele>132.26400756836</ele>
        <time>2010-12-18T14:37:31Z</time>
      </trkpt>
      <trkpt lat="45.03638" lon="4.93546">
        <ele>132.95799255371</ele>
        <time>2010-12-18T14:37:41Z</time>
      </trkpt>
      <trkpt lat="45.03671" lon="4.93579">
        <ele>133.25</ele>
        <time>2010-12-18T14:37:47Z</time>
      </trkpt>
      <trkpt lat="45.03749" lon="4.93655">
        <ele>132.87699890137</ele>
        <time>2010-12-18T14:38:01Z</time>
      </trkpt>
      <trkpt lat="45.03796" lon="4.93694">
        <ele>132.59399414062</ele>
        <time>2010-12-18T14:38:09Z</time>
      </trkpt>
      <trkpt lat="45.03867" lon="4.93747">
        <ele>133.35400390625</ele>
        <time>2010-12-18T14:38:21Z</time>
      </trkpt>
      <trkpt lat="45.03912" lon="4.93791">
        <ele>133.41299438477</ele>
        <time>2010-12-18T14:38:29Z</time>
      </trkpt>
      <trkpt lat="45.03956" lon="4.93849">
        <ele>133.86000061035</ele>
        <time>2010-12-18T14:38:38Z</time>
      </trkpt>
      <trkpt lat="45.04002" lon="4.93905">
        <ele>133.80099487305</ele>
        <time>2010-12-18T14:38:47Z</time>
      </trkpt>
      <trkpt lat="45.04064" lon="4.93967">
        <ele>133.45199584961</ele>
        <time>2010-12-18T14:38:58Z</time>
      </trkpt>
      <trkpt lat="45.04126" lon="4.94029">
        <ele>133.16499328613</ele>
        <time>2010-12-18T14:39:09Z</time>
      </trkpt>
      <trkpt lat="45.04191" lon="4.94095">
        <ele>133.98300170898</ele>
        <time>2010-12-18T14:39:21Z</time>
      </trkpt>
      <trkpt lat="45.04235" lon="4.94139">
        <ele>135.83599853516</ele>
        <time>2010-12-18T14:39:29Z</time>
      </trkpt>
      <trkpt lat="45.0429" lon="4.94196">
        <ele>136.41999816894</ele>
        <time>2010-12-18T14:39:39Z</time>
      </trkpt>
      <trkpt lat="45.04335" lon="4.9424">
        <ele>137.20599365234</ele>
        <time>2010-12-18T14:39:47Z</time>
      </trkpt>
      <trkpt lat="45.04396" lon="4.94302">
        <ele>137.36199951172</ele>
        <time>2010-12-18T14:39:58Z</time>
      </trkpt>
      <trkpt lat="45.04442" lon="4.94343">
        <ele>137.16400146484</ele>
        <time>2010-12-18T14:40:05Z</time>
      </trkpt>
      <trkpt lat="45.04494" lon="4.94377">
        <ele>136.875</ele>
        <time>2010-12-18T14:40:12Z</time>
      </trkpt>
      <trkpt lat="45.04569" lon="4.94415">
        <ele>136.52600097656</ele>
        <time>2010-12-18T14:40:22Z</time>
      </trkpt>
      <trkpt lat="45.04627" lon="4.94444">
        <ele>136.97500610352</ele>
        <time>2010-12-18T14:40:30Z</time>
      </trkpt>
      <trkpt lat="45.04679" lon="4.94469">
        <ele>136.83099365234</ele>
        <time>2010-12-18T14:40:38Z</time>
      </trkpt>
      <trkpt lat="45.04741" lon="4.94509">
        <ele>136.87100219727</ele>
        <time>2010-12-18T14:40:48Z</time>
      </trkpt>
      <trkpt lat="45.04805" lon="4.94561">
        <ele>137.02000427246</ele>
        <time>2010-12-18T14:40:59Z</time>
      </trkpt>
      <trkpt lat="45.04863" lon="4.94605">
        <ele>137.32099914551</ele>
        <time>2010-12-18T14:41:09Z</time>
      </trkpt>
      <trkpt lat="45.04903" lon="4.94635">
        <ele>137.53799438477</ele>
        <time>2010-12-18T14:41:16Z</time>
      </trkpt>
      <trkpt lat="45.04963" lon="4.94682">
        <ele>137.07499694824</ele>
        <time>2010-12-18T14:41:26Z</time>
      </trkpt>
      <trkpt lat="45.05025" lon="4.9472">
        <ele>137.22999572754</ele>
        <time>2010-12-18T14:41:36Z</time>
      </trkpt>
      <trkpt lat="45.05065" lon="4.94731">
        <ele>137.62100219727</ele>
        <time>2010-12-18T14:41:42Z</time>
      </trkpt>
      <trkpt lat="45.05132" lon="4.94739">
        <ele>138.54400634766</ele>
        <time>2010-12-18T14:41:52Z</time>
      </trkpt>
      <trkpt lat="45.05175" lon="4.94759">
        <ele>139.81399536133</ele>
        <time>2010-12-18T14:41:59Z</time>
      </trkpt>
      <trkpt lat="45.05203" lon="4.94775">
        <ele>139.55900573731</ele>
        <time>2010-12-18T14:42:04Z</time>
      </trkpt>
      <trkpt lat="45.05219" lon="4.94781">
        <ele>139.54299926758</ele>
        <time>2010-12-18T14:42:07Z</time>
      </trkpt>
      <trkpt lat="45.05244" lon="4.94784">
        <ele>138.92900085449</ele>
        <time>2010-12-18T14:42:13Z</time>
      </trkpt>
      <trkpt lat="45.05252" lon="4.94783">
        <ele>138.79499816894</ele>
        <time>2010-12-18T14:42:18Z</time>
      </trkpt>
      <trkpt lat="45.05262" lon="4.94783">
        <ele>138.74699401856</ele>
        <time>2010-12-18T14:42:21Z</time>
      </trkpt>
      <trkpt lat="45.0527" lon="4.94803">
        <ele>137.94999694824</ele>
        <time>2010-12-18T14:42:25Z</time>
      </trkpt>
      <trkpt lat="45.05279" lon="4.94847">
        <ele>136.80700683594</ele>
        <time>2010-12-18T14:42:31Z</time>
      </trkpt>
      <trkpt lat="45.05288" lon="4.9487">
        <ele>135.71600341797</ele>
        <time>2010-12-18T14:42:34Z</time>
      </trkpt>
      <trkpt lat="45.05318" lon="4.94912">
        <ele>134.70700073242</ele>
        <time>2010-12-18T14:42:40Z</time>
      </trkpt>
      <trkpt lat="45.05346" lon="4.9494">
        <ele>134.86399841309</ele>
        <time>2010-12-18T14:42:45Z</time>
      </trkpt>
      <trkpt lat="45.05368" lon="4.94981">
        <ele>134.84100341797</ele>
        <time>2010-12-18T14:42:51Z</time>
      </trkpt>
      <trkpt lat="45.05384" lon="4.95036">
        <ele>134.4109954834</ele>
        <time>2010-12-18T14:42:58Z</time>
      </trkpt>
      <trkpt lat="45.05388" lon="4.9506">
        <ele>134.27000427246</ele>
        <time>2010-12-18T14:43:01Z</time>
      </trkpt>
      <trkpt lat="45.05386" lon="4.95108">
        <ele>134.12699890137</ele>
        <time>2010-12-18T14:43:07Z</time>
      </trkpt>
      <trkpt lat="45.05395" lon="4.95132">
        <ele>134.47500610352</ele>
        <time>2010-12-18T14:43:11Z</time>
      </trkpt>
      <trkpt lat="45.05404" lon="4.9514">
        <ele>134.30799865723</ele>
        <time>2010-12-18T14:43:13Z</time>
      </trkpt>
      <trkpt lat="45.0541" lon="4.95149">
        <ele>134.23599243164</ele>
        <time>2010-12-18T14:43:15Z</time>
      </trkpt>
      <trkpt lat="45.05426" lon="4.95175">
        <ele>134.60699462891</ele>
        <time>2010-12-18T14:43:20Z</time>
      </trkpt>
      <trkpt lat="45.05447" lon="4.95217">
        <ele>136.0059967041</ele>
        <time>2010-12-18T14:43:27Z</time>
      </trkpt>
      <trkpt lat="45.05454" lon="4.95235">
        <ele>136.35299682617</ele>
        <time>2010-12-18T14:43:30Z</time>
      </trkpt>
      <trkpt lat="45.05469" lon="4.95297">
        <ele>137.36599731445</ele>
        <time>2010-12-18T14:43:39Z</time>
      </trkpt>
      <trkpt lat="45.05483" lon="4.95377">
        <ele>138.72399902344</ele>
        <time>2010-12-18T14:43:50Z</time>
      </trkpt>
      <trkpt lat="45.05492" lon="4.95434">
        <ele>138.86099243164</ele>
        <time>2010-12-18T14:43:57Z</time>
      </trkpt>
      <trkpt lat="45.05503" lon="4.95493">
        <ele>140.66499328613</ele>
        <time>2010-12-18T14:44:05Z</time>
      </trkpt>
      <trkpt lat="45.05512" lon="4.95547">
        <ele>142.04600524902</ele>
        <time>2010-12-18T14:44:13Z</time>
      </trkpt>
      <trkpt lat="45.05518" lon="4.95583">
        <ele>140.70799255371</ele>
        <time>2010-12-18T14:44:18Z</time>
      </trkpt>
      <trkpt lat="45.0553" lon="4.95652">
        <ele>139.4880065918</ele>
        <time>2010-12-18T14:44:26Z</time>
      </trkpt>
      <trkpt lat="45.05537" lon="4.95692">
        <ele>139.77900695801</ele>
        <time>2010-12-18T14:44:31Z</time>
      </trkpt>
      <trkpt lat="45.05552" lon="4.95771">
        <ele>139.55900573731</ele>
        <time>2010-12-18T14:44:41Z</time>
      </trkpt>
      <trkpt lat="45.05568" lon="4.95859">
        <ele>139.18800354004</ele>
        <time>2010-12-18T14:44:52Z</time>
      </trkpt>
      <trkpt lat="45.05582" lon="4.9594">
        <ele>139.32600402832</ele>
        <time>2010-12-18T14:45:02Z</time>
      </trkpt>
      <trkpt lat="45.05593" lon="4.96027">
        <ele>140.14700317383</ele>
        <time>2010-12-18T14:45:13Z</time>
      </trkpt>
      <trkpt lat="45.05601" lon="4.961">
        <ele>139.94700622559</ele>
        <time>2010-12-18T14:45:22Z</time>
      </trkpt>
      <trkpt lat="45.05614" lon="4.96182">
        <ele>140.14999389648</ele>
        <time>2010-12-18T14:45:32Z</time>
      </trkpt>
      <trkpt lat="45.05635" lon="4.96265">
        <ele>140.90699768066</ele>
        <time>2010-12-18T14:45:43Z</time>
      </trkpt>
      <trkpt lat="45.0565" lon="4.9632">
        <ele>141.65699768066</ele>
        <time>2010-12-18T14:45:51Z</time>
      </trkpt>
      <trkpt lat="45.05659" lon="4.96352">
        <ele>143.14100646973</ele>
        <time>2010-12-18T14:45:57Z</time>
      </trkpt>
      <trkpt lat="45.05667" lon="4.96369">
        <ele>143.64300537109</ele>
        <time>2010-12-18T14:46:02Z</time>
      </trkpt>
      <trkpt lat="45.05681" lon="4.96372">
        <ele>143.56599426269</ele>
        <time>2010-12-18T14:46:06Z</time>
      </trkpt>
      <trkpt lat="45.05708" lon="4.96377">
        <ele>144.35600280762</ele>
        <time>2010-12-18T14:46:12Z</time>
      </trkpt>
      <trkpt lat="45.05738" lon="4.96384">
        <ele>144.61700439453</ele>
        <time>2010-12-18T14:46:19Z</time>
      </trkpt>
      <trkpt lat="45.05776" lon="4.96394">
        <ele>145.58200073242</ele>
        <time>2010-12-18T14:46:27Z</time>
      </trkpt>
      <trkpt lat="45.05822" lon="4.96406">
        <ele>146.77600097656</ele>
        <time>2010-12-18T14:46:36Z</time>
      </trkpt>
      <trkpt lat="45.05899" lon="4.96426">
        <ele>148.79200744629</ele>
        <time>2010-12-18T14:46:51Z</time>
      </trkpt>
      <trkpt lat="45.05962" lon="4.96443">
        <ele>149.76600646973</ele>
        <time>2010-12-18T14:47:03Z</time>
      </trkpt>
      <trkpt lat="45.06007" lon="4.9645">
        <ele>149.60899353027</ele>
        <time>2010-12-18T14:47:11Z</time>
      </trkpt>
      <trkpt lat="45.06061" lon="4.96448">
        <ele>149.60899353027</ele>
        <time>2010-12-18T14:47:20Z</time>
      </trkpt>
      <trkpt lat="45.06114" lon="4.96441">
        <ele>149.67999267578</ele>
        <time>2010-12-18T14:47:29Z</time>
      </trkpt>
      <trkpt lat="45.06178" lon="4.96424">
        <ele>150.48699951172</ele>
        <time>2010-12-18T14:47:40Z</time>
      </trkpt>
      <trkpt lat="45.06231" lon="4.96401">
        <ele>150.5950012207</ele>
        <time>2010-12-18T14:47:49Z</time>
      </trkpt>
      <trkpt lat="45.06274" lon="4.96382">
        <ele>150.14999389648</ele>
        <time>2010-12-18T14:47:56Z</time>
      </trkpt>
      <trkpt lat="45.06321" lon="4.96373">
        <ele>149.71200561523</ele>
        <time>2010-12-18T14:48:03Z</time>
      </trkpt>
      <trkpt lat="45.06369" lon="4.96371">
        <ele>148.52799987793</ele>
        <time>2010-12-18T14:48:10Z</time>
      </trkpt>
      <trkpt lat="45.06411" lon="4.9637">
        <ele>147.24099731445</ele>
        <time>2010-12-18T14:48:16Z</time>
      </trkpt>
      <trkpt lat="45.06454" lon="4.96368">
        <ele>146.00100708008</ele>
        <time>2010-12-18T14:48:22Z</time>
      </trkpt>
      <trkpt lat="45.06504" lon="4.96364">
        <ele>144.80599975586</ele>
        <time>2010-12-18T14:48:29Z</time>
      </trkpt>
      <trkpt lat="45.06552" lon="4.96352">
        <ele>143.88200378418</ele>
        <time>2010-12-18T14:48:36Z</time>
      </trkpt>
      <trkpt lat="45.06596" lon="4.96329">
        <ele>143.31399536133</ele>
        <time>2010-12-18T14:48:43Z</time>
      </trkpt>
      <trkpt lat="45.06636" lon="4.96305">
        <ele>143.27400207519</ele>
        <time>2010-12-18T14:48:50Z</time>
      </trkpt>
      <trkpt lat="45.06695" lon="4.96268">
        <ele>142.87199401856</ele>
        <time>2010-12-18T14:49:00Z</time>
      </trkpt>
      <trkpt lat="45.06732" lon="4.96253">
        <ele>143.41499328613</ele>
        <time>2010-12-18T14:49:06Z</time>
      </trkpt>
      <trkpt lat="45.06779" lon="4.96235">
        <ele>144.11599731445</ele>
        <time>2010-12-18T14:49:14Z</time>
      </trkpt>
      <trkpt lat="45.06789" lon="4.96228">
        <ele>144.27200317383</ele>
        <time>2010-12-18T14:49:16Z</time>
      </trkpt>
      <trkpt lat="45.06807" lon="4.9623">
        <ele>144.86700439453</ele>
        <time>2010-12-18T14:49:20Z</time>
      </trkpt>
      <trkpt lat="45.06815" lon="4.96246">
        <ele>145.18800354004</ele>
        <time>2010-12-18T14:49:23Z</time>
      </trkpt>
      <trkpt lat="45.06823" lon="4.96244">
        <ele>145.22399902344</ele>
        <time>2010-12-18T14:49:25Z</time>
      </trkpt>
      <trkpt lat="45.06834" lon="4.96241">
        <ele>145.40600585938</ele>
        <time>2010-12-18T14:49:28Z</time>
      </trkpt>
      <trkpt lat="45.06841" lon="4.96248">
        <ele>145.39999389648</ele>
        <time>2010-12-18T14:49:30Z</time>
      </trkpt>
      <trkpt lat="45.06868" lon="4.96288">
        <ele>145.59399414062</ele>
        <time>2010-12-18T14:49:38Z</time>
      </trkpt>
      <trkpt lat="45.06878" lon="4.96303">
        <ele>145.84599304199</ele>
        <time>2010-12-18T14:49:41Z</time>
      </trkpt>
      <trkpt lat="45.06886" lon="4.96334">
        <ele>146.27200317383</ele>
        <time>2010-12-18T14:49:46Z</time>
      </trkpt>
      <trkpt lat="45.06885" lon="4.96348">
        <ele>146.47200012207</ele>
        <time>2010-12-18T14:49:48Z</time>
      </trkpt>
      <trkpt lat="45.0688" lon="4.96394">
        <ele>147.10000610352</ele>
        <time>2010-12-18T14:49:55Z</time>
      </trkpt>
      <trkpt lat="45.06878" lon="4.96414">
        <ele>147.26699829102</ele>
        <time>2010-12-18T14:49:58Z</time>
      </trkpt>
      <trkpt lat="45.06876" lon="4.9646">
        <ele>148.03300476074</ele>
        <time>2010-12-18T14:50:05Z</time>
      </trkpt>
      <trkpt lat="45.06879" lon="4.96479">
        <ele>148.5299987793</ele>
        <time>2010-12-18T14:50:08Z</time>
      </trkpt>
      <trkpt lat="45.06889" lon="4.96499">
        <ele>149.02600097656</ele>
        <time>2010-12-18T14:50:12Z</time>
      </trkpt>
      <trkpt lat="45.06913" lon="4.96517">
        <ele>150.89799499512</ele>
        <time>2010-12-18T14:50:19Z</time>
      </trkpt>
      <trkpt lat="45.0694" lon="4.96529">
        <ele>153.55000305176</ele>
        <time>2010-12-18T14:50:27Z</time>
      </trkpt>
      <trkpt lat="45.06948" lon="4.96535">
        <ele>154.53500366211</ele>
        <time>2010-12-18T14:50:30Z</time>
      </trkpt>
      <trkpt lat="45.06964" lon="4.96561">
        <ele>155.45300292969</ele>
        <time>2010-12-18T14:50:36Z</time>
      </trkpt>
      <trkpt lat="45.06974" lon="4.9658">
        <ele>156.05400085449</ele>
        <time>2010-12-18T14:50:40Z</time>
      </trkpt>
      <trkpt lat="45.06979" lon="4.96589">
        <ele>156.35299682617</ele>
        <time>2010-12-18T14:50:42Z</time>
      </trkpt>
      <trkpt lat="45.06997" lon="4.9662">
        <ele>156.94999694824</ele>
        <time>2010-12-18T14:50:49Z</time>
      </trkpt>
      <trkpt lat="45.07011" lon="4.96654">
        <ele>156.02099609375</ele>
        <time>2010-12-18T14:50:54Z</time>
      </trkpt>
      <trkpt lat="45.07021" lon="4.967">
        <ele>153.73199462891</ele>
        <time>2010-12-18T14:50:59Z</time>
      </trkpt>
      <trkpt lat="45.07029" lon="4.9674">
        <ele>153.67100524902</ele>
        <time>2010-12-18T14:51:04Z</time>
      </trkpt>
      <trkpt lat="45.07038" lon="4.96769">
        <ele>155.14100646973</ele>
        <time>2010-12-18T14:51:10Z</time>
      </trkpt>
      <trkpt lat="45.0705" lon="4.96792">
        <ele>157.91299438477</ele>
        <time>2010-12-18T14:51:17Z</time>
      </trkpt>
      <trkpt lat="45.07056" lon="4.96809">
        <ele>159.67300415039</ele>
        <time>2010-12-18T14:51:22Z</time>
      </trkpt>
      <trkpt lat="45.07059" lon="4.96824">
        <ele>161.98899841309</ele>
        <time>2010-12-18T14:51:27Z</time>
      </trkpt>
      <trkpt lat="45.07059" lon="4.96834">
        <ele>163.6130065918</ele>
        <time>2010-12-18T14:51:30Z</time>
      </trkpt>
      <trkpt lat="45.07062" lon="4.96854">
        <ele>166.58999633789</ele>
        <time>2010-12-18T14:51:36Z</time>
      </trkpt>
      <trkpt lat="45.07061" lon="4.96877">
        <ele>169.21099853516</ele>
        <time>2010-12-18T14:51:42Z</time>
      </trkpt>
      <trkpt lat="45.0706" lon="4.96887">
        <ele>170.28799438477</ele>
        <time>2010-12-18T14:51:44Z</time>
      </trkpt>
      <trkpt lat="45.07059" lon="4.96892">
        <ele>170.54899597168</ele>
        <time>2010-12-18T14:51:45Z</time>
      </trkpt>
      <trkpt lat="45.07057" lon="4.96902">
        <ele>171.48899841309</ele>
        <time>2010-12-18T14:51:47Z</time>
      </trkpt>
      <trkpt lat="45.07055" lon="4.9691">
        <ele>172.55400085449</ele>
        <time>2010-12-18T14:51:49Z</time>
      </trkpt>
      <trkpt lat="45.07053" lon="4.96914">
        <ele>172.83200073242</ele>
        <time>2010-12-18T14:51:50Z</time>
      </trkpt>
      <trkpt lat="45.07042" lon="4.96937">
        <ele>175.47599792481</ele>
        <time>2010-12-18T14:51:57Z</time>
      </trkpt>
      <trkpt lat="45.07037" lon="4.96959">
        <ele>177.47300720215</ele>
        <time>2010-12-18T14:52:04Z</time>
      </trkpt>
      <trkpt lat="45.07035" lon="4.9697">
        <ele>178.82099914551</ele>
        <time>2010-12-18T14:52:10Z</time>
      </trkpt>
      <trkpt lat="45.07034" lon="4.96975">
        <ele>179.49299621582</ele>
        <time>2010-12-18T14:52:13Z</time>
      </trkpt>
      <trkpt lat="45.07041" lon="4.9699">
        <ele>180.35299682617</ele>
        <time>2010-12-18T14:52:19Z</time>
      </trkpt>
      <trkpt lat="45.07042" lon="4.96992">
        <ele>180.55999755859</ele>
        <time>2010-12-18T14:52:20Z</time>
      </trkpt>
      <trkpt lat="45.07051" lon="4.97002">
        <ele>181.65899658203</ele>
        <time>2010-12-18T14:52:25Z</time>
      </trkpt>
      <trkpt lat="45.07063" lon="4.97009">
        <ele>182.45799255371</ele>
        <time>2010-12-18T14:52:30Z</time>
      </trkpt>
      <trkpt lat="45.07077" lon="4.97013">
        <ele>183.62399291992</ele>
        <time>2010-12-18T14:52:35Z</time>
      </trkpt>
      <trkpt lat="45.07093" lon="4.97006">
        <ele>185.16499328613</ele>
        <time>2010-12-18T14:52:39Z</time>
      </trkpt>
      <trkpt lat="45.07098" lon="4.97005">
        <ele>185.81399536133</ele>
        <time>2010-12-18T14:52:40Z</time>
      </trkpt>
      <trkpt lat="45.07121" lon="4.97008">
        <ele>188.57699584961</ele>
        <time>2010-12-18T14:52:45Z</time>
      </trkpt>
      <trkpt lat="45.07124" lon="4.97011">
        <ele>188.82699584961</ele>
        <time>2010-12-18T14:52:46Z</time>
      </trkpt>
      <trkpt lat="45.07127" lon="4.97015">
        <ele>189.32200622559</ele>
        <time>2010-12-18T14:52:47Z</time>
      </trkpt>
      <trkpt lat="45.07135" lon="4.9703">
        <ele>191.41000366211</ele>
        <time>2010-12-18T14:52:51Z</time>
      </trkpt>
      <trkpt lat="45.07146" lon="4.97051">
        <ele>193.77099609375</ele>
        <time>2010-12-18T14:52:57Z</time>
      </trkpt>
      <trkpt lat="45.07158" lon="4.97066">
        <ele>195.56700134277</ele>
        <time>2010-12-18T14:53:02Z</time>
      </trkpt>
      <trkpt lat="45.07164" lon="4.97073">
        <ele>196.44299316406</ele>
        <time>2010-12-18T14:53:04Z</time>
      </trkpt>
      <trkpt lat="45.07171" lon="4.97078">
        <ele>196.94000244141</ele>
        <time>2010-12-18T14:53:06Z</time>
      </trkpt>
      <trkpt lat="45.07174" lon="4.97081">
        <ele>197.19400024414</ele>
        <time>2010-12-18T14:53:07Z</time>
      </trkpt>
      <trkpt lat="45.07206" lon="4.97097">
        <ele>198.91700744629</ele>
        <time>2010-12-18T14:53:16Z</time>
      </trkpt>
      <trkpt lat="45.07244" lon="4.97113">
        <ele>200.85099792481</ele>
        <time>2010-12-18T14:53:26Z</time>
      </trkpt>
      <trkpt lat="45.07276" lon="4.9712">
        <ele>202.86199951172</ele>
        <time>2010-12-18T14:53:34Z</time>
      </trkpt>
      <trkpt lat="45.07292" lon="4.97121">
        <ele>204.48100280762</ele>
        <time>2010-12-18T14:53:38Z</time>
      </trkpt>
      <trkpt lat="45.07309" lon="4.97121">
        <ele>206.58700561523</ele>
        <time>2010-12-18T14:53:42Z</time>
      </trkpt>
      <trkpt lat="45.07331" lon="4.97131">
        <ele>208.21800231934</ele>
        <time>2010-12-18T14:53:48Z</time>
      </trkpt>
      <trkpt lat="45.07343" lon="4.97148">
        <ele>208.12100219727</ele>
        <time>2010-12-18T14:53:52Z</time>
      </trkpt>
      <trkpt lat="45.07346" lon="4.97153">
        <ele>208.08500671387</ele>
        <time>2010-12-18T14:53:53Z</time>
      </trkpt>
      <trkpt lat="45.0735" lon="4.97162">
        <ele>208.09700012207</ele>
        <time>2010-12-18T14:53:55Z</time>
      </trkpt>
      <trkpt lat="45.07352" lon="4.97166">
        <ele>208.04100036621</ele>
        <time>2010-12-18T14:53:56Z</time>
      </trkpt>
      <trkpt lat="45.07358" lon="4.97181">
        <ele>208.24499511719</ele>
        <time>2010-12-18T14:53:59Z</time>
      </trkpt>
      <trkpt lat="45.07362" lon="4.97189">
        <ele>208.28900146484</ele>
        <time>2010-12-18T14:54:01Z</time>
      </trkpt>
      <trkpt lat="45.07385" lon="4.97224">
        <ele>208.99699401856</ele>
        <time>2010-12-18T14:54:10Z</time>
      </trkpt>
      <trkpt lat="45.07407" lon="4.97259">
        <ele>210.07800292969</ele>
        <time>2010-12-18T14:54:19Z</time>
      </trkpt>
      <trkpt lat="45.07429" lon="4.97289">
        <ele>211.43800354004</ele>
        <time>2010-12-18T14:54:28Z</time>
      </trkpt>
      <trkpt lat="45.07445" lon="4.9731">
        <ele>211.96800231934</ele>
        <time>2010-12-18T14:54:34Z</time>
      </trkpt>
      <trkpt lat="45.07477" lon="4.97337">
        <ele>213.76800537109</ele>
        <time>2010-12-18T14:54:44Z</time>
      </trkpt>
      <trkpt lat="45.07492" lon="4.97357">
        <ele>215.10299682617</ele>
        <time>2010-12-18T14:54:50Z</time>
      </trkpt>
      <trkpt lat="45.07495" lon="4.97382">
        <ele>216.27099609375</ele>
        <time>2010-12-18T14:54:55Z</time>
      </trkpt>
      <trkpt lat="45.07495" lon="4.97432">
        <ele>218.30599975586</ele>
        <time>2010-12-18T14:55:04Z</time>
      </trkpt>
      <trkpt lat="45.07486" lon="4.97475">
        <ele>220.9880065918</ele>
        <time>2010-12-18T14:55:12Z</time>
      </trkpt>
      <trkpt lat="45.07476" lon="4.97499">
        <ele>223.30799865723</ele>
        <time>2010-12-18T14:55:17Z</time>
      </trkpt>
      <trkpt lat="45.07465" lon="4.97523">
        <ele>225.45500183106</ele>
        <time>2010-12-18T14:55:22Z</time>
      </trkpt>
      <trkpt lat="45.07444" lon="4.97542">
        <ele>227.66200256348</ele>
        <time>2010-12-18T14:55:28Z</time>
      </trkpt>
      <trkpt lat="45.07425" lon="4.97551">
        <ele>230.65400695801</ele>
        <time>2010-12-18T14:55:33Z</time>
      </trkpt>
      <trkpt lat="45.07425" lon="4.97566">
        <ele>232.9640045166</ele>
        <time>2010-12-18T14:55:37Z</time>
      </trkpt>
      <trkpt lat="45.07437" lon="4.97565">
        <ele>233.68600463867</ele>
        <time>2010-12-18T14:55:40Z</time>
      </trkpt>
      <trkpt lat="45.07454" lon="4.97571">
        <ele>235.02600097656</ele>
        <time>2010-12-18T14:55:44Z</time>
      </trkpt>
      <trkpt lat="45.07462" lon="4.97576">
        <ele>235.6369934082</ele>
        <time>2010-12-18T14:55:46Z</time>
      </trkpt>
      <trkpt lat="45.07494" lon="4.97598">
        <ele>237.5890045166</ele>
        <time>2010-12-18T14:55:55Z</time>
      </trkpt>
      <trkpt lat="45.07505" lon="4.97619">
        <ele>238.55099487305</ele>
        <time>2010-12-18T14:56:00Z</time>
      </trkpt>
      <trkpt lat="45.07513" lon="4.97647">
        <ele>239.93299865723</ele>
        <time>2010-12-18T14:56:07Z</time>
      </trkpt>
      <trkpt lat="45.07515" lon="4.97674">
        <ele>241.46899414062</ele>
        <time>2010-12-18T14:56:14Z</time>
      </trkpt>
      <trkpt lat="45.07517" lon="4.97694">
        <ele>242.64100646973</ele>
        <time>2010-12-18T14:56:20Z</time>
      </trkpt>
      <trkpt lat="45.07522" lon="4.97699">
        <ele>242.88800048828</ele>
        <time>2010-12-18T14:56:23Z</time>
      </trkpt>
      <trkpt lat="45.07541" lon="4.97699">
        <ele>242.06700134277</ele>
        <time>2010-12-18T14:56:29Z</time>
      </trkpt>
      <trkpt lat="45.07556" lon="4.97696">
        <ele>241.36599731445</ele>
        <time>2010-12-18T14:56:32Z</time>
      </trkpt>
      <trkpt lat="45.07595" lon="4.97691">
        <ele>238.92599487305</ele>
        <time>2010-12-18T14:56:38Z</time>
      </trkpt>
      <trkpt lat="45.07645" lon="4.97683">
        <ele>235.87699890137</ele>
        <time>2010-12-18T14:56:44Z</time>
      </trkpt>
      <trkpt lat="45.07663" lon="4.97681">
        <ele>235.11799621582</ele>
        <time>2010-12-18T14:56:46Z</time>
      </trkpt>
      <trkpt lat="45.07683" lon="4.97679">
        <ele>234.07899475098</ele>
        <time>2010-12-18T14:56:49Z</time>
      </trkpt>
      <trkpt lat="45.07689" lon="4.97684">
        <ele>232.85099792481</ele>
        <time>2010-12-18T14:56:54Z</time>
      </trkpt>
      <trkpt lat="45.07689" lon="4.97684">
        <ele>232.75199890137</ele>
        <time>2010-12-18T14:56:55Z</time>
      </trkpt>
      <trkpt lat="45.07691" lon="4.97685">
        <ele>232.49099731445</ele>
        <time>2010-12-18T14:58:52Z</time>
      </trkpt>
      <trkpt lat="45.07693" lon="4.97686">
        <ele>232.45199584961</ele>
        <time>2010-12-18T14:58:53Z</time>
      </trkpt>
      <trkpt lat="45.077" lon="4.97681">
        <ele>232.43699645996</ele>
        <time>2010-12-18T14:58:57Z</time>
      </trkpt>
      <trkpt lat="45.07718" lon="4.97665">
        <ele>232.34100341797</ele>
        <time>2010-12-18T14:59:03Z</time>
      </trkpt>
      <trkpt lat="45.07752" lon="4.97638">
        <ele>232.29800415039</ele>
        <time>2010-12-18T14:59:11Z</time>
      </trkpt>
      <trkpt lat="45.0778" lon="4.97618">
        <ele>232.88400268555</ele>
        <time>2010-12-18T14:59:17Z</time>
      </trkpt>
      <trkpt lat="45.0782" lon="4.97592">
        <ele>233.95300292969</ele>
        <time>2010-12-18T14:59:26Z</time>
      </trkpt>
      <trkpt lat="45.07857" lon="4.97573">
        <ele>235.20399475098</ele>
        <time>2010-12-18T14:59:34Z</time>
      </trkpt>
      <trkpt lat="45.07875" lon="4.97559">
        <ele>235.75199890137</ele>
        <time>2010-12-18T14:59:38Z</time>
      </trkpt>
      <trkpt lat="45.07899" lon="4.97529">
        <ele>235.48300170898</ele>
        <time>2010-12-18T14:59:44Z</time>
      </trkpt>
      <trkpt lat="45.07933" lon="4.97509">
        <ele>234.76400756836</ele>
        <time>2010-12-18T14:59:50Z</time>
      </trkpt>
      <trkpt lat="45.07964" lon="4.9751">
        <ele>234.28100585938</ele>
        <time>2010-12-18T14:59:55Z</time>
      </trkpt>
      <trkpt lat="45.07998" lon="4.97524">
        <ele>234.88800048828</ele>
        <time>2010-12-18T15:00:01Z</time>
      </trkpt>
      <trkpt lat="45.08034" lon="4.97548">
        <ele>236.81399536133</ele>
        <time>2010-12-18T15:00:09Z</time>
      </trkpt>
      <trkpt lat="45.08068" lon="4.97559">
        <ele>238.47700500488</ele>
        <time>2010-12-18T15:00:17Z</time>
      </trkpt>
      <trkpt lat="45.08073" lon="4.97559">
        <ele>238.74499511719</ele>
        <time>2010-12-18T15:00:18Z</time>
      </trkpt>
      <trkpt lat="45.08118" lon="4.97559">
        <ele>242.85699462891</ele>
        <time>2010-12-18T15:00:29Z</time>
      </trkpt>
      <trkpt lat="45.08147" lon="4.97556">
        <ele>245.69900512695</ele>
        <time>2010-12-18T15:00:37Z</time>
      </trkpt>
      <trkpt lat="45.08171" lon="4.97551">
        <ele>248.31500244141</ele>
        <time>2010-12-18T15:00:44Z</time>
      </trkpt>
      <trkpt lat="45.08193" lon="4.97546">
        <ele>249.84300231934</ele>
        <time>2010-12-18T15:00:50Z</time>
      </trkpt>
      <trkpt lat="45.08221" lon="4.97546">
        <ele>251.16700744629</ele>
        <time>2010-12-18T15:00:57Z</time>
      </trkpt>
      <trkpt lat="45.08254" lon="4.97556">
        <ele>251.72399902344</ele>
        <time>2010-12-18T15:01:05Z</time>
      </trkpt>
      <trkpt lat="45.08293" lon="4.9757">
        <ele>250.94700622559</ele>
        <time>2010-12-18T15:01:13Z</time>
      </trkpt>
      <trkpt lat="45.08338" lon="4.97585">
        <ele>250.94400024414</ele>
        <time>2010-12-18T15:01:22Z</time>
      </trkpt>
      <trkpt lat="45.08386" lon="4.97602">
        <ele>251.50900268555</ele>
        <time>2010-12-18T15:01:32Z</time>
      </trkpt>
      <trkpt lat="45.08427" lon="4.97608">
        <ele>251.98199462891</ele>
        <time>2010-12-18T15:01:40Z</time>
      </trkpt>
      <trkpt lat="45.08473" lon="4.9761">
        <ele>251.40899658203</ele>
        <time>2010-12-18T15:01:48Z</time>
      </trkpt>
      <trkpt lat="45.08496" lon="4.97609">
        <ele>250.97999572754</ele>
        <time>2010-12-18T15:01:52Z</time>
      </trkpt>
      <trkpt lat="45.08522" lon="4.97591">
        <ele>250.32099914551</ele>
        <time>2010-12-18T15:01:57Z</time>
      </trkpt>
      <trkpt lat="45.0853" lon="4.97578">
        <ele>250.0950012207</ele>
        <time>2010-12-18T15:01:59Z</time>
      </trkpt>
      <trkpt lat="45.08546" lon="4.97537">
        <ele>249.90199279785</ele>
        <time>2010-12-18T15:02:05Z</time>
      </trkpt>
      <trkpt lat="45.08565" lon="4.97482">
        <ele>250.86500549316</ele>
        <time>2010-12-18T15:02:13Z</time>
      </trkpt>
      <trkpt lat="45.08583" lon="4.97434">
        <ele>252.68400573731</ele>
        <time>2010-12-18T15:02:21Z</time>
      </trkpt>
      <trkpt lat="45.08598" lon="4.97405">
        <ele>254.76800537109</ele>
        <time>2010-12-18T15:02:27Z</time>
      </trkpt>
      <trkpt lat="45.08619" lon="4.97371">
        <ele>257.08200073242</ele>
        <time>2010-12-18T15:02:35Z</time>
      </trkpt>
      <trkpt lat="45.08624" lon="4.97364">
        <ele>257.66101074219</ele>
        <time>2010-12-18T15:02:37Z</time>
      </trkpt>
      <trkpt lat="45.08636" lon="4.97366">
        <ele>258.43798828125</ele>
        <time>2010-12-18T15:02:41Z</time>
      </trkpt>
      <trkpt lat="45.08643" lon="4.97372">
        <ele>258.62701416016</ele>
        <time>2010-12-18T15:02:43Z</time>
      </trkpt>
      <trkpt lat="45.08659" lon="4.97398">
        <ele>259.49499511719</ele>
        <time>2010-12-18T15:02:50Z</time>
      </trkpt>
      <trkpt lat="45.08668" lon="4.9742">
        <ele>260.50201416016</ele>
        <time>2010-12-18T15:02:56Z</time>
      </trkpt>
      <trkpt lat="45.08673" lon="4.97439">
        <ele>261.25900268555</ele>
        <time>2010-12-18T15:03:02Z</time>
      </trkpt>
      <trkpt lat="45.08681" lon="4.97465">
        <ele>260.79598999023</ele>
        <time>2010-12-18T15:03:08Z</time>
      </trkpt>
      <trkpt lat="45.08697" lon="4.97496">
        <ele>260.75201416016</ele>
        <time>2010-12-18T15:03:14Z</time>
      </trkpt>
      <trkpt lat="45.08725" lon="4.97537">
        <ele>260.70498657227</ele>
        <time>2010-12-18T15:03:22Z</time>
      </trkpt>
      <trkpt lat="45.08751" lon="4.97578">
        <ele>260.47698974609</ele>
        <time>2010-12-18T15:03:29Z</time>
      </trkpt>
      <trkpt lat="45.08784" lon="4.97631">
        <ele>260.71499633789</ele>
        <time>2010-12-18T15:03:38Z</time>
      </trkpt>
      <trkpt lat="45.0882" lon="4.97674">
        <ele>260.90200805664</ele>
        <time>2010-12-18T15:03:46Z</time>
      </trkpt>
      <trkpt lat="45.08866" lon="4.97717">
        <ele>262.0539855957</ele>
        <time>2010-12-18T15:03:56Z</time>
      </trkpt>
      <trkpt lat="45.089" lon="4.97747">
        <ele>263.67401123047</ele>
        <time>2010-12-18T15:04:04Z</time>
      </trkpt>
      <trkpt lat="45.08935" lon="4.97776">
        <ele>265.68099975586</ele>
        <time>2010-12-18T15:04:12Z</time>
      </trkpt>
      <trkpt lat="45.08973" lon="4.97808">
        <ele>267.33099365234</ele>
        <time>2010-12-18T15:04:21Z</time>
      </trkpt>
      <trkpt lat="45.09005" lon="4.97842">
        <ele>269.32501220703</ele>
        <time>2010-12-18T15:04:30Z</time>
      </trkpt>
      <trkpt lat="45.09038" lon="4.97878">
        <ele>270.93399047852</ele>
        <time>2010-12-18T15:04:39Z</time>
      </trkpt>
      <trkpt lat="45.09061" lon="4.979">
        <ele>271.92199707031</ele>
        <time>2010-12-18T15:04:46Z</time>
      </trkpt>
      <trkpt lat="45.0909" lon="4.97924">
        <ele>271.40100097656</ele>
        <time>2010-12-18T15:04:54Z</time>
      </trkpt>
      <trkpt lat="45.09094" lon="4.97928">
        <ele>271.40600585938</ele>
        <time>2010-12-18T15:04:55Z</time>
      </trkpt>
      <trkpt lat="45.09114" lon="4.97945">
        <ele>270.85299682617</ele>
        <time>2010-12-18T15:05:00Z</time>
      </trkpt>
      <trkpt lat="45.09127" lon="4.97966">
        <ele>270.78900146484</ele>
        <time>2010-12-18T15:05:04Z</time>
      </trkpt>
      <trkpt lat="45.09139" lon="4.98018">
        <ele>270.87399291992</ele>
        <time>2010-12-18T15:05:12Z</time>
      </trkpt>
      <trkpt lat="45.09146" lon="4.98064">
        <ele>271.77301025391</ele>
        <time>2010-12-18T15:05:19Z</time>
      </trkpt>
      <trkpt lat="45.09155" lon="4.98118">
        <ele>273.6780090332</ele>
        <time>2010-12-18T15:05:27Z</time>
      </trkpt>
      <trkpt lat="45.09163" lon="4.98191">
        <ele>273.37100219727</ele>
        <time>2010-12-18T15:05:37Z</time>
      </trkpt>
      <trkpt lat="45.09171" lon="4.98258">
        <ele>274.50201416016</ele>
        <time>2010-12-18T15:05:46Z</time>
      </trkpt>
      <trkpt lat="45.09184" lon="4.98313">
        <ele>275.60000610352</ele>
        <time>2010-12-18T15:05:54Z</time>
      </trkpt>
      <trkpt lat="45.09193" lon="4.98346">
        <ele>276.81298828125</ele>
        <time>2010-12-18T15:05:59Z</time>
      </trkpt>
      <trkpt lat="45.09213" lon="4.98376">
        <ele>278.71899414062</ele>
        <time>2010-12-18T15:06:05Z</time>
      </trkpt>
      <trkpt lat="45.0924" lon="4.9841">
        <ele>280.4169921875</ele>
        <time>2010-12-18T15:06:13Z</time>
      </trkpt>
      <trkpt lat="45.09266" lon="4.98442">
        <ele>282.1789855957</ele>
        <time>2010-12-18T15:06:20Z</time>
      </trkpt>
      <trkpt lat="45.09297" lon="4.9848">
        <ele>283.39199829102</ele>
        <time>2010-12-18T15:06:29Z</time>
      </trkpt>
      <trkpt lat="45.09325" lon="4.98509">
        <ele>283.83898925781</ele>
        <time>2010-12-18T15:06:37Z</time>
      </trkpt>
      <trkpt lat="45.09355" lon="4.98525">
        <ele>282.81900024414</ele>
        <time>2010-12-18T15:06:44Z</time>
      </trkpt>
      <trkpt lat="45.0939" lon="4.98534">
        <ele>281.45599365234</ele>
        <time>2010-12-18T15:06:50Z</time>
      </trkpt>
      <trkpt lat="45.09435" lon="4.98539">
        <ele>280.80899047852</ele>
        <time>2010-12-18T15:06:57Z</time>
      </trkpt>
      <trkpt lat="45.09477" lon="4.98545">
        <ele>280.41000366211</ele>
        <time>2010-12-18T15:07:04Z</time>
      </trkpt>
      <trkpt lat="45.09501" lon="4.98548">
        <ele>280.03399658203</ele>
        <time>2010-12-18T15:07:08Z</time>
      </trkpt>
      <trkpt lat="45.0952" lon="4.98552">
        <ele>279.54299926758</ele>
        <time>2010-12-18T15:07:11Z</time>
      </trkpt>
      <trkpt lat="45.09532" lon="4.98556">
        <ele>279.41500854492</ele>
        <time>2010-12-18T15:07:13Z</time>
      </trkpt>
      <trkpt lat="45.09578" lon="4.98577">
        <ele>277.49301147461</ele>
        <time>2010-12-18T15:07:21Z</time>
      </trkpt>
      <trkpt lat="45.09641" lon="4.98607">
        <ele>276.75399780273</ele>
        <time>2010-12-18T15:07:32Z</time>
      </trkpt>
      <trkpt lat="45.0968" lon="4.98632">
        <ele>276.64498901367</ele>
        <time>2010-12-18T15:07:40Z</time>
      </trkpt>
      <trkpt lat="45.09694" lon="4.9864">
        <ele>275.88800048828</ele>
        <time>2010-12-18T15:07:43Z</time>
      </trkpt>
      <trkpt lat="45.09729" lon="4.98665">
        <ele>275.99099731445</ele>
        <time>2010-12-18T15:07:51Z</time>
      </trkpt>
      <trkpt lat="45.09747" lon="4.98678">
        <ele>275.48999023438</ele>
        <time>2010-12-18T15:07:55Z</time>
      </trkpt>
      <trkpt lat="45.09774" lon="4.9871">
        <ele>275.93899536133</ele>
        <time>2010-12-18T15:08:02Z</time>
      </trkpt>
      <trkpt lat="45.09799" lon="4.98736">
        <ele>277.97900390625</ele>
        <time>2010-12-18T15:08:09Z</time>
      </trkpt>
      <trkpt lat="45.09813" lon="4.98751">
        <ele>278.89801025391</ele>
        <time>2010-12-18T15:08:13Z</time>
      </trkpt>
      <trkpt lat="45.09843" lon="4.98786">
        <ele>281.32998657227</ele>
        <time>2010-12-18T15:08:22Z</time>
      </trkpt>
      <trkpt lat="45.09863" lon="4.98809">
        <ele>282.86898803711</ele>
        <time>2010-12-18T15:08:28Z</time>
      </trkpt>
      <trkpt lat="45.09883" lon="4.98843">
        <ele>284.96899414062</ele>
        <time>2010-12-18T15:08:36Z</time>
      </trkpt>
      <trkpt lat="45.099" lon="4.98879">
        <ele>287.66400146484</ele>
        <time>2010-12-18T15:08:44Z</time>
      </trkpt>
      <trkpt lat="45.09907" lon="4.98901">
        <ele>289.00100708008</ele>
        <time>2010-12-18T15:08:49Z</time>
      </trkpt>
      <trkpt lat="45.09915" lon="4.98917">
        <ele>290.30099487305</ele>
        <time>2010-12-18T15:08:53Z</time>
      </trkpt>
      <trkpt lat="45.09923" lon="4.98934">
        <ele>290.98599243164</ele>
        <time>2010-12-18T15:08:57Z</time>
      </trkpt>
      <trkpt lat="45.09933" lon="4.98954">
        <ele>292.29901123047</ele>
        <time>2010-12-18T15:09:02Z</time>
      </trkpt>
      <trkpt lat="45.09954" lon="4.98983">
        <ele>293.59899902344</ele>
        <time>2010-12-18T15:09:10Z</time>
      </trkpt>
      <trkpt lat="45.09989" lon="4.99025">
        <ele>295.64898681641</ele>
        <time>2010-12-18T15:09:21Z</time>
      </trkpt>
      <trkpt lat="45.10002" lon="4.99042">
        <ele>296.40399169922</ele>
        <time>2010-12-18T15:09:25Z</time>
      </trkpt>
      <trkpt lat="45.10025" lon="4.99068">
        <ele>298.00500488281</ele>
        <time>2010-12-18T15:09:32Z</time>
      </trkpt>
      <trkpt lat="45.10054" lon="4.99104">
        <ele>300.02801513672</ele>
        <time>2010-12-18T15:09:41Z</time>
      </trkpt>
      <trkpt lat="45.10078" lon="4.99131">
        <ele>300.79299926758</ele>
        <time>2010-12-18T15:09:48Z</time>
      </trkpt>
      <trkpt lat="45.10105" lon="4.9916">
        <ele>301.51800537109</ele>
        <time>2010-12-18T15:09:56Z</time>
      </trkpt>
      <trkpt lat="45.1012" lon="4.99174">
        <ele>301.52200317383</ele>
        <time>2010-12-18T15:10:00Z</time>
      </trkpt>
      <trkpt lat="45.1015" lon="4.99205">
        <ele>300.44400024414</ele>
        <time>2010-12-18T15:10:08Z</time>
      </trkpt>
      <trkpt lat="45.10184" lon="4.99235">
        <ele>299.29598999023</ele>
        <time>2010-12-18T15:10:15Z</time>
      </trkpt>
      <trkpt lat="45.10211" lon="4.99255">
        <ele>298.95199584961</ele>
        <time>2010-12-18T15:10:21Z</time>
      </trkpt>
      <trkpt lat="45.10239" lon="4.99272">
        <ele>298.73400878906</ele>
        <time>2010-12-18T15:10:28Z</time>
      </trkpt>
      <trkpt lat="45.10254" lon="4.99282">
        <ele>298.82501220703</ele>
        <time>2010-12-18T15:10:32Z</time>
      </trkpt>
      <trkpt lat="45.10283" lon="4.99306">
        <ele>298.62799072266</ele>
        <time>2010-12-18T15:10:40Z</time>
      </trkpt>
      <trkpt lat="45.1029" lon="4.99316">
        <ele>298.08099365234</ele>
        <time>2010-12-18T15:10:42Z</time>
      </trkpt>
      <trkpt lat="45.10314" lon="4.99356">
        <ele>296.09698486328</ele>
        <time>2010-12-18T15:10:48Z</time>
      </trkpt>
      <trkpt lat="45.1034" lon="4.99402">
        <ele>293.36898803711</ele>
        <time>2010-12-18T15:10:54Z</time>
      </trkpt>
      <trkpt lat="45.10355" lon="4.99444">
        <ele>288.66799926758</ele>
        <time>2010-12-18T15:10:59Z</time>
      </trkpt>
      <trkpt lat="45.10379" lon="4.99471">
        <ele>285.77700805664</ele>
        <time>2010-12-18T15:11:03Z</time>
      </trkpt>
      <trkpt lat="45.10396" lon="4.99478">
        <ele>284.85998535156</ele>
        <time>2010-12-18T15:11:05Z</time>
      </trkpt>
      <trkpt lat="45.10422" lon="4.99486">
        <ele>283.58200073242</ele>
        <time>2010-12-18T15:11:08Z</time>
      </trkpt>
      <trkpt lat="45.10465" lon="4.99506">
        <ele>282.81900024414</ele>
        <time>2010-12-18T15:11:14Z</time>
      </trkpt>
      <trkpt lat="45.10501" lon="4.99523">
        <ele>282.86401367188</ele>
        <time>2010-12-18T15:11:20Z</time>
      </trkpt>
      <trkpt lat="45.1054" lon="4.99542">
        <ele>281.23498535156</ele>
        <time>2010-12-18T15:11:26Z</time>
      </trkpt>
      <trkpt lat="45.10571" lon="4.99566">
        <ele>280.45401000977</ele>
        <time>2010-12-18T15:11:31Z</time>
      </trkpt>
      <trkpt lat="45.10588" lon="4.99597">
        <ele>280.61801147461</ele>
        <time>2010-12-18T15:11:36Z</time>
      </trkpt>
      <trkpt lat="45.10597" lon="4.99645">
        <ele>279.82998657227</ele>
        <time>2010-12-18T15:11:43Z</time>
      </trkpt>
      <trkpt lat="45.106" lon="4.99653">
        <ele>279.50201416016</ele>
        <time>2010-12-18T15:11:44Z</time>
      </trkpt>
      <trkpt lat="45.10619" lon="4.99701">
        <ele>277.29800415039</ele>
        <time>2010-12-18T15:11:50Z</time>
      </trkpt>
      <trkpt lat="45.10629" lon="4.99718">
        <ele>276.61099243164</ele>
        <time>2010-12-18T15:11:52Z</time>
      </trkpt>
      <trkpt lat="45.10658" lon="4.99771">
        <ele>274.87200927734</ele>
        <time>2010-12-18T15:11:58Z</time>
      </trkpt>
      <trkpt lat="45.10666" lon="4.99812">
        <ele>273.88299560547</ele>
        <time>2010-12-18T15:12:02Z</time>
      </trkpt>
      <trkpt lat="45.10669" lon="4.99884">
        <ele>270.64898681641</ele>
        <time>2010-12-18T15:12:09Z</time>
      </trkpt>
      <trkpt lat="45.10669" lon="4.99904">
        <ele>269.70999145508</ele>
        <time>2010-12-18T15:12:11Z</time>
      </trkpt>
      <trkpt lat="45.10674" lon="4.99982">
        <ele>265.13198852539</ele>
        <time>2010-12-18T15:12:19Z</time>
      </trkpt>
      <trkpt lat="45.10674" lon="4.99991">
        <ele>264.67999267578</ele>
        <time>2010-12-18T15:12:20Z</time>
      </trkpt>
      <trkpt lat="45.10683" lon="5.00017">
        <ele>263.11599731445</ele>
        <time>2010-12-18T15:12:24Z</time>
      </trkpt>
      <trkpt lat="45.10707" lon="5.00051">
        <ele>260.59799194336</ele>
        <time>2010-12-18T15:12:32Z</time>
      </trkpt>
      <trkpt lat="45.10726" lon="5.00078">
        <ele>258.42700195312</ele>
        <time>2010-12-18T15:12:37Z</time>
      </trkpt>
      <trkpt lat="45.10737" lon="5.00096">
        <ele>255.86799621582</ele>
        <time>2010-12-18T15:12:41Z</time>
      </trkpt>
      <trkpt lat="45.10752" lon="5.00119">
        <ele>252.75199890137</ele>
        <time>2010-12-18T15:12:48Z</time>
      </trkpt>
      <trkpt lat="45.1077" lon="5.00142">
        <ele>250.75399780273</ele>
        <time>2010-12-18T15:12:54Z</time>
      </trkpt>
      <trkpt lat="45.10797" lon="5.00172">
        <ele>248.67500305176</ele>
        <time>2010-12-18T15:12:59Z</time>
      </trkpt>
      <trkpt lat="45.10836" lon="5.00205">
        <ele>245.36199951172</ele>
        <time>2010-12-18T15:13:04Z</time>
      </trkpt>
      <trkpt lat="45.10896" lon="5.00263">
        <ele>241.05000305176</ele>
        <time>2010-12-18T15:13:11Z</time>
      </trkpt>
      <trkpt lat="45.10957" lon="5.00323">
        <ele>237.86500549316</ele>
        <time>2010-12-18T15:13:18Z</time>
      </trkpt>
      <trkpt lat="45.11013" lon="5.00371">
        <ele>235.89799499512</ele>
        <time>2010-12-18T15:13:25Z</time>
      </trkpt>
      <trkpt lat="45.11047" lon="5.00397">
        <ele>235.0890045166</ele>
        <time>2010-12-18T15:13:30Z</time>
      </trkpt>
      <trkpt lat="45.11058" lon="5.00406">
        <ele>235.13200378418</ele>
        <time>2010-12-18T15:13:32Z</time>
      </trkpt>
      <trkpt lat="45.11066" lon="5.00428">
        <ele>236.24800109863</ele>
        <time>2010-12-18T15:13:36Z</time>
      </trkpt>
      <trkpt lat="45.11066" lon="5.00432">
        <ele>236.4880065918</ele>
        <time>2010-12-18T15:13:37Z</time>
      </trkpt>
      <trkpt lat="45.11068" lon="5.00434">
        <ele>236.80900573731</ele>
        <time>2010-12-18T15:13:42Z</time>
      </trkpt>
      <trkpt lat="45.11068" lon="5.00433">
        <ele>236.88400268555</ele>
        <time>2010-12-18T15:13:44Z</time>
      </trkpt>
      <trkpt lat="45.11071" lon="5.00437">
        <ele>236.87600708008</ele>
        <time>2010-12-18T15:13:59Z</time>
      </trkpt>
      <trkpt lat="45.11073" lon="5.0044">
        <ele>236.875</ele>
        <time>2010-12-18T15:14:00Z</time>
      </trkpt>
      <trkpt lat="45.11081" lon="5.00442">
        <ele>236.29100036621</ele>
        <time>2010-12-18T15:14:03Z</time>
      </trkpt>
      <trkpt lat="45.11092" lon="5.00433">
        <ele>235.59599304199</ele>
        <time>2010-12-18T15:14:09Z</time>
      </trkpt>
      <trkpt lat="45.11095" lon="5.00431">
        <ele>235.35899353027</ele>
        <time>2010-12-18T15:14:10Z</time>
      </trkpt>
      <trkpt lat="45.11125" lon="5.00414">
        <ele>233.7200012207</ele>
        <time>2010-12-18T15:14:17Z</time>
      </trkpt>
      <trkpt lat="45.11147" lon="5.00403">
        <ele>232.44900512695</ele>
        <time>2010-12-18T15:14:22Z</time>
      </trkpt>
      <trkpt lat="45.11162" lon="5.00394">
        <ele>231.4700012207</ele>
        <time>2010-12-18T15:14:27Z</time>
      </trkpt>
      <trkpt lat="45.11189" lon="5.00381">
        <ele>230.38999938965</ele>
        <time>2010-12-18T15:14:33Z</time>
      </trkpt>
      <trkpt lat="45.11223" lon="5.00362">
        <ele>228.60699462891</ele>
        <time>2010-12-18T15:14:39Z</time>
      </trkpt>
      <trkpt lat="45.11277" lon="5.0033">
        <ele>226.65600585938</ele>
        <time>2010-12-18T15:14:47Z</time>
      </trkpt>
      <trkpt lat="45.11335" lon="5.00287">
        <ele>224.625</ele>
        <time>2010-12-18T15:14:55Z</time>
      </trkpt>
      <trkpt lat="45.11388" lon="5.00241">
        <ele>223.53199768066</ele>
        <time>2010-12-18T15:15:03Z</time>
      </trkpt>
      <trkpt lat="45.11435" lon="5.00197">
        <ele>223.47300720215</ele>
        <time>2010-12-18T15:15:11Z</time>
      </trkpt>
      <trkpt lat="45.11485" lon="5.00151">
        <ele>223.02799987793</ele>
        <time>2010-12-18T15:15:19Z</time>
      </trkpt>
      <trkpt lat="45.11522" lon="5.00115">
        <ele>222.85899353027</ele>
        <time>2010-12-18T15:15:25Z</time>
      </trkpt>
      <trkpt lat="45.11566" lon="5.00071">
        <ele>222.68400573731</ele>
        <time>2010-12-18T15:15:32Z</time>
      </trkpt>
      <trkpt lat="45.11603" lon="5.00024">
        <ele>221.80999755859</ele>
        <time>2010-12-18T15:15:38Z</time>
      </trkpt>
      <trkpt lat="45.11654" lon="4.99955">
        <ele>219.05999755859</ele>
        <time>2010-12-18T15:15:46Z</time>
      </trkpt>
      <trkpt lat="45.11662" lon="4.99947">
        <ele>218.75799560547</ele>
        <time>2010-12-18T15:15:47Z</time>
      </trkpt>
      <trkpt lat="45.11707" lon="4.99915">
        <ele>215.75799560547</ele>
        <time>2010-12-18T15:15:52Z</time>
      </trkpt>
      <trkpt lat="45.1178" lon="4.99885">
        <ele>210.39599609375</ele>
        <time>2010-12-18T15:15:59Z</time>
      </trkpt>
      <trkpt lat="45.11868" lon="4.99845">
        <ele>205.01400756836</ele>
        <time>2010-12-18T15:16:07Z</time>
      </trkpt>
      <trkpt lat="45.11908" lon="4.99811">
        <ele>202.13200378418</ele>
        <time>2010-12-18T15:16:11Z</time>
      </trkpt>
      <trkpt lat="45.1195" lon="4.99757">
        <ele>199.53199768066</ele>
        <time>2010-12-18T15:16:16Z</time>
      </trkpt>
      <trkpt lat="45.11989" lon="4.99689">
        <ele>198.49000549316</ele>
        <time>2010-12-18T15:16:22Z</time>
      </trkpt>
      <trkpt lat="45.12034" lon="4.99607">
        <ele>198.41799926758</ele>
        <time>2010-12-18T15:16:30Z</time>
      </trkpt>
      <trkpt lat="45.12056" lon="4.99568">
        <ele>198.85200500488</ele>
        <time>2010-12-18T15:16:34Z</time>
      </trkpt>
      <trkpt lat="45.12098" lon="4.9949">
        <ele>198.08599853516</ele>
        <time>2010-12-18T15:16:42Z</time>
      </trkpt>
      <trkpt lat="45.12128" lon="4.9943">
        <ele>197.02799987793</ele>
        <time>2010-12-18T15:16:48Z</time>
      </trkpt>
      <trkpt lat="45.12156" lon="4.99334">
        <ele>196.60400390625</ele>
        <time>2010-12-18T15:16:57Z</time>
      </trkpt>
      <trkpt lat="45.12185" lon="4.99215">
        <ele>196.81700134277</ele>
        <time>2010-12-18T15:17:08Z</time>
      </trkpt>
      <trkpt lat="45.12208" lon="4.99124">
        <ele>197.85400390625</ele>
        <time>2010-12-18T15:17:17Z</time>
      </trkpt>
      <trkpt lat="45.1222" lon="4.99089">
        <ele>198.68200683594</ele>
        <time>2010-12-18T15:17:21Z</time>
      </trkpt>
      <trkpt lat="45.12234" lon="4.99067">
        <ele>199.60499572754</ele>
        <time>2010-12-18T15:17:24Z</time>
      </trkpt>
      <trkpt lat="45.12239" lon="4.99053">
        <ele>200.52400207519</ele>
        <time>2010-12-18T15:17:26Z</time>
      </trkpt>
      <trkpt lat="45.12233" lon="4.99038">
        <ele>200.81399536133</ele>
        <time>2010-12-18T15:17:28Z</time>
      </trkpt>
      <trkpt lat="45.1222" lon="4.99033">
        <ele>200.47700500488</ele>
        <time>2010-12-18T15:17:30Z</time>
      </trkpt>
      <trkpt lat="45.12193" lon="4.99021">
        <ele>198.98399353027</ele>
        <time>2010-12-18T15:17:33Z</time>
      </trkpt>
      <trkpt lat="45.12175" lon="4.99005">
        <ele>198.41400146484</ele>
        <time>2010-12-18T15:17:35Z</time>
      </trkpt>
      <trkpt lat="45.12134" lon="4.98955">
        <ele>196.05599975586</ele>
        <time>2010-12-18T15:17:40Z</time>
      </trkpt>
      <trkpt lat="45.12097" lon="4.98895">
        <ele>194.56799316406</ele>
        <time>2010-12-18T15:17:45Z</time>
      </trkpt>
      <trkpt lat="45.12075" lon="4.98849">
        <ele>193.18400573731</ele>
        <time>2010-12-18T15:17:49Z</time>
      </trkpt>
      <trkpt lat="45.12054" lon="4.98794">
        <ele>192.25300598144</ele>
        <time>2010-12-18T15:17:54Z</time>
      </trkpt>
      <trkpt lat="45.12035" lon="4.98719">
        <ele>191.44999694824</ele>
        <time>2010-12-18T15:18:01Z</time>
      </trkpt>
      <trkpt lat="45.12022" lon="4.98638">
        <ele>191.19299316406</ele>
        <time>2010-12-18T15:18:09Z</time>
      </trkpt>
      <trkpt lat="45.12017" lon="4.98561">
        <ele>191.38000488281</ele>
        <time>2010-12-18T15:18:17Z</time>
      </trkpt>
      <trkpt lat="45.12021" lon="4.98486">
        <ele>191.32699584961</ele>
        <time>2010-12-18T15:18:25Z</time>
      </trkpt>
      <trkpt lat="45.1203" lon="4.98446">
        <ele>191.55999755859</ele>
        <time>2010-12-18T15:18:30Z</time>
      </trkpt>
      <trkpt lat="45.12033" lon="4.98439">
        <ele>191.49699401856</ele>
        <time>2010-12-18T15:18:31Z</time>
      </trkpt>
      <trkpt lat="45.12044" lon="4.98423">
        <ele>191.72999572754</ele>
        <time>2010-12-18T15:18:34Z</time>
      </trkpt>
      <trkpt lat="45.12053" lon="4.98399">
        <ele>191.60099792481</ele>
        <time>2010-12-18T15:18:38Z</time>
      </trkpt>
      <trkpt lat="45.1205" lon="4.98375">
        <ele>191.51600646973</ele>
        <time>2010-12-18T15:18:41Z</time>
      </trkpt>
      <trkpt lat="45.12052" lon="4.98358">
        <ele>191.54699707031</ele>
        <time>2010-12-18T15:18:43Z</time>
      </trkpt>
      <trkpt lat="45.12065" lon="4.98293">
        <ele>190.48300170898</ele>
        <time>2010-12-18T15:18:50Z</time>
      </trkpt>
      <trkpt lat="45.12071" lon="4.982">
        <ele>190.21000671387</ele>
        <time>2010-12-18T15:18:59Z</time>
      </trkpt>
      <trkpt lat="45.12064" lon="4.98123">
        <ele>189.60400390625</ele>
        <time>2010-12-18T15:19:06Z</time>
      </trkpt>
      <trkpt lat="45.12046" lon="4.98046">
        <ele>188.60200500488</ele>
        <time>2010-12-18T15:19:13Z</time>
      </trkpt>
      <trkpt lat="45.12021" lon="4.97948">
        <ele>187.57099914551</ele>
        <time>2010-12-18T15:19:22Z</time>
      </trkpt>
      <trkpt lat="45.12004" lon="4.9787">
        <ele>187.00700378418</ele>
        <time>2010-12-18T15:19:29Z</time>
      </trkpt>
      <trkpt lat="45.11987" lon="4.97768">
        <ele>186.07600402832</ele>
        <time>2010-12-18T15:19:38Z</time>
      </trkpt>
      <trkpt lat="45.11967" lon="4.97656">
        <ele>185.60299682617</ele>
        <time>2010-12-18T15:19:48Z</time>
      </trkpt>
      <trkpt lat="45.11955" lon="4.97585">
        <ele>185.68299865723</ele>
        <time>2010-12-18T15:19:55Z</time>
      </trkpt>
      <trkpt lat="45.11942" lon="4.97514">
        <ele>184.8869934082</ele>
        <time>2010-12-18T15:20:02Z</time>
      </trkpt>
      <trkpt lat="45.11926" lon="4.97415">
        <ele>183.88499450684</ele>
        <time>2010-12-18T15:20:11Z</time>
      </trkpt>
      <trkpt lat="45.11905" lon="4.97295">
        <ele>183.31700134277</ele>
        <time>2010-12-18T15:20:22Z</time>
      </trkpt>
      <trkpt lat="45.1189" lon="4.97209">
        <ele>183.30499267578</ele>
        <time>2010-12-18T15:20:30Z</time>
      </trkpt>
      <trkpt lat="45.11881" lon="4.97158">
        <ele>183.91000366211</ele>
        <time>2010-12-18T15:20:35Z</time>
      </trkpt>
      <trkpt lat="45.11881" lon="4.97117">
        <ele>184.31399536133</ele>
        <time>2010-12-18T15:20:39Z</time>
      </trkpt>
      <trkpt lat="45.11891" lon="4.97094">
        <ele>185.30299377441</ele>
        <time>2010-12-18T15:20:42Z</time>
      </trkpt>
      <trkpt lat="45.11902" lon="4.97073">
        <ele>185.99499511719</ele>
        <time>2010-12-18T15:20:45Z</time>
      </trkpt>
      <trkpt lat="45.11898" lon="4.97056">
        <ele>185.83299255371</ele>
        <time>2010-12-18T15:20:47Z</time>
      </trkpt>
      <trkpt lat="45.11881" lon="4.97042">
        <ele>185.98500061035</ele>
        <time>2010-12-18T15:20:50Z</time>
      </trkpt>
      <trkpt lat="45.11875" lon="4.97036">
        <ele>185.87699890137</ele>
        <time>2010-12-18T15:20:51Z</time>
      </trkpt>
      <trkpt lat="45.11829" lon="4.96975">
        <ele>185.2380065918</ele>
        <time>2010-12-18T15:21:00Z</time>
      </trkpt>
      <trkpt lat="45.11787" lon="4.9691">
        <ele>185.15199279785</ele>
        <time>2010-12-18T15:21:09Z</time>
      </trkpt>
      <trkpt lat="45.1177" lon="4.96883">
        <ele>185.11000061035</ele>
        <time>2010-12-18T15:21:13Z</time>
      </trkpt>
      <trkpt lat="45.11764" lon="4.96858">
        <ele>184.64500427246</ele>
        <time>2010-12-18T15:21:17Z</time>
      </trkpt>
      <trkpt lat="45.11764" lon="4.96853">
        <ele>184.56399536133</ele>
        <time>2010-12-18T15:21:18Z</time>
      </trkpt>
      <trkpt lat="45.11762" lon="4.96824">
        <ele>184.70300292969</ele>
        <time>2010-12-18T15:21:23Z</time>
      </trkpt>
      <trkpt lat="45.11746" lon="4.96813">
        <ele>184.46099853516</ele>
        <time>2010-12-18T15:21:26Z</time>
      </trkpt>
      <trkpt lat="45.11721" lon="4.96801">
        <ele>184.18400573731</ele>
        <time>2010-12-18T15:21:30Z</time>
      </trkpt>
      <trkpt lat="45.11689" lon="4.96756">
        <ele>184.20500183106</ele>
        <time>2010-12-18T15:21:36Z</time>
      </trkpt>
      <trkpt lat="45.11655" lon="4.9669">
        <ele>183.31799316406</ele>
        <time>2010-12-18T15:21:44Z</time>
      </trkpt>
      <trkpt lat="45.11634" lon="4.96636">
        <ele>182.79200744629</ele>
        <time>2010-12-18T15:21:50Z</time>
      </trkpt>
      <trkpt lat="45.11611" lon="4.96576">
        <ele>183.3450012207</ele>
        <time>2010-12-18T15:21:56Z</time>
      </trkpt>
      <trkpt lat="45.11588" lon="4.96518">
        <ele>183.08599853516</ele>
        <time>2010-12-18T15:22:03Z</time>
      </trkpt>
      <trkpt lat="45.11582" lon="4.96503">
        <ele>182.98399353027</ele>
        <time>2010-12-18T15:22:05Z</time>
      </trkpt>
      <trkpt lat="45.11577" lon="4.96469">
        <ele>183.01100158691</ele>
        <time>2010-12-18T15:22:10Z</time>
      </trkpt>
      <trkpt lat="45.11579" lon="4.96445">
        <ele>183.83500671387</ele>
        <time>2010-12-18T15:22:15Z</time>
      </trkpt>
      <trkpt lat="45.11573" lon="4.9644">
        <ele>184.07099914551</ele>
        <time>2010-12-18T15:22:20Z</time>
      </trkpt>
      <trkpt lat="45.11573" lon="4.9644">
        <ele>184.01699829102</ele>
        <time>2010-12-18T15:22:21Z</time>
      </trkpt>
      <trkpt lat="45.11571" lon="4.96448">
        <ele>183.83700561523</ele>
        <time>2010-12-18T15:22:49Z</time>
      </trkpt>
      <trkpt lat="45.11565" lon="4.96448">
        <ele>183.61599731445</ele>
        <time>2010-12-18T15:22:52Z</time>
      </trkpt>
      <trkpt lat="45.11562" lon="4.96446">
        <ele>183.52400207519</ele>
        <time>2010-12-18T15:22:54Z</time>
      </trkpt>
      <trkpt lat="45.11559" lon="4.96426">
        <ele>183.84800720215</ele>
        <time>2010-12-18T15:23:00Z</time>
      </trkpt>
      <trkpt lat="45.11565" lon="4.96422">
        <ele>184.76100158691</ele>
        <time>2010-12-18T15:23:06Z</time>
      </trkpt>
      <trkpt lat="45.11565" lon="4.96423">
        <ele>184.63999938965</ele>
        <time>2010-12-18T15:23:07Z</time>
      </trkpt>
      <trkpt lat="45.11566" lon="4.96425">
        <ele>184.7619934082</ele>
        <time>2010-12-18T15:23:14Z</time>
      </trkpt>
      <trkpt lat="45.11567" lon="4.96424">
        <ele>184.95100402832</ele>
        <time>2010-12-18T15:23:20Z</time>
      </trkpt>
      <trkpt lat="45.11567" lon="4.96423">
        <ele>185.03300476074</ele>
        <time>2010-12-18T15:23:21Z</time>
      </trkpt>
    </trkseg>
  </trk>
</gpx>